[[{"header":{"parameterUnit":"m.s-1","parameterCategory":1,"la1":31.0,"la2":29.5877,"lo1":-88.7671,"lo2":-86.6584,"dy":0.0162,"dx":0.0185,"nx":115,"ny":88,"refTime":"2024-04-06T06:00:00:Z","depth":0,"parameterNumber":2,"parameterNumberName":"U-component_of_WINDS"},"data":[0.0,0.0,0.0,0.0,0.0,0.0,0.0,0.0,0.0,0.0,0.0,0.0,0.0,0.0,0.0,0.0,0.0,0.0,0.0,0.0,0.0,0.0,0.0,0.0,0.0,0.0,0.0,0.0,0.0,0.0,0.0,0.0,0.0,0.0,0.0,0.0,0.0,0.0,0.0,0.0,0.0,0.0,0.0,0.0,0.0,0.0,0.0,0.0,0.0,0.0,0.0,0.0,0.0,0.0,0.0,0.0,0.0,0.0,0.0,0.0,0.0,0.0,0.0,0.0,0.0,0.0,0.0,0.0,0.0,0.0,0.0,0.0,0.0,0.0,0.0,0.0,0.0,0.0,0.0,0.0,0.0,0.0,0.0,0.0,0.0,0.0,0.0,0.0,0.0,0.0,0.0,0.0,0.0,0.0,0.0,0.0,0.0,0.0,0.0,0.0,0.0,0.0,0.0,0.0,0.0,0.0,0.0,0.0,0.0,0.0,0.0,0.0,0.0,0.0,0.0,0.0,0.0,0.0,0.0,0.0,0.0,0.0,0.0,0.0,0.0,0.0,0.0,0.0,0.0,0.0,0.0,0.0,0.0,0.0,0.0,0.0,0.0,0.0,0.0,0.0,0.0,0.0,0.0,0.0,0.0,0.0,0.0,0.0,0.0,0.0,0.0,0.0,0.0,0.0,0.0,0.0,0.0,0.0,0.0,0.0,0.0,0.0,0.0,0.0,0.0,0.0,0.0,0.0,0.0,0.0,0.0,0.0,0.0,0.0,0.0,0.0,0.0,0.0,0.0,0.0,0.0,0.0,0.0,0.0,0.0,0.0,0.0,0.0,0.0,0.0,0.0,0.0,0.0,0.0,0.0,0.0,0.0,0.0,0.0,0.0,0.0,0.0,0.0,0.0,0.0,0.0,0.0,0.0,0.0,0.0,0.0,0.0,0.0,0.0,0.0,0.0,0.0,0.0,0.0,0.0,0.0,0.0,0.0,0.0,0.0,0.0,0.0,0.0,0.0,0.0,0.0,0.0,0.0,0.0,0.0,0.0,0.0,0.0,0.0,0.0,0.0,0.0,0.0,0.0,0.0,0.0,0.0,0.0,0.0,0.0,0.0,0.0,0.0,0.0,0.0,0.0,0.0,0.0,0.0,0.0,0.0,0.0,0.0,0.0,0.0,0.0,0.0,0.0,0.0,0.0,0.0,0.0,0.0,0.0,0.0,0.0,0.0,0.0,0.0,0.0,0.0,0.0,0.0,0.0,0.0,0.0,0.0,0.0,0.0,0.0,0.0,0.0,0.0,0.0,0.0,0.0,0.0,0.0,0.0,0.0,0.0,0.0,0.0,0.0,0.0,0.0,0.0,0.0,0.0,0.0,0.0,0.0,0.0,0.0,0.0,0.0,0.0,0.0,0.0,0.0,0.0,0.0,0.0,0.0,0.0,0.0,0.0,0.0,0.0,0.0,0.0,0.0,0.0,0.0,0.0,0.0,0.0,0.0,0.0,0.0,0.0,0.0,0.0,0.0,0.0,0.0,0.0,0.0,0.0,0.0,0.0,0.0,0.0,0.0,0.0,0.0,0.0,0.0,0.0,0.0,0.0,0.0,0.0,0.0,0.0,0.0,0.0,0.0,0.0,0.0,0.0,0.0,0.0,0.0,0.0,0.0,0.0,0.0,0.0,0.0,0.0,0.0,0.0,0.0,0.0,0.0,0.0,0.0,0.0,0.0,0.0,0.0,0.0,0.0,0.0,0.0,0.0,0.0,0.0,0.0,0.0,0.0,0.0,0.0,0.0,0.0,0.0,0.0,0.0,0.0,0.0,0.0,0.0,0.0,0.0,0.0,0.0,0.0,0.0,0.0,0.0,0.0,0.0,0.0,0.0,0.0,0.0,0.0,0.0,0.0,0.0,0.0,0.0,0.0,0.0,0.0,0.0,0.0,0.0,0.0,0.0,0.0,0.0,0.0,0.0,0.0,0.0,0.0,0.0,0.0,0.0,0.0,0.0,0.0,0.0,0.0,0.0,0.0,0.0,0.0,0.0,0.0,0.0,0.0,0.0,0.0,0.0,0.0,0.0,0.0,0.0,0.0,0.0,0.0,0.0,0.0,0.0,0.0,0.0,0.0,0.0,0.0,0.0,0.0,0.0,0.0,0.0,0.0,0.0,0.0,0.0,0.0,0.0,0.0,0.0,0.0,0.0,0.0,0.0,0.0,0.0,0.0,0.0,0.0,0.0,0.0,0.0,0.0,0.0,0.0,0.0,0.0,0.0,0.0,0.0,0.0,0.0,0.0,0.0,0.0,0.0,0.0,0.0,0.0,0.0,0.0,0.0,0.0,0.0,0.0,0.0,0.0,0.0,0.0,0.0,0.0,0.0,0.0,0.0,0.0,0.0,0.0,0.0,0.0,0.0,0.0,0.0,0.0,0.0,0.0,0.0,0.0,0.0,0.0,0.0,0.0,0.0,0.0,0.0,0.0,0.0,0.0,0.0,0.0,0.0,0.0,0.0,0.0,0.0,0.0,0.0,0.0,0.0,0.0,0.0,0.0,0.0,0.0,0.0,0.0,0.0,0.0,0.0,0.0,0.0,0.0,0.0,0.0,0.0,0.0,0.0,0.0,0.0,0.0,0.0,0.0,0.0,0.0,0.0,0.0,0.0,0.0,0.0,0.0,0.0,0.0,0.0,0.0,0.0,0.0,0.0,0.0,0.0,0.0,0.0,0.0,0.0,0.0,0.0,0.0,0.0,0.0,0.0,0.0,0.0,0.0,0.0,0.0,0.0,0.0,0.0,0.0,0.0,0.0,0.0,0.0,0.0,0.0,0.0,0.0,0.0,0.0,0.0,0.0,0.0,0.0,0.0,0.0,0.0,0.0,0.0,0.0,0.0,0.0,0.0,0.0,0.0,0.0,0.0,0.0,0.0,0.0,0.0,0.0,0.0,0.0,0.0,0.0,0.0,0.0,0.0,0.0,0.0,0.0,0.0,0.0,0.0,0.0,0.0,0.0,0.0,0.0,0.0,0.0,0.0,0.0,0.0,0.0,0.0,0.0,0.0,0.0,0.0,0.0,0.0,0.0,0.0,0.0,0.0,0.0,0.0,0.0,0.0,0.0,0.0,0.0,0.0,0.0,0.0,0.0,0.0,0.0,0.0,0.0,0.0,0.0,0.0,0.0,0.0,0.0,0.0,0.0,0.0,0.0,0.0,0.0,0.0,0.0,0.0,0.0,0.0,0.0,0.0,0.0,0.0,0.0,0.0,0.0,0.0,0.0,0.0,0.0,0.0,0.0,0.0,0.0,0.0,0.0,0.0,0.0,0.0,0.0,0.0,0.0,0.0,0.0,0.0,0.0,0.0,0.0,0.0,0.0,0.0,0.0,0.0,0.0,0.0,0.0,0.0,0.0,0.0,0.0,0.0,0.0,0.0,0.0,0.0,0.0,0.0,0.0,0.0,0.0,0.0,0.0,0.0,0.0,0.0,0.0,0.0,0.0,0.0,0.0,0.0,0.0,0.0,0.0,0.0,0.0,0.0,0.0,0.0,0.0,0.0,0.0,0.0,0.0,0.0,0.0,0.0,0.0,0.0,0.0,0.0,0.0,0.0,0.0,0.0,0.0,0.0,0.0,0.0,0.0,0.0,0.0,0.0,0.0,0.0,0.0,0.0,0.0,0.0,0.0,0.0,0.0,0.0,0.0,0.0,0.0,0.0,0.0,0.0,0.0,0.0,0.0,0.0,0.0,0.0,0.0,0.0,0.0,0.0,0.0,0.0,0.0,0.0,0.0,0.0,0.0,0.0,0.0,0.0,0.0,0.0,0.0,0.0,0.0,0.0,0.0,0.0,0.0,0.0,0.0,0.0,0.0,0.0,0.0,0.0,0.0,0.0,0.0,0.0,0.0,0.0,0.0,0.0,0.0,0.0,0.0,0.0,0.0,0.0,0.0,0.0,0.0,0.0,0.0,0.0,0.0,0.0,0.0,0.0,0.0,0.0,0.0,0.0,0.0,0.0,0.0,0.0,0.0,0.0,0.0,0.0,0.0,0.0,0.0,0.0,0.0,0.0,0.0,0.0,0.0,0.0,0.0,0.0,0.0,0.0,0.0,0.0,0.0,0.0,0.0,0.0,0.0,0.0,0.0,0.0,0.0,0.0,0.0,0.0,0.0,0.0,0.0,0.0,0.0,0.0,0.0,0.0,0.0,0.0,0.0,0.0,0.0,0.0,0.0,0.0,0.0,0.0,0.0,0.0,0.0,0.0,0.0,0.0,0.0,1.4499,0.0,0.0,0.0,0.0,0.0,0.0,0.0,0.0,0.0,0.0,0.0,0.0,0.0,0.0,0.0,0.0,0.0,0.0,0.0,0.0,0.0,0.0,0.0,0.0,0.0,0.0,0.0,0.0,0.0,0.0,0.0,0.0,0.0,0.0,0.0,0.0,0.0,0.0,0.0,0.0,0.0,0.0,0.0,0.0,0.0,0.0,0.0,0.0,0.0,0.0,0.0,0.0,0.0,0.0,0.0,0.0,0.0,0.0,0.0,0.0,0.0,0.0,0.0,0.0,0.0,0.0,0.0,0.0,0.0,0.0,0.0,0.0,0.0,0.0,0.0,0.0,0.0,0.0,0.0,0.0,0.0,0.0,0.0,0.0,0.0,0.0,0.0,0.0,0.0,0.0,0.0,0.0,0.0,0.0,0.0,0.0,0.0,0.0,0.0,0.0,0.0,0.0,0.0,0.0,0.0,0.0,0.0,0.0,0.0,0.0,1.6825,1.6757,1.5764,1.5151,1.5049,0.0,0.0,0.0,0.0,0.0,0.0,0.0,0.0,0.0,0.0,0.0,0.0,0.0,0.0,0.0,0.0,0.0,0.0,0.0,0.0,0.0,0.0,0.0,0.0,0.0,0.0,0.0,0.0,0.0,0.0,0.0,0.0,0.0,0.0,0.0,0.0,0.0,0.0,0.0,0.0,0.0,0.0,0.0,0.0,0.0,0.0,0.0,0.0,0.0,0.0,0.0,0.0,0.0,0.0,0.0,0.0,0.0,0.0,0.0,0.0,0.0,0.0,0.0,0.0,0.0,0.0,0.0,0.0,0.0,0.0,0.0,0.0,0.0,0.0,0.0,0.0,0.0,0.0,0.0,0.0,0.0,0.0,0.0,0.0,0.0,0.0,0.0,0.0,0.0,0.0,0.0,0.0,0.0,0.0,0.0,0.0,0.0,0.0,0.0,0.0,0.0,0.0,0.0,0.0,0.0,0.0,0.0,0.0,0.0,0.0,0.0,0.0,1.5874,1.5281,1.514,0.0,0.0,0.0,0.0,0.0,0.0,0.0,0.0,0.0,0.0,0.0,0.0,0.0,0.0,0.0,0.0,0.0,0.0,0.0,0.0,0.0,0.0,0.0,0.0,0.0,0.0,0.0,0.0,0.0,0.0,0.0,0.0,0.0,0.0,0.0,0.0,0.0,0.0,0.0,0.0,0.0,0.0,0.0,0.0,0.0,0.0,0.0,0.0,0.0,0.0,0.0,0.0,0.0,0.0,0.0,0.0,0.0,0.0,0.0,0.0,0.0,0.0,0.0,0.0,0.0,0.0,0.0,0.0,0.0,0.0,0.0,0.0,0.0,0.0,0.0,0.0,0.0,0.0,0.0,0.0,0.0,0.0,0.0,0.0,0.0,0.0,0.0,0.0,0.0,0.0,0.0,0.0,0.0,0.0,0.0,0.0,0.0,0.0,0.0,0.0,0.0,0.0,0.0,0.0,0.0,0.0,0.0,0.0,0.0,0.0,1.6762,1.7216,1.6341,0.0,1.4251,0.0,0.0,0.0,0.0,0.0,0.0,0.0,0.0,0.0,0.0,0.0,0.0,0.0,0.0,0.0,0.0,0.0,0.0,0.0,0.0,0.0,0.0,0.0,0.0,0.0,0.0,0.0,0.0,0.0,0.0,0.0,0.0,0.0,0.0,0.0,0.0,0.0,0.0,0.0,0.0,0.0,0.0,0.0,0.0,0.0,0.0,0.0,0.0,0.0,0.0,0.0,0.0,0.0,0.0,0.0,0.0,0.0,0.0,0.0,0.0,0.0,0.0,0.0,0.0,0.0,0.0,0.0,0.0,0.0,0.0,0.0,0.0,0.0,0.0,0.0,0.0,0.0,0.0,0.0,0.0,0.0,0.0,0.0,0.0,0.0,0.0,0.0,0.0,0.0,0.0,0.0,0.0,0.0,0.0,0.0,0.0,0.0,0.0,0.0,0.0,0.0,0.0,0.0,0.0,0.0,0.0,0.0,0.0,0.0,0.0,1.7695,1.8058,1.7362,1.6227,0.0,0.0,0.0,0.0,0.0,0.0,0.0,0.0,0.0,0.0,0.0,0.0,0.0,0.0,0.0,0.0,0.0,0.0,0.0,0.0,0.0,0.0,0.0,0.0,0.0,0.0,0.0,0.0,0.0,0.0,0.0,0.0,0.0,0.0,0.0,0.0,0.0,0.0,0.0,0.0,0.0,0.0,0.0,0.0,0.0,0.0,0.0,0.0,0.0,0.0,0.0,0.0,0.0,0.0,0.0,0.0,0.0,0.0,0.0,0.0,0.0,0.0,0.0,0.0,0.0,0.0,0.0,0.0,0.0,0.0,0.0,0.0,0.0,0.0,0.0,0.0,0.0,0.0,0.0,0.0,0.0,0.0,0.0,0.0,0.0,0.0,0.0,0.0,0.0,0.0,0.0,0.0,0.0,0.0,0.0,0.0,0.0,0.0,0.0,0.0,0.0,0.0,0.0,0.0,0.0,0.0,0.0,0.0,0.0,0.0,1.8228,1.8183,1.8406,1.7919,1.6841,1.5149,0.0,0.0,0.0,0.0,0.0,0.0,0.0,0.0,0.0,0.0,0.0,0.0,0.0,0.0,0.0,0.0,0.0,0.0,0.0,0.0,0.0,0.0,0.0,0.0,0.0,0.0,0.0,0.0,0.0,0.0,0.0,0.0,0.0,0.0,0.0,0.0,0.0,0.0,0.0,0.0,0.0,0.0,0.0,0.0,0.0,0.0,0.0,0.0,0.0,0.0,0.0,0.0,0.0,0.0,0.0,0.0,0.0,0.0,0.0,0.0,0.0,0.0,0.0,0.0,0.0,0.0,0.0,0.0,0.0,0.0,0.0,0.0,0.0,0.0,0.0,0.0,0.0,0.0,0.0,0.0,0.0,0.0,0.0,0.0,0.0,0.0,0.0,0.0,0.0,0.0,0.0,0.0,0.0,0.0,0.0,0.0,0.0,0.0,0.0,0.0,0.0,0.0,0.0,0.0,0.0,0.0,0.0,0.0,1.8217,1.7991,1.7897,1.803,1.7706,1.6806,0.0,0.0,0.0,0.0,0.0,0.0,0.0,0.0,0.0,0.0,0.0,0.0,0.0,0.0,0.0,0.0,0.0,0.0,0.0,0.0,0.0,0.0,0.0,0.0,0.0,0.0,0.0,0.0,0.0,0.0,0.0,0.0,0.0,0.0,0.0,0.0,0.0,0.0,0.0,0.0,0.0,0.0,0.0,0.0,0.0,0.0,0.0,0.0,0.0,0.0,0.0,0.0,0.0,0.0,0.0,0.0,0.0,0.0,0.0,0.0,0.0,0.0,0.0,0.0,0.0,0.0,0.0,0.0,0.0,0.0,0.0,0.0,0.0,0.0,0.0,0.0,0.0,0.0,0.0,0.0,0.0,0.0,0.0,0.0,0.0,0.0,0.0,0.0,0.0,0.0,0.0,0.0,0.0,0.0,0.0,0.0,0.0,0.0,0.0,0.0,0.0,0.0,0.0,0.0,0.0,0.0,0.0,0.0,0.0,1.883,1.8754,1.8737,1.8725,1.7811,1.6687,0.0,0.0,0.0,0.0,0.0,0.0,0.0,0.0,0.0,0.0,0.0,0.0,0.0,0.0,0.0,0.0,0.0,0.0,0.0,0.0,0.0,0.0,0.0,0.0,0.0,0.0,0.0,0.0,0.0,0.0,0.0,0.0,0.0,0.0,0.0,0.0,0.0,0.0,0.0,0.0,0.0,0.0,0.0,0.0,0.0,0.0,0.0,0.0,0.0,0.0,0.0,0.0,0.0,0.0,0.0,0.0,0.0,0.0,0.0,0.0,0.0,0.0,0.0,0.0,0.0,0.0,0.0,0.0,0.0,0.0,0.0,0.0,0.0,0.0,0.0,0.0,0.0,0.0,0.0,0.0,0.0,0.0,0.0,0.0,0.0,0.0,0.0,0.0,0.0,0.0,0.0,0.0,0.0,0.0,0.0,0.0,0.0,0.0,0.0,0.0,0.0,0.0,0.0,0.0,0.0,0.0,0.0,0.0,0.0,1.9239,0.0,1.8962,1.8685,1.7647,1.6433,0.0,0.0,0.0,0.0,0.0,0.0,0.0,0.0,0.0,0.0,0.0,0.0,0.0,0.0,0.0,0.0,0.0,0.0,0.0,0.0,0.0,0.0,0.0,0.0,0.0,0.0,0.0,0.0,0.0,0.0,0.0,0.0,0.0,0.0,0.0,0.0,0.0,0.0,0.0,0.0,0.0,0.0,0.0,0.0,0.0,0.0,0.0,0.0,0.0,0.0,0.0,0.0,0.0,0.0,0.0,0.0,0.0,0.0,0.0,0.0,0.0,0.0,0.0,0.0,0.0,0.0,0.0,0.0,0.0,0.0,0.0,0.0,0.0,0.0,0.0,0.0,0.0,0.0,0.0,0.0,0.0,0.0,0.0,0.0,0.0,0.0,0.0,0.0,0.0,0.0,0.0,0.0,0.0,0.0,0.0,0.0,0.0,0.0,0.0,0.0,0.0,0.0,0.0,0.0,0.0,0.0,0.0,0.0,1.9183,1.9268,1.8959,1.8503,1.7755,1.7131,1.6075,0.0,0.0,0.0,0.0,0.0,0.0,0.0,0.0,0.0,0.0,0.0,0.0,0.0,0.0,0.0,0.0,0.0,0.0,0.0,0.0,0.0,0.0,0.0,0.0,0.0,0.0,0.0,0.0,0.0,0.0,0.0,0.0,0.0,0.0,0.0,0.0,0.0,0.0,0.0,0.0,0.0,0.0,0.0,0.0,0.0,0.0,0.0,0.0,0.0,0.0,0.0,0.0,0.0,0.0,0.0,0.0,0.0,0.0,0.0,0.0,0.0,0.0,0.0,0.0,0.0,0.0,0.0,0.0,0.0,0.0,0.0,0.0,0.0,0.0,0.0,0.0,0.0,0.0,0.0,0.0,0.0,0.0,0.0,0.0,0.0,0.0,0.0,0.0,0.0,0.0,0.0,0.0,0.0,0.0,0.0,0.0,0.0,0.0,0.0,0.0,0.0,0.0,0.0,0.0,0.0,0.0,0.0,0.0,0.0,1.8626,1.8859,1.8886,1.8637,1.6909,1.5845,0.0,0.0,0.0,0.0,0.0,0.0,0.0,0.0,0.0,0.0,0.0,0.0,0.0,0.0,0.0,0.0,0.0,0.0,0.0,0.0,0.0,0.0,0.0,0.0,0.0,0.0,0.0,0.0,0.0,0.0,0.0,0.0,0.0,0.0,0.0,0.0,0.0,0.0,0.0,0.0,0.0,0.0,0.0,0.0,0.0,0.0,0.0,0.0,0.0,0.0,0.0,0.0,0.0,0.0,0.0,0.0,0.0,0.0,0.0,0.0,0.0,0.0,0.0,0.0,0.0,0.0,0.0,0.0,0.0,0.0,0.0,0.0,0.0,0.0,0.0,0.0,0.0,0.0,0.0,0.0,0.0,0.0,0.0,0.0,0.0,0.0,0.0,0.0,0.0,0.0,0.0,0.0,0.0,0.0,0.0,0.0,0.0,0.0,0.0,0.0,0.0,0.0,0.0,0.0,0.0,0.0,0.0,0.0,0.0,1.8522,1.8791,1.8922,1.882,1.7054,1.6054,1.5967,0.0,0.0,0.0,0.0,0.0,0.0,0.0,0.0,0.0,0.0,0.0,0.0,0.0,0.0,0.0,0.0,0.0,0.0,0.0,0.0,0.0,0.0,0.0,0.0,0.0,0.0,0.0,0.0,0.0,0.0,0.0,0.0,0.0,0.0,0.0,0.0,0.0,0.0,0.0,0.0,0.0,0.0,0.0,0.0,0.0,0.0,0.0,0.0,0.0,0.0,0.0,0.0,0.0,0.0,0.0,0.0,0.0,0.0,0.0,0.0,0.0,0.0,0.0,0.0,0.0,0.0,0.0,0.0,0.0,0.0,0.0,0.0,0.0,0.0,0.0,0.0,0.0,0.0,0.0,0.0,0.0,0.0,0.0,0.0,0.0,0.0,0.0,0.0,0.0,0.0,0.0,0.0,0.0,0.0,0.0,0.0,0.0,0.0,0.0,0.0,0.0,0.0,0.0,0.0,0.0,0.0,0.0,0.0,1.8917,1.8824,1.8679,1.8469,1.7482,1.6663,0.0,0.0,0.0,0.0,0.0,0.0,0.0,0.0,0.0,0.0,0.0,0.0,0.0,0.0,0.0,0.0,0.0,0.0,0.0,0.0,0.0,0.0,0.0,0.0,0.0,0.0,0.0,0.0,0.0,0.0,0.0,0.0,0.0,0.0,0.0,0.0,0.0,0.0,0.0,0.0,0.0,0.0,0.0,0.0,0.0,0.0,0.0,0.0,0.0,0.0,0.0,0.0,0.0,0.0,0.0,0.0,0.0,0.0,0.0,0.0,0.0,0.0,0.0,0.0,0.0,0.0,0.0,0.0,0.0,0.0,0.0,0.0,0.0,0.0,0.0,0.0,0.0,0.0,0.0,0.0,0.0,0.0,0.0,0.0,0.0,0.0,0.0,0.0,0.0,0.0,0.0,0.0,0.0,0.0,0.0,0.0,0.0,0.0,0.0,0.0,0.0,0.0,0.0,0.0,0.0,0.0,0.0,0.0,0.0,2.0283,1.9889,1.9447,1.8993,1.8076,1.7304,0.0,0.0,0.0,0.0,0.0,0.0,0.0,0.0,0.0,0.0,0.0,0.0,0.0,0.0,0.0,0.0,0.0,0.0,0.0,0.0,0.0,0.0,0.0,0.0,0.0,0.0,0.0,0.0,0.0,0.0,0.0,0.0,0.0,0.0,0.0,0.0,0.0,0.0,0.0,0.0,0.0,0.0,0.0,0.0,0.0,0.0,0.0,0.0,0.0,0.0,0.0,0.0,0.0,0.0,0.0,0.0,0.0,0.0,0.0,0.0,0.0,0.0,0.0,0.0,0.0,0.0,0.0,0.0,0.0,0.0,0.0,0.0,0.0,0.0,0.0,0.0,0.0,0.0,0.0,0.0,0.0,0.0,0.0,0.0,0.0,0.0,0.0,0.0,0.0,0.0,0.0,0.0,0.0,0.0,0.0,0.0,0.0,0.0,0.0,0.0,0.0,0.0,0.0,0.0,0.0,0.0,0.0,0.0,2.0452,2.0667,2.0515,2.0142,1.9573,1.8514,1.7851,0.0,0.0,0.0,0.0,0.0,0.0,0.0,0.0,0.0,0.0,0.0,0.0,0.0,0.0,0.0,0.0,0.0,0.0,0.0,0.0,0.0,0.0,0.0,0.0,0.0,0.0,0.0,0.0,0.0,0.0,0.0,0.0,0.0,0.0,0.0,0.0,0.0,0.0,0.0,0.0,0.0,0.0,0.0,0.0,0.0,0.0,0.0,0.0,0.0,0.0,0.0,0.0,0.0,0.0,0.0,0.0,0.0,0.0,0.0,0.0,0.0,0.0,0.0,0.0,0.0,0.0,0.0,0.0,0.0,0.0,0.0,0.0,0.0,0.0,0.0,0.0,0.0,0.0,0.0,0.0,0.0,0.0,0.0,0.0,0.0,0.0,0.0,0.0,0.0,0.0,0.0,0.0,0.0,0.0,0.0,0.0,0.0,0.0,0.0,0.0,0.0,0.0,0.0,0.0,0.0,0.0,0.0,0.0,2.0096,2.06,2.0881,2.0747,2.0145,1.9018,1.8386,0.0,0.0,0.0,0.0,0.0,0.0,0.0,0.0,0.0,0.0,0.0,0.0,0.0,0.0,0.0,0.0,0.0,0.0,0.0,0.0,0.0,0.0,0.0,0.0,0.0,0.0,0.0,0.0,0.0,0.0,0.0,0.0,0.0,0.0,0.0,0.0,0.0,0.0,0.0,0.0,0.0,0.0,0.0,0.0,0.0,0.0,0.0,0.0,0.0,0.0,0.0,0.0,0.0,0.0,0.0,0.0,0.0,0.0,0.0,0.0,0.0,0.0,0.0,0.0,0.0,0.0,0.0,0.0,0.0,0.0,0.0,0.0,0.0,0.0,0.0,0.0,0.0,0.0,0.0,0.0,0.0,0.0,0.0,0.0,0.0,0.0,0.0,0.0,0.0,0.0,0.0,0.0,0.0,0.0,0.0,0.0,0.0,0.0,0.0,0.0,0.0,0.0,0.0,0.0,0.0,0.0,0.0,0.0,2.0911,2.1271,2.1238,2.1185,2.1028,2.0161,1.9346,0.0,0.0,0.0,0.0,0.0,0.0,0.0,0.0,0.0,0.0,0.0,0.0,0.0,0.0,0.0,0.0,0.0,0.0,0.0,0.0,0.0,0.0,0.0,0.0,0.0,0.0,0.0,0.0,0.0,0.0,0.0,0.0,0.0,0.0,0.0,0.0,0.0,0.0,0.0,0.0,0.0,0.0,0.0,0.0,0.0,0.0,0.0,0.0,1.9093,0.0,0.0,0.0,0.0,0.0,0.0,0.0,0.0,0.0,0.0,0.0,0.0,0.0,0.0,0.0,0.0,0.0,0.0,0.0,0.0,0.0,0.0,0.0,0.0,0.0,0.0,0.0,0.0,0.0,0.0,0.0,0.0,0.0,0.0,0.0,0.0,0.0,0.0,0.0,0.0,0.0,0.0,0.0,0.0,0.0,0.0,0.0,0.0,0.0,0.0,0.0,0.0,0.0,0.0,0.0,0.0,0.0,0.0,0.0,2.1106,2.1152,2.1457,2.1507,2.138,2.0404,1.9455,0.0,0.0,0.0,0.0,0.0,0.0,0.0,0.0,0.0,0.0,0.0,0.0,0.0,0.0,0.0,0.0,0.0,0.0,0.0,0.0,0.0,0.0,0.0,0.0,0.0,0.0,0.0,0.0,0.0,0.0,0.0,0.0,0.0,0.0,0.0,0.0,0.0,0.0,0.0,0.0,0.0,0.0,0.0,0.0,0.0,0.0,0.0,0.0,0.0,0.0,0.0,0.0,0.0,0.0,0.0,0.0,0.0,0.0,0.0,0.0,0.0,0.0,0.0,0.0,0.0,0.0,0.0,0.0,0.0,0.0,0.0,0.0,0.0,0.0,0.0,0.0,0.0,0.0,0.0,0.0,0.0,0.0,0.0,0.0,0.0,0.0,0.0,0.0,0.0,0.0,0.0,0.0,0.0,0.0,0.0,0.0,0.0,0.0,0.0,0.0,0.0,0.0,0.0,0.0,0.0,0.0,0.0,2.0653,2.1156,2.1017,2.1575,2.1803,2.1587,2.0456,1.9483,1.869,0.0,0.0,0.0,0.0,0.0,0.0,0.0,0.0,0.0,0.0,0.0,0.0,0.0,0.0,0.0,0.0,0.0,0.0,0.0,0.0,0.0,0.0,0.0,0.0,0.0,0.0,0.0,0.0,0.0,0.0,0.0,0.0,0.0,0.0,0.0,0.0,0.0,0.0,1.6299,1.7433,0.0,0.0,0.0,0.0,0.0,0.0,0.0,0.0,1.8387,0.0,0.0,0.0,0.0,0.0,0.0,0.0,0.0,0.0,0.0,0.0,0.0,0.0,0.0,0.0,0.0,0.0,0.0,0.0,0.0,0.0,0.0,0.0,0.0,0.0,0.0,0.0,0.0,0.0,0.0,0.0,0.0,0.0,0.0,0.0,0.0,0.0,0.0,0.0,0.0,0.0,0.0,0.0,0.0,0.0,0.0,0.0,0.0,0.0,0.0,0.0,0.0,0.0,0.0,0.0,0.0,2.098,2.1482,2.1777,2.1787,2.1927,2.1979,2.1994,2.1261,2.0434,1.9496,0.0,0.0,0.0,0.0,0.0,0.0,0.0,0.0,0.0,0.0,0.0,0.0,0.0,0.0,0.0,0.0,0.0,0.0,0.0,0.0,0.0,0.0,0.0,0.0,0.0,0.0,0.0,0.0,0.0,0.0,0.0,0.0,0.0,0.0,0.0,0.0,0.0,0.0,0.0,1.7963,1.8813,0.0,0.0,0.0,0.0,0.0,0.0,0.0,0.0,2.0835,0.0,0.0,0.0,0.0,0.0,0.0,0.0,0.0,0.0,0.0,0.0,0.0,0.0,0.0,0.0,0.0,0.0,0.0,0.0,0.0,0.0,0.0,0.0,0.0,0.0,0.0,0.0,0.0,0.0,0.0,0.0,0.0,0.0,0.0,0.0,0.0,0.0,0.0,0.0,0.0,0.0,0.0,0.0,0.0,0.0,0.0,0.0,0.0,0.0,0.0,0.0,0.0,0.0,0.0,0.0,2.1113,2.1835,2.2148,2.1997,2.2016,2.2144,2.2328,2.1253,2.0491,0.0,0.0,0.0,0.0,0.0,0.0,0.0,0.0,0.0,0.0,0.0,0.0,0.0,0.0,0.0,0.0,0.0,0.0,0.0,0.0,0.0,0.0,0.0,0.0,0.0,0.0,0.0,0.0,0.0,0.0,0.0,0.0,0.0,0.0,0.0,0.0,0.0,0.0,0.0,0.0,1.8342,1.9118,1.9682,0.0,0.0,0.0,0.0,0.0,0.0,2.1424,2.1292,0.0,0.0,0.0,0.0,0.0,0.0,0.0,0.0,0.0,0.0,0.0,0.0,0.0,0.0,0.0,0.0,0.0,0.0,0.0,0.0,0.0,0.0,0.0,0.0,0.0,0.0,0.0,0.0,0.0,0.0,0.0,0.0,0.0,0.0,0.0,0.0,0.0,0.0,0.0,0.0,0.0,0.0,0.0,0.0,0.0,0.0,0.0,0.0,0.0,0.0,0.0,0.0,0.0,0.0,0.0,2.1173,2.2075,2.2494,2.2308,2.2181,2.2324,2.2752,2.1258,2.0532,0.0,0.0,0.0,0.0,0.0,0.0,0.0,0.0,0.0,0.0,0.0,0.0,0.0,0.0,0.0,0.0,0.0,0.0,0.0,0.0,0.0,0.0,0.0,0.0,0.0,0.0,0.0,0.0,0.0,0.0,0.0,0.0,0.0,0.0,0.0,0.0,0.0,0.0,0.0,0.0,0.0,1.9745,1.9856,2.0547,0.0,0.0,0.0,0.0,2.198,2.2096,0.0,0.0,0.0,0.0,0.0,0.0,0.0,0.0,0.0,0.0,0.0,0.0,0.0,0.0,0.0,0.0,0.0,0.0,0.0,0.0,0.0,0.0,0.0,0.0,0.0,0.0,0.0,0.0,0.0,0.0,0.0,0.0,0.0,0.0,0.0,0.0,0.0,0.0,0.0,0.0,0.0,0.0,0.0,0.0,0.0,0.0,0.0,0.0,0.0,0.0,0.0,0.0,0.0,0.0,0.0,0.0,2.1895,2.2504,2.3039,2.3347,2.2563,2.2565,2.3501,2.195,2.1115,0.0,0.0,0.0,0.0,0.0,0.0,0.0,0.0,0.0,0.0,0.0,0.0,0.0,0.0,0.0,0.0,0.0,0.0,0.0,0.0,0.0,0.0,0.0,0.0,0.0,0.0,0.0,0.0,0.0,0.0,0.0,0.0,0.0,0.0,0.0,0.0,0.0,0.0,0.0,0.0,0.0,2.1162,2.2292,2.2553,2.2688,0.0,0.0,2.3623,2.372,2.4887,0.0,0.0,0.0,0.0,0.0,0.0,0.0,0.0,0.0,0.0,0.0,0.0,0.0,0.0,0.0,0.0,0.0,0.0,0.0,0.0,0.0,0.0,0.0,0.0,0.0,0.0,0.0,0.0,0.0,0.0,0.0,0.0,0.0,0.0,0.0,0.0,0.0,0.0,0.0,0.0,0.0,0.0,0.0,0.0,0.0,0.0,0.0,0.0,0.0,0.0,0.0,0.0,0.0,0.0,0.0,2.2017,2.2302,2.3339,2.3859,2.3876,2.3257,2.3257,2.3899,2.2319,2.139,0.0,0.0,0.0,0.0,0.0,0.0,0.0,0.0,0.0,0.0,0.0,0.0,0.0,0.0,0.0,0.0,0.0,0.0,0.0,0.0,0.0,0.0,0.0,0.0,0.0,0.0,0.0,0.0,0.0,0.0,0.0,0.0,0.0,0.0,0.0,0.0,0.0,0.0,0.0,0.0,0.0,0.0,2.2489,2.3279,0.0,0.0,0.0,2.4984,2.5026,0.0,0.0,0.0,0.0,0.0,0.0,0.0,0.0,0.0,0.0,0.0,0.0,0.0,0.0,0.0,0.0,0.0,0.0,0.0,0.0,0.0,0.0,0.0,0.0,0.0,0.0,0.0,0.0,0.0,0.0,0.0,0.0,0.0,0.0,0.0,0.0,0.0,0.0,0.0,0.0,0.0,0.0,0.0,0.0,0.0,0.0,0.0,0.0,0.0,0.0,0.0,0.0,0.0,0.0,0.0,0.0,0.0,2.2768,2.3893,2.4514,2.4593,2.3946,2.3837,2.433,2.2644,0.0,0.0,0.0,0.0,0.0,0.0,0.0,0.0,0.0,0.0,0.0,0.0,0.0,0.0,0.0,0.0,0.0,0.0,0.0,0.0,0.0,0.0,0.0,0.0,0.0,0.0,0.0,1.4637,0.0,0.0,0.0,0.0,0.0,0.0,0.0,0.0,0.0,0.0,0.0,0.0,0.0,0.0,2.3138,2.31,2.4238,2.4999,0.0,0.0,2.6174,2.5936,2.5763,2.5548,0.0,0.0,0.0,0.0,0.0,0.0,0.0,0.0,0.0,0.0,0.0,0.0,0.0,0.0,0.0,0.0,0.0,0.0,0.0,0.0,0.0,0.0,0.0,0.0,0.0,0.0,0.0,0.0,0.0,0.0,0.0,0.0,0.0,0.0,0.0,0.0,0.0,0.0,0.0,0.0,0.0,0.0,0.0,0.0,0.0,0.0,0.0,0.0,0.0,0.0,0.0,0.0,0.0,0.0,0.0,2.3422,2.3909,2.4782,2.5929,2.4449,2.4099,2.505,2.2886,2.181,0.0,0.0,0.0,0.0,0.0,0.0,0.0,0.0,0.0,0.0,0.0,0.0,0.0,0.0,0.0,0.0,0.0,0.0,0.0,0.0,0.0,0.0,0.0,0.0,0.0,0.0,0.0,0.0,0.0,0.0,0.0,0.0,0.0,0.0,0.0,0.0,0.0,0.0,0.0,0.0,0.0,2.5224,2.5289,2.6129,2.6739,0.0,0.0,2.7182,2.6322,2.7772,2.7978,2.4813,0.0,0.0,0.0,0.0,0.0,0.0,0.0,0.0,0.0,0.0,0.0,0.0,0.0,0.0,0.0,0.0,0.0,0.0,0.0,0.0,0.0,0.0,0.0,0.0,0.0,0.0,0.0,0.0,0.0,0.0,0.0,0.0,0.0,0.0,0.0,0.0,0.0,0.0,0.0,0.0,0.0,0.0,0.0,0.0,0.0,0.0,0.0,0.0,0.0,0.0,0.0,0.0,0.0,2.333,2.3877,2.4864,2.5674,2.6152,2.5549,2.5219,2.5187,2.3505,2.2462,0.0,0.0,0.0,0.0,0.0,0.0,0.0,0.0,0.0,0.0,0.0,0.0,0.0,0.0,0.0,0.0,0.0,0.0,0.0,0.0,0.0,0.0,0.0,0.0,0.0,0.0,0.0,0.0,1.7178,1.7133,1.7085,0.0,0.0,0.0,0.0,0.0,0.0,0.0,0.0,0.0,0.0,2.5618,2.6111,2.6944,0.0,0.0,2.8042,2.8174,2.7384,2.7478,2.7178,2.5683,2.5964,0.0,0.0,0.0,0.0,0.0,0.0,0.0,0.0,0.0,0.0,0.0,0.0,0.0,0.0,0.0,0.0,0.0,0.0,0.0,0.0,0.0,0.0,0.0,0.0,0.0,0.0,0.0,0.0,0.0,0.0,0.0,0.0,0.0,0.0,0.0,0.0,0.0,0.0,0.0,0.0,0.0,0.0,0.0,0.0,0.0,0.0,0.0,0.0,0.0,0.0,0.0,0.0,2.3943,2.4545,2.5532,2.6184,2.6486,2.6295,2.5975,2.5472,2.4086,2.3109,0.0,0.0,0.0,0.0,0.0,0.0,0.0,0.0,0.0,0.0,0.0,0.0,0.0,0.0,0.0,0.0,0.0,0.0,0.0,0.0,0.0,0.0,0.0,0.0,0.0,0.0,0.0,0.0,1.7732,1.7888,1.8012,0.0,0.0,0.0,0.0,0.0,0.0,0.0,0.0,0.0,0.0,2.6428,2.6897,2.7598,2.809,2.809,2.8528,2.8661,2.8156,2.766,2.7136,2.6486,0.0,0.0,0.0,0.0,0.0,0.0,0.0,0.0,0.0,0.0,0.0,0.0,0.0,0.0,0.0,0.0,0.0,0.0,0.0,0.0,0.0,0.0,0.0,0.0,0.0,0.0,0.0,0.0,0.0,0.0,1.7411,0.0,0.0,0.0,0.0,0.0,0.0,0.0,0.0,0.0,0.0,0.0,0.0,0.0,0.0,0.0,0.0,0.0,0.0,0.0,0.0,0.0,0.0,0.0,2.5533,2.5612,2.612,2.7121,2.655,2.6198,2.614,2.4517,2.3733,2.3988,0.0,0.0,0.0,0.0,0.0,0.0,0.0,0.0,0.0,0.0,0.0,0.0,0.0,0.0,0.0,0.0,0.0,0.0,0.0,0.0,0.0,0.0,0.0,0.0,0.0,0.0,1.8047,1.8548,1.8968,0.0,0.0,0.0,0.0,0.0,0.0,0.0,0.0,0.0,0.0,2.7515,2.797,2.7799,2.8192,2.852,2.8474,2.854,2.854,2.8494,2.877,2.8551,0.0,0.0,0.0,0.0,0.0,0.0,0.0,0.0,0.0,0.0,0.0,0.0,0.0,0.0,0.0,0.0,0.0,0.0,0.0,0.0,0.0,0.0,0.0,0.0,0.0,0.0,0.0,1.8553,1.8825,0.0,0.0,0.0,0.0,0.0,0.0,0.0,0.0,0.0,0.0,0.0,2.2292,2.2242,0.0,0.0,0.0,0.0,0.0,0.0,0.0,0.0,0.0,0.0,0.0,0.0,2.4549,2.558,2.5866,2.6407,2.7169,2.7011,2.6656,2.6202,2.5201,2.4282,2.3389,0.0,0.0,0.0,0.0,0.0,0.0,0.0,0.0,0.0,0.0,0.0,0.0,0.0,0.0,0.0,0.0,0.0,0.0,0.0,0.0,0.0,0.0,0.0,0.0,0.0,1.8265,0.0,0.0,0.0,0.0,0.0,0.0,0.0,0.0,0.0,0.0,0.0,2.6641,2.7136,2.7954,2.8456,2.8276,2.9132,2.9548,0.0,0.0,0.0,0.0,0.0,0.0,0.0,0.0,0.0,0.0,0.0,0.0,0.0,0.0,3.071,2.9053,2.8721,2.8632,2.8322,0.0,0.0,0.0,0.0,0.0,0.0,0.0,0.0,0.0,0.0,0.0,0.0,0.0,0.0,0.0,0.0,2.0155,0.0,0.0,0.0,0.0,0.0,0.0,0.0,0.0,2.2261,2.2595,2.2955,2.2954,2.3124,0.0,2.3405,2.35,0.0,0.0,0.0,0.0,0.0,0.0,0.0,0.0,2.5003,2.5786,2.6184,2.6645,2.7169,2.72,2.699,2.6555,2.5785,2.4653,2.3263,2.3191,2.2982,0.0,0.0,0.0,0.0,0.0,0.0,0.0,0.0,0.0,0.0,0.0,0.0,0.0,0.0,0.0,0.0,0.0,0.0,0.0,0.0,0.0,0.0,0.0,1.951,0.0,0.0,0.0,0.0,0.0,0.0,0.0,0.0,0.0,2.5994,2.6872,2.7695,2.8146,2.8665,2.8994,2.894,0.0,0.0,0.0,0.0,0.0,0.0,0.0,2.9236,2.8548,2.8383,2.8613,2.9538,3.1039,3.2105,3.2057,0.0,0.0,3.0292,2.9959,2.9875,2.9572,2.9924,3.0141,2.9618,3.0144,3.103,0.0,0.0,0.0,0.0,0.0,0.0,0.0,0.0,1.931,1.9394,0.0,1.9788,0.0,0.0,0.0,0.0,0.0,0.0,0.0,0.0,2.1799,2.1895,2.2519,2.2903,2.3392,2.4079,2.4017,2.4184,2.4564,2.4167,0.0,0.0,0.0,0.0,0.0,0.0,2.5764,2.6184,2.6518,2.6835,2.7185,2.72,2.7185,2.7121,2.6152,2.5013,2.3719,2.3734,2.3645,2.3321,2.2788,0.0,0.0,0.0,0.0,0.0,0.0,0.0,0.0,0.0,0.0,0.0,0.0,0.0,0.0,0.0,0.0,0.0,0.0,0.0,0.0,2.0955,0.0,0.0,0.0,0.0,0.0,0.0,0.0,0.0,0.0,0.0,2.7324,2.8045,2.8834,2.9565,0.0,0.0,0.0,0.0,2.9795,2.9817,2.989,2.9947,2.9879,3.026,3.033,2.9843,0.0,0.0,3.0362,3.1633,3.2336,3.1087,3.2156,3.2955,3.2684,3.2448,3.2298,3.2303,3.179,3.1567,3.1693,3.142,3.166,2.1152,0.0,0.0,0.0,0.0,2.018,2.0569,2.1464,2.0822,2.0638,2.0753,2.0397,0.0,0.0,0.0,0.0,0.0,0.0,2.2494,2.2511,2.2445,2.2523,2.2735,2.3594,2.4109,2.4323,2.4755,2.493,2.4801,2.4714,2.4379,2.38,0.0,0.0,0.0,0.0,2.5546,2.6184,2.6518,2.6835,2.72,2.72,2.6962,2.6502,2.62,2.55,2.4364,2.4138,2.3942,2.3744,2.2964,0.0,0.0,0.0,0.0,0.0,0.0,0.0,0.0,0.0,0.0,0.0,0.0,0.0,0.0,0.0,0.0,0.0,0.0,0.0,2.1364,2.1884,2.2347,0.0,0.0,0.0,0.0,0.0,0.0,0.0,0.0,0.0,2.9208,2.9382,2.9583,0.0,0.0,3.0155,2.9844,3.0566,3.0907,3.0392,0.0,0.0,0.0,3.1389,3.1421,3.124,3.1751,3.2347,3.2765,3.3709,3.4517,3.4568,3.5021,3.5375,3.5416,3.3667,3.219,3.1841,3.2281,3.2559,3.2093,3.2337,3.3027,2.3004,2.2317,2.133,2.1233,2.1663,2.1313,2.1583,2.2218,2.162,2.1423,2.152,2.1252,2.1037,2.0936,2.1176,0.0,0.0,0.0,2.2996,2.3134,2.3396,2.3646,2.3951,2.4561,2.4948,2.51,2.533,2.535,2.5188,2.5302,2.5297,2.5061,0.0,0.0,2.5044,2.5514,2.5945,2.6391,2.6741,2.6978,2.72,2.72,2.6867,2.6232,2.6168,2.5754,2.4848,2.4601,2.4447,2.4338,2.3798,2.3587,0.0,0.0,0.0,0.0,0.0,0.0,0.0,0.0,0.0,0.0,0.0,2.0585,0.0,0.0,0.0,0.0,2.1938,2.2308,2.2331,2.2939,0.0,0.0,0.0,0.0,0.0,0.0,0.0,2.7725,2.8764,2.9758,3.0495,3.0705,3.0753,3.0876,3.1056,3.115,3.0947,0.0,3.184,3.1395,3.2404,3.2954,3.2241,3.2134,3.2176,3.2268,3.2893,3.3391,3.3646,3.4411,3.5007,3.5176,3.5529,3.5812,3.5672,3.4207,3.3214,3.3256,3.3741,3.3906,3.3215,3.341,3.3957,2.4887,2.4919,2.3199,2.2642,2.2904,2.2678,2.2583,2.2566,2.2001,2.1924,2.2231,2.2118,2.2447,2.3021,2.3078,0.0,2.3108,2.3313,2.3561,2.3902,2.4307,2.4853,2.547,2.5589,2.5792,2.6051,2.579,2.5708,2.5806,2.6004,2.6152,2.6311,2.5957,2.5572,2.5294,2.6216,2.6709,2.6709,2.7026,2.72,2.72,2.72,2.6867,2.62,2.6168,2.585,2.5135,2.5074,2.5066,2.5043,2.4799,2.4824,2.5039,0.0,0.0,0.0,0.0,0.0,0.0,0.0,0.0,0.0,0.0,0.0,0.0,0.0,0.0,0.0,2.4322,0.0,2.3904,2.422,0.0,0.0,0.0,2.6137,2.7352,2.7707,2.8158,2.8968,0.0,0.0,3.129,0.0,3.221,3.2557,3.2458,3.2394,3.2563,3.2541,3.2603,3.2563,3.2661,3.2698,3.2731,3.2731,3.2855,3.3148,3.3733,3.4031,3.3874,3.4316,3.4453,3.4132,3.4627,3.5151,3.429,3.4727,3.532,3.587,3.5686,3.5283,3.4848,3.464,3.4755,2.5865,2.5849,2.512,2.4519,2.4036,2.3505,2.3436,2.3673,2.3239,2.2795,2.2402,2.2172,2.1857,2.1528,2.1806,2.2028,2.2308,2.2892,2.3329,2.3668,2.3778,2.404,2.4408,2.5455,2.5882,2.5785,2.6713,2.7181,2.7189,2.7013,2.7043,2.7328,2.7251,2.6901,2.6359,2.6582,2.6709,2.6709,2.7026,2.72,2.72,2.72,2.69,2.62,2.6168,2.585,2.5135,2.5085,2.5182,2.5317,2.4461,2.4328,2.5116,2.4262,0.0,0.0,0.0,0.0,0.0,0.0,0.0,0.0,0.0,2.1679,2.2293,0.0,2.2716,0.0,2.4649,2.5509,2.5969,2.6229,0.0,0.0,2.6784,2.7176,2.7989,2.8656,2.9165,2.9427,3.058,3.1497,3.1832,3.2496,3.3046,3.3424,3.2921,3.2552,3.2603,3.2875,3.3022,3.3065,3.3321,3.3523,3.3486,3.3523,3.3708,3.435,3.4602,3.4984,3.5738,3.5781,3.581,3.6178,3.6214,3.609,3.5836,3.6455,3.6736,3.6423,3.6111,3.578,3.5376,3.5976,3.6722,2.6655,2.6374,2.6141,2.5619,2.4967,2.4594,2.4299,2.4094,2.4033,2.352,2.2754,2.2567,2.2296,2.196,2.2116,2.2394,2.2715,2.3292,2.3825,2.4267,2.442,2.4659,2.4953,2.5883,2.6119,2.581,2.6898,2.735,2.7214,2.751,2.7736,2.7909,2.8082,2.7995,2.7647,2.7488,2.7359,2.7359,2.7407,2.7359,2.72,2.72,2.6946,2.6438,2.6296,2.5929,2.5357,2.5322,2.531,2.524,2.4651,2.4489,2.4951,2.4157,2.3997,0.0,0.0,0.0,0.0,0.0,0.0,0.0,0.0,0.0,0.0,0.0,2.4208,0.0,2.5914,0.0,2.695,2.7234,2.7397,2.7399,2.7672,2.8044,2.8557,2.9213,2.9726,3.0138,3.1225,3.2129,3.2499,3.3101,3.356,3.378,3.3431,3.3138,3.3156,3.3306,3.3486,3.347,3.367,3.3817,3.3817,3.3955,3.4267,3.4784,3.5059,3.5463,3.6245,3.6348,3.6475,3.6878,3.6912,3.6769,3.6598,3.7041,3.7228,3.6676,3.6466,3.6485,3.6412,3.6814,3.7258,2.7255,2.6721,2.6714,2.6349,2.5725,2.5704,2.5193,2.4298,2.4587,2.4222,2.3384,2.3338,2.3308,2.3323,2.3293,2.346,2.3717,2.4021,2.4461,2.5037,2.5325,2.5658,2.6036,2.6362,2.6393,2.6111,2.6794,2.7031,2.6767,2.7729,2.82,2.818,2.8519,2.8696,2.868,2.8344,2.8209,2.8183,2.7865,2.7548,2.728,2.7232,2.7042,2.6709,2.6359,2.6025,2.5612,2.5619,2.5465,2.5155,2.514,2.5127,2.508,2.4293,2.414,0.0,2.4619,0.0,0.0,0.0,0.0,0.0,0.0,0.0,0.0,2.5681,2.6321,2.7082,2.753,2.7669,2.737,2.7756,2.7913,2.7813,2.8212,2.8641,2.8946,2.9471,3.0073,3.0796,3.161,3.2373,3.2989,3.3456,3.3747,3.3782,3.378,3.3743,3.3798,3.378,3.378,3.3817,3.3817,3.3817,3.3817,3.4059,3.4405,3.4818,3.5127,3.5557,3.6064,3.6426,3.6714,3.6812,3.7066,3.7144,3.6773,3.7015,3.7149,3.6753,3.6938,3.7272,3.7441,3.7412,3.7307,2.7514,2.7387,2.734,2.6963,2.6409,2.6348,2.5946,2.5319,2.538,2.5271,2.4994,2.4464,2.4413,2.462,2.4408,2.434,2.4414,2.4491,2.4594,2.4712,2.4771,2.5073,2.5609,2.6025,2.6313,2.6539,2.72,2.7478,2.7423,2.7891,2.811,2.811,2.8182,2.8218,2.8218,0.0,0.0,0.0,2.7865,2.7675,2.7596,2.7343,2.7042,2.6725,2.6391,0.0,2.5612,2.5619,2.5684,2.5877,2.5831,0.0,0.0,0.0,0.0,0.0,0.0,0.0,0.0,0.0,0.0,0.0,2.7068,2.659,2.5503,2.6816,2.78,2.7968,2.8378,2.8539,2.8203,2.8331,2.8234,2.7736,2.8254,2.868,2.8762,2.965,3.0448,3.0847,3.1609,3.2236,3.2683,3.3111,3.3504,3.3747,3.3817,3.3817,3.3817,3.3817,3.3817,3.3817,3.3817,3.3817,3.3817,3.3851,3.4163,3.4715,3.4956,3.5433,3.6288,3.6616,3.6832,3.707,3.7246,3.7203,3.6832,3.7277,3.7645,3.7234,3.7755,3.8153,3.7726,3.8146,3.8596,2.8096,0.0,2.7814,2.7526,0.0,2.6784,2.6494,2.6006,2.5562,2.5263,2.5018,2.4689,2.4727,2.5037,2.4903,2.4924,2.5037,2.5037,2.5125,2.5286,2.5447,2.5608,2.5769,2.6314,2.6473,2.6348,2.7014,2.727,2.7087,2.7602,2.784,2.7855,2.8021,2.8093,2.8093,2.7977,2.8002,2.8189,2.8224,2.8074,2.7707,2.7358,2.7042,2.6709,0.0,0.0,0.0,0.0,0.0,0.0,0.0,0.0,0.0,0.0,0.0,2.597,2.6397,2.6736,2.6918,2.6911,2.7077,2.7463,2.7513,2.7357,2.6903,2.7801,2.8491,2.8821,2.8793,2.8679,2.8513,2.8431,2.8273,2.7976,2.8424,2.8876,2.9295,2.997,3.0634,3.1183,3.1738,3.2243,3.2608,3.3012,3.333,3.3539,3.3712,3.3817,3.3817,3.3817,3.3817,3.3817,3.3817,3.3817,3.3817,3.3817,3.4059,3.4715,3.4921,3.5307,3.6206,3.6558,3.6792,3.6973,3.7305,3.7519,3.7402,3.7812,3.8184,3.8027,3.8317,3.8665,3.8582,3.8867,3.9123,2.8681,2.7788,2.8359,2.8014,2.7159,2.7217,2.6962,2.6422,0.0,0.0,0.0,2.4851,2.5071,2.5423,2.5437,2.5579,2.5836,2.5836,2.5953,2.6193,2.6398,2.6383,2.6208,2.6754,2.6704,2.6208,2.6763,2.6911,2.6639,2.7214,2.7478,2.7514,2.7768,2.7876,2.7897,2.7763,2.7773,2.7996,2.826,2.8139,2.7537,2.7174,2.686,2.6578,2.5961,2.5723,2.5988,2.5542,2.541,2.5656,2.5591,2.5506,2.5457,2.5649,2.5829,2.5992,2.658,2.7024,2.7194,2.7288,2.7357,2.7458,2.751,2.7777,2.8414,2.8516,2.8829,2.9392,2.9004,2.865,2.8556,2.8361,2.8195,2.813,2.8507,2.9055,2.9608,3.0115,3.0612,3.127,3.1634,3.2088,3.2509,3.2824,3.3156,3.3295,3.3539,3.3747,3.3782,3.3817,3.3817,3.3817,3.3817,3.3817,3.3817,3.3817,3.4094,3.4646,3.4853,3.5162,3.5767,3.6352,3.6675,3.6734,3.7324,3.7676,3.7812,3.8086,3.8437,3.8493,3.8644,3.8902,3.9514,3.9504,3.9506,2.8856,2.8725,2.913,2.8695,2.7794,2.8072,2.7542,2.643,2.6037,2.5857,2.5813,2.5813,2.6149,2.672,2.6756,2.6896,2.7225,2.724,2.7071,0.0,2.6617,2.6632,2.6837,2.6689,2.6704,2.6837,2.6968,2.6997,2.6961,2.7041,2.7093,2.7093,2.7129,2.7165,2.7165,2.7448,2.7485,2.7235,2.7011,2.6882,2.6839,2.6448,2.6244,2.6169,2.5795,2.5627,2.5675,2.5881,2.5992,2.6036,2.6745,2.7177,2.7155,2.7384,2.7323,2.6781,2.7399,2.7535,2.6949,2.7505,2.8051,2.8341,2.8417,2.8471,2.8585,2.8834,2.9062,2.9159,2.9109,2.8889,2.8346,2.8263,2.8139,2.7898,2.8424,2.8866,2.9032,2.9619,3.0204,3.0612,3.0924,3.1453,3.207,3.2298,3.2614,3.3121,3.3418,3.3504,3.3747,3.3817,3.3817,3.3817,3.3817,3.3817,3.3817,3.3817,3.4024,3.437,3.4715,3.5059,3.5572,3.6176,3.6636,3.6695,3.7051,3.7344,3.7422,3.7734,3.8027,3.8105,3.8596,3.9192,3.9642,3.9885,4.0121,2.9104,2.8646,2.8935,2.8662,2.8011,2.7787,2.7283,2.6523,2.606,2.5848,2.587,2.5698,2.5969,2.6541,2.6569,2.6852,2.7392,2.7566,2.7592,2.7473,2.7327,2.7188,2.6969,2.6647,2.6486,2.6486,2.6647,2.672,2.6735,2.691,2.6998,2.6998,2.6998,2.6896,2.6771,2.69,2.6846,2.652,2.6949,2.7035,2.6702,2.6313,2.6011,2.5857,2.5663,2.5706,2.5863,2.6029,2.6189,2.6358,2.6783,2.7025,2.7025,2.7328,2.7352,2.6991,2.7449,2.7561,2.7211,2.79,2.8336,2.8329,2.8509,2.8674,2.871,2.8993,2.914,2.9144,2.8884,2.8688,2.851,2.8207,2.8054,2.83,2.8769,2.9169,2.9405,2.984,3.0402,3.0941,3.101,3.1277,3.2,3.2298,3.2509,3.2964,3.326,3.3608,3.3782,3.3817,3.3817,3.3817,3.3817,3.3817,3.3817,3.3817,3.4024,3.4577,3.4818,3.5127,3.5606,3.6162,3.6328,3.6348,3.668,3.7012,3.7246,3.7637,3.7949,3.8298,3.8744,3.9301,3.9642,4.0182,4.0586,2.9033,2.83,2.8528,2.8429,2.8039,2.7457,2.7042,2.6725,2.6172,2.5899,2.5792,2.5467,2.5637,2.6182,2.614,2.6537,2.724,2.7535,2.7717,2.7826,2.7853,2.7565,2.702,2.6801,2.6515,2.6208,2.6457,2.6617,2.6647,2.6866,2.6998,2.6998,2.6998,2.6866,2.6617,2.6617,2.6457,2.6199,2.6973,2.7095,2.6443,2.6137,2.5819,2.551,2.548,2.5624,2.5991,2.6148,2.6394,2.6686,2.68,2.6827,2.6858,2.7071,2.7193,2.7223,2.7505,2.7661,2.7678,2.8171,2.8443,2.8282,2.8529,2.8815,2.9021,2.9235,2.9364,2.9302,2.8822,2.856,2.8789,2.8341,2.8186,2.8745,2.91,2.9457,2.9842,3.0157,3.0567,3.1241,3.1223,3.1277,3.1841,3.2228,3.2456,3.2596,3.3138,3.3539,3.3678,3.3678,3.3712,3.3782,3.3817,3.3886,3.3904,3.4158,3.4511,3.5101,3.5483,3.5988,3.6425,3.6556,3.6562,3.6625,3.6777,3.707,3.7305,3.7637,3.8008,3.8317,3.8856,3.9482,3.9966,4.0433,4.0862,2.8229,2.8147,2.8161,2.8135,2.8028,2.7706,2.7317,2.6973,2.6633,2.6303,2.5974,2.5502,2.5657,2.6126,2.5945,2.6332,2.7164,2.7249,2.7375,2.7622,2.7734,2.7468,2.6909,2.7208,2.7056,2.6574,2.6778,2.691,2.6925,2.6969,2.6998,2.6998,2.6998,2.6969,2.6939,2.6939,2.6778,2.6471,2.6557,2.6299,2.5682,2.5574,2.5436,2.5147,2.5183,2.5297,2.5719,2.6232,2.6758,2.7121,2.7368,2.7491,2.7521,2.7552,2.7552,2.7569,2.7909,2.8146,2.8146,2.8212,2.8415,2.8695,2.8764,2.909,2.9676,2.9812,2.9812,2.9729,2.9178,2.8906,2.9219,2.8892,2.8681,2.8825,2.9131,2.9445,2.9819,2.9926,3.0247,3.0958,3.1081,3.1187,3.163,3.1806,3.1912,3.2263,3.2649,3.3016,3.326,3.3365,3.3469,3.3712,3.3817,3.3955,3.4237,3.4969,3.5315,3.5928,3.6931,3.7393,3.7573,3.7942,3.8239,3.7559,3.7601,3.7598,3.7539,3.7582,3.7894,3.8236,3.8938,3.9858,4.0561,4.0847,4.0918,2.7671,2.7447,2.7447,2.7425,2.7322,2.739,2.7202,2.6879,2.6758,2.6531,2.6185,2.5862,2.5731,2.581,2.5687,2.5965,2.6523,2.6537,2.6843,2.7325,2.7213,2.7092,2.7074,2.7253,2.7124,2.6742,2.6918,2.6998,2.6998,2.6998,2.6998,2.6998,2.6998,2.6998,2.6998,2.6998,2.6925,2.6793,2.6793,2.6574,2.612,2.569,2.5437,2.5358,2.5569,2.5863,2.6209,2.668,2.7195,2.7714,2.7498,2.7508,2.7915,2.7758,2.7758,2.7932,2.81,2.8186,2.8186,2.844,2.8646,2.88,2.9196,2.959,2.9864,3.0087,3.0258,3.0395,2.9663,2.927,2.9547,2.9134,2.8888,2.9043,2.9218,2.9477,2.9855,2.9926,3.0247,3.1135,3.1152,3.1241,3.1736,3.1894,3.2052,3.2368,3.2596,3.2736,3.2929,3.3139,3.333,3.3469,3.3643,3.3851,3.4096,3.449,3.5217,3.6022,3.674,3.7333,3.8261,3.8428,3.8513,3.834,3.8203,3.8125,3.8105,3.791,3.7969,3.8364,3.8974,3.993,4.0719,4.0918,4.0918,2.7097,2.6874,2.6821,2.6838,2.68,2.7054,2.7068,2.6961,2.6947,2.6774,2.6507,2.6279,2.6024,2.5651,2.5558,2.5671,2.59,2.5938,2.6238,2.6686,2.6676,2.6739,2.6805,2.7121,2.7093,2.6849,2.6988,2.7063,2.7042,2.7203,2.7086,2.6822,2.6983,2.7064,2.6881,2.6925,2.6998,2.6998,2.6998,2.6953,2.6732,2.6217,2.5928,2.5825,2.6049,2.6421,2.6746,2.7226,2.7687,2.8177,2.7803,2.78,2.8294,2.8135,2.8137,2.8445,2.8494,2.8494,2.8511,2.8871,2.9093,2.9145,2.9693,3.0087,3.0224,3.0446,3.0686,3.0871,3.0146,2.9746,2.9909,2.936,2.9063,2.9266,2.9369,2.962,2.9997,3.0104,3.0567,3.1383,3.1347,3.1347,3.1841,3.193,3.2017,3.2281,3.2351,3.2456,3.2561,3.2876,3.3156,3.3313,3.3573,3.3851,3.3974,3.4531,3.5196,3.611,3.6959,3.8001,3.8813,3.9043,3.918,3.9414,3.8887,3.8555,3.8613,3.8457,3.8367,3.8856,3.9353,4.0002,4.074,4.0882,4.0918,2.6426,2.6426,2.6426,2.66,2.6787,2.6854,2.7014,2.7255,2.7282,2.7081,2.6827,2.6774,2.6466,2.6011,2.5718,2.5531,2.5543,2.5529,2.5594,2.5725,2.6287,2.6252,2.5773,2.6686,2.704,2.68,2.7078,2.7144,2.7035,2.7546,2.7239,2.6222,2.7013,2.7144,2.672,2.6881,2.6998,2.6998,2.6998,2.7151,2.7418,2.7141,2.6848,2.6593,2.6574,2.6774,2.7199,2.7797,2.8208,2.8279,2.8502,2.8671,2.8751,2.8751,2.8856,2.9179,2.9215,2.9248,2.9282,2.959,2.9813,2.9881,3.0172,3.0532,3.0874,3.0994,3.1025,3.1031,3.0605,3.034,3.0299,2.9679,2.925,2.9349,2.962,2.9978,3.0299,3.0638,3.1117,3.1489,3.1524,3.1559,3.163,3.163,3.1665,3.17,3.1665,3.1841,3.2298,3.2579,3.2912,3.3405,3.3683,3.3939,3.4378,3.4706,3.5546,3.6482,3.7554,3.9082,3.983,4.0351,4.0449,4.0469,4.0137,3.9766,3.9355,3.919,3.9211,3.9443,3.9574,4.011,4.0775,4.0882,4.0918,2.64,2.64,2.64,2.656,2.6787,2.7014,2.7175,2.7322,2.7455,2.7375,2.7134,2.7108,2.7028,2.6827,2.648,2.6039,2.5531,2.5317,2.5331,2.5478,2.559,2.5707,2.5947,2.6523,2.6755,2.6648,2.679,2.6927,2.6971,2.7557,2.7692,2.7312,2.7378,2.7371,2.7196,2.7027,2.6998,2.6998,2.6998,2.7056,2.7238,2.7337,2.7455,2.7534,2.7386,2.7493,2.7836,2.8077,2.8327,2.8626,2.8327,2.8329,2.8737,2.8801,2.895,2.925,2.934,2.9443,2.9694,3.0018,3.0207,3.0224,3.0583,3.0942,3.1319,3.1558,3.1706,3.1601,3.1104,3.0799,3.0551,2.9873,2.9393,2.9588,2.9785,3.0049,3.037,3.0762,3.1152,3.1489,3.1595,3.1595,3.163,3.1595,3.1595,3.1595,3.1595,3.1995,3.261,3.2808,3.3198,3.4306,3.4284,3.4218,3.5484,3.4956,3.5177,3.6299,3.7479,3.8714,3.9653,4.0586,4.082,4.0801,4.0762,4.0526,3.9901,3.9596,3.9694,3.9754,3.9883,4.0182,4.0811,4.0882,4.0918,2.64,2.64,2.64,2.656,2.6854,2.7188,2.7362,2.7428,2.7709,2.7724,2.7483,2.7443,2.7403,2.7296,2.7054,2.66,2.5932,2.5545,2.5424,2.5491,2.5317,2.5438,2.5836,2.6121,2.6314,2.6416,2.6704,2.6899,2.7026,2.7672,2.7848,2.759,2.751,2.7401,2.7174,2.6939,2.6837,2.6837,2.6939,2.7071,2.7202,2.7565,2.7949,2.8213,2.822,2.8274,2.8408,2.8496,2.8629,2.8698,2.8411,2.8434,2.8893,2.896,2.906,2.9277,2.9312,2.9463,2.9716,3.0037,3.0291,3.0426,3.0781,3.1137,3.1544,3.1779,3.1851,3.1656,3.1317,3.0934,3.0817,3.0274,2.9877,3.0009,3.0142,3.0343,3.0601,3.0922,3.1418,3.1841,3.1736,3.17,3.1876,3.1736,3.163,3.1595,3.1783,3.2355,3.2866,3.3441,3.366,3.479,3.4576,3.4699,3.5355,3.52,3.5612,3.6702,3.7749,3.883,3.9615,4.0567,4.1094,4.1094,4.1015,4.0799,4.0541,4.0139,4.0034,4.0089,4.0119,4.0346,4.0668,4.0882,4.0918,2.64,2.64,2.64,2.6533,2.6814,2.7094,2.7456,2.7655,2.7991,2.7951,2.775,2.7709,2.7617,2.7389,2.7336,2.7081,2.6653,2.6146,2.5824,2.5571,2.5504,2.5504,2.5598,2.561,2.5788,2.6107,2.6801,2.7157,2.7236,2.7831,2.786,2.7275,2.7481,2.7364,2.6617,2.6691,2.6574,2.6661,2.6866,2.7136,2.7586,2.7876,2.8238,2.8635,2.9019,2.904,2.8809,2.909,2.9069,2.885,2.9059,2.9266,2.9218,2.9201,2.9285,2.9319,2.9334,2.9316,2.9468,2.9851,3.0267,3.0515,3.0827,3.1214,3.1529,3.1609,3.1474,3.1223,3.1079,3.0937,3.0991,3.0862,3.0709,3.0523,3.07,3.0968,3.1023,3.1383,3.1876,3.2403,3.2193,3.2017,3.2333,3.2158,3.1841,3.1977,3.2248,3.2762,3.3204,3.3963,3.4383,3.448,3.4649,3.5065,3.5263,3.5442,3.6361,3.7309,3.8363,3.9353,3.9829,4.0586,4.1093,4.1172,4.1327,4.1168,4.1079,4.0729,4.0549,4.0549,4.0544,4.0474,4.0704,4.0918,4.0918,2.64,2.64,2.64,2.644,2.656,2.6841,2.7121,2.7456,2.775,2.7896,2.8031,2.8045,2.7991,2.7871,2.771,2.7295,2.6774,2.6413,2.6131,2.5864,2.5611,2.5625,2.5784,2.5611,2.5594,2.5761,2.6211,2.6564,2.692,2.7604,2.7879,2.7908,2.8016,2.8014,2.7707,2.7217,2.6925,2.7115,2.6822,2.6966,2.7571,2.7913,2.831,2.8691,2.9066,2.9234,2.9174,2.9246,2.9141,2.8841,2.8879,2.8956,2.897,2.8939,2.9157,2.956,2.9682,2.9944,3.0384,3.0752,3.0983,3.1132,3.1247,3.1515,3.1791,3.182,3.1748,3.1609,3.1458,3.1404,3.1523,3.1205,3.0924,3.0778,3.1135,3.127,3.1184,3.1806,3.2351,3.2666,3.2928,3.3207,3.3242,3.2824,3.2474,3.2822,3.2862,3.3037,3.429,3.4404,3.5173,3.6206,3.5975,3.5797,3.6516,3.7073,3.7726,3.8348,3.9165,3.9757,4.0218,4.0547,4.1015,4.1288,4.1444,4.1497,4.1405,4.1304,4.108,4.089,4.0797,4.0792,4.0867,4.0918,4.0918,2.6587,2.6413,2.6507,2.648,2.6426,2.6694,2.6921,2.7148,2.7535,2.7802,2.8018,2.8138,2.8192,2.8125,2.7829,2.7442,2.6974,2.6587,2.6293,2.6066,2.5678,2.5638,2.5797,2.5611,2.5585,2.5677,2.5801,2.6139,2.6619,2.7084,2.7516,2.7823,2.7942,2.796,2.7926,2.7246,2.6925,2.7064,2.69,2.6962,2.7464,2.8032,2.8454,2.8707,2.9118,2.9298,2.9298,2.9298,2.9202,2.9012,2.9,2.9042,2.9155,2.9222,2.9405,2.9871,3.0042,3.0248,3.0673,3.0819,3.1137,3.1234,3.1283,3.1392,3.1685,3.1783,3.1798,3.1759,3.157,3.1495,3.1511,3.1647,3.1369,3.0966,3.13,3.145,3.1378,3.2088,3.2806,3.3103,3.3486,3.3886,3.3971,3.3295,3.2914,3.325,3.3251,3.3292,3.4689,3.524,3.6409,3.7294,3.7085,3.7387,3.8282,3.878,3.9185,3.9567,4.0029,4.0337,4.0626,4.084,4.1211,4.1327,4.1424,4.1613,4.1597,4.1531,4.1399,4.1248,4.1034,4.0935,4.0918,4.0918,4.0918,2.6907,2.648,2.668,2.664,2.6466,2.668,2.676,2.6921,2.7362,2.7642,2.7762,2.8018,2.8138,2.8085,2.7802,2.7482,2.7188,2.668,2.6306,2.6119,2.5758,2.5545,2.5545,2.5531,2.5625,2.5824,2.5663,2.5895,2.6382,2.6589,2.676,2.7186,2.7397,2.7321,2.7343,2.6794,2.6603,2.6624,2.6807,2.6991,2.7209,2.8105,2.8707,2.8779,2.9102,2.9298,2.9298,2.9298,2.9298,2.9282,2.925,2.9397,2.9663,2.9774,2.9827,3.015,3.0251,3.0304,3.0352,3.0506,3.0649,3.1006,3.1054,3.1067,3.1399,3.1469,3.1485,3.1494,3.1462,3.1389,3.1419,3.1896,3.1993,3.1364,3.144,3.1544,3.1768,3.2386,3.3103,3.3694,3.3921,3.4163,3.4853,3.378,3.3245,3.3251,3.363,3.3811,3.4582,3.5704,3.7018,3.7509,3.77,3.8307,3.8966,3.9239,3.9567,3.9779,4.0221,4.0491,4.082,4.1035,4.1385,4.1502,4.1421,4.1627,4.1804,4.177,4.1694,4.1466,4.124,4.1007,4.0918,4.0918,4.0918,2.6854,2.6667,2.656,2.6573,2.6667,2.6573,2.664,2.6774,2.6974,2.7308,2.7629,2.7776,2.7816,2.7802,2.7722,2.7321,2.6747,2.6466,2.6119,2.5772,2.5611,2.5518,2.5518,2.5518,2.5571,2.5638,2.5611,2.5596,2.5817,2.6087,2.6413,2.6774,2.7318,2.7507,2.7296,2.6997,2.6749,2.6486,2.6323,2.6777,2.7514,2.7982,2.8563,2.9118,2.9262,2.9298,2.9298,2.9298,2.9298,2.9298,2.9298,2.9329,2.9457,2.9488,2.9663,2.9912,2.9976,3.0203,3.0585,3.0718,3.0908,3.1242,3.1211,3.13,3.1363,3.1395,3.1395,3.1472,3.1648,3.189,3.2081,3.2404,3.2433,3.2275,3.1998,3.201,3.2649,3.3212,3.3782,3.449,3.5043,3.5401,3.5406,3.4906,3.4383,3.4601,3.4378,3.4119,3.4897,3.5892,3.7069,3.7824,3.8215,3.8891,3.9392,3.9625,3.9817,3.9855,4.0105,4.0353,4.0684,4.1016,4.154,4.1946,4.1548,4.1574,4.1915,4.2105,4.1938,4.156,4.127,4.0939,4.0918,4.0918,4.0918,2.6974,2.6653,2.672,2.6707,2.6653,2.6587,2.66,2.6653,2.6774,2.6987,2.7308,2.7468,2.7509,2.7509,2.7375,2.7068,2.6587,2.6319,2.6131,2.5919,2.5638,2.5598,2.5665,2.5692,2.5758,2.5852,2.5758,2.5705,2.5717,2.5815,2.6047,2.6452,2.7168,2.7344,2.713,2.7293,2.7144,2.6785,2.654,2.6892,2.7606,2.7988,2.8437,2.9,2.9202,2.9298,2.9298,2.9298,2.9298,2.9298,2.9298,2.9361,2.9504,2.952,2.9679,2.996,2.9992,3.0235,3.0521,3.0632,3.0728,3.0918,3.1061,3.1061,3.0998,3.1061,3.1141,3.0972,3.1329,3.1631,3.1938,3.2222,3.2841,3.3435,3.3028,3.2858,3.3446,3.38,3.4464,3.5196,3.5735,3.6079,3.6196,3.5482,3.5064,3.4896,3.4556,3.4592,3.494,3.5973,3.6975,3.7829,3.8755,3.949,3.9683,3.9816,3.9699,3.9776,3.9775,4.0078,4.0331,4.0702,4.1067,4.1388,4.1396,4.1551,4.1789,4.1906,4.1685,4.1312,4.1063,4.0939,4.0918,4.0918,4.0918,2.7188,2.648,2.7041,2.6921,2.6533,2.6707,2.6614,2.648,2.6653,2.6787,2.6921,2.7108,2.7215,2.7242,2.6987,2.6814,2.672,2.6279,2.6225,2.6039,2.5798,2.5611,2.5824,2.5837,2.6038,2.6252,2.6145,2.6024,2.5917,2.5717,2.5815,2.6307,2.6947,2.705,2.7006,2.738,2.74,2.6815,2.678,2.7012,2.7463,2.7875,2.8319,2.875,2.9043,2.9226,2.9262,2.9298,2.9298,2.9298,2.9298,2.9441,2.9659,2.9706,2.9854,3.0029,3.006,3.0124,3.0251,3.0267,3.0315,3.0426,3.068,3.068,3.0521,3.0648,3.0733,3.0585,3.0755,3.1223,3.1667,3.199,3.2983,3.4072,3.4048,3.3998,3.4144,3.4394,3.503,3.6074,3.6162,3.6318,3.6234,3.5758,3.4872,3.5152,3.4793,3.4629,3.503,3.5907,3.6998,3.8122,3.909,4.0141,4.0119,4.0021,3.9749,3.9593,3.9477,3.9608,3.9648,3.9958,4.0243,4.0524,4.0916,4.1201,4.1395,4.1363,4.1276,4.1167,4.0959,4.0918,4.0918,4.0918,4.0918,2.7108,2.6747,2.6867,2.6854,2.6747,2.6747,2.6667,2.64,2.6453,2.6613,2.6787,2.6894,2.6921,2.6921,2.6787,2.6707,2.652,2.6319,2.6279,2.6024,2.5692,2.5545,2.5625,2.5638,2.5905,2.6226,2.6319,2.6212,2.6024,2.5983,2.6098,2.6537,2.6895,2.7054,2.6944,2.7142,2.6749,2.6105,2.6387,2.6917,2.7314,2.7644,2.8057,2.8583,2.878,2.8995,2.9226,2.9298,2.9298,2.9298,2.9298,2.9309,2.9425,2.9441,2.9504,2.9552,2.9568,2.9663,2.9833,2.9897,3.0008,3.0235,3.0346,3.041,3.0346,3.0362,3.0559,3.0739,3.1146,3.1669,3.2509,3.3127,3.3614,3.4085,3.4341,3.4577,3.5134,3.556,3.6093,3.6691,3.6716,3.6597,3.6675,3.6186,3.5615,3.539,3.5064,3.4719,3.5165,3.5882,3.69,3.8061,3.8836,3.9687,3.9726,3.959,3.9394,3.9238,3.916,3.9158,3.9199,3.9541,3.9922,4.0258,4.0646,4.0886,4.1115,4.109,4.1042,4.0959,4.0918,4.0918,4.0918,4.0918,4.0918,2.6609,2.6667,2.6907,2.6867,2.6694,2.6894,2.6787,2.6453,2.64,2.648,2.6587,2.6613,2.6613,2.6627,2.6613,2.652,2.6426,2.6386,2.6306,2.6092,2.5758,2.5598,2.5665,2.5611,2.5758,2.6198,2.6372,2.6319,2.6212,2.6104,2.6295,2.6851,2.7122,2.7093,2.7072,2.737,2.7291,2.6735,2.6764,2.7195,2.7686,2.7744,2.8017,2.8477,2.8633,2.8712,2.8738,2.8707,2.8815,2.8959,2.903,2.9102,2.9298,2.9298,2.9298,2.9298,2.9298,2.9361,2.9536,2.9584,2.9647,2.9838,2.9981,2.9949,3.0022,3.0112,3.0348,3.058,3.1112,3.203,3.3156,3.3584,3.3873,3.4397,3.4721,3.5296,3.592,3.6188,3.6472,3.6961,3.6914,3.6753,3.6577,3.6269,3.5786,3.5284,3.5592,3.5259,3.5204,3.5909,3.674,3.7675,3.8433,3.8984,3.9121,3.9062,3.8906,3.8828,3.8826,3.8806,3.8845,3.9261,3.9716,4.0045,4.0371,4.0723,4.0895,4.0852,4.0918,4.0918,4.0918,4.0918,4.0918,4.0918,4.0918,2.6112,2.644,2.7068,2.6961,2.6533,2.7041,2.6961,2.644,2.64,2.64,2.64,2.64,2.6426,2.64,2.6413,2.64,2.64,2.64,2.636,2.6279,2.5758,2.5651,2.5718,2.5638,2.5625,2.5919,2.6239,2.6346,2.6306,2.6238,2.6508,2.7114,2.7294,2.7354,2.7455,2.7809,2.7868,2.7364,2.7408,2.7695,2.8133,2.8059,2.817,2.836,2.8364,2.8383,2.8309,2.8238,2.8233,2.8583,2.8635,2.8815,2.903,2.9298,2.9298,2.9298,2.9298,2.9314,2.9345,2.9329,2.9345,2.9314,2.9552,2.9636,2.9617,3.0022,3.0379,3.075,3.1341,3.2349,3.3216,3.3607,3.4072,3.4627,3.5145,3.5786,3.621,3.6249,3.664,3.707,3.6988,3.6753,3.6577,3.6309,3.5742,3.5299,3.566,3.5869,3.5789,3.5889,3.6601,3.7232,3.7916,3.8379,3.8535,3.8904,3.8708,3.8669,3.8611,3.8611,3.8683,3.9185,3.9672,3.9807,4.0067,4.0479,4.0786,4.0867,4.0918,4.0918,4.0918,4.0918,4.0918,4.0918,4.0918,2.6112,2.644,2.7068,2.6961,2.652,2.7055,2.6921,2.6453,2.64,2.64,2.64,2.64,2.64,2.64,2.64,2.64,2.64,2.64,2.64,2.6293,2.5825,2.5625,2.5638,2.5625,2.5598,2.5718,2.6106,2.6386,2.6386,2.6412,2.6724,2.7354,2.7575,2.7681,2.794,2.8087,2.7926,2.77,2.7773,2.7972,2.8106,2.8115,2.8036,2.82,2.8057,2.8069,2.828,2.8038,2.7911,2.8171,2.8202,2.8253,2.8454,2.8938,2.919,2.9262,2.9298,2.9298,2.9298,2.9298,2.9298,2.9314,2.9449,2.9661,2.9851,3.0225,3.0793,3.1486,3.221,3.307,3.3281,3.3601,3.3792,3.4176,3.4615,3.5101,3.5401,3.5939,3.6561,3.6996,3.6836,3.6656,3.646,3.6269,3.5928,3.5596,3.5688,3.5904,3.5908,3.5981,3.6285,3.6871,3.7367,3.7715,3.7933,3.8418,3.863,3.865,3.8611,3.8647,3.8829,3.9281,3.9642,3.9858,4.011,4.051,4.0724,4.0882,4.0918,4.0918,4.0918,4.0918,4.0918,4.0918,4.0918,2.5532,2.6162,2.6773,2.6787,2.6507,2.6841,2.68,2.6426,2.64,2.64,2.64,2.64,2.64,2.64,2.64,2.64,2.64,2.64,2.64,2.6279,2.5959,2.5745,2.5745,2.5732,2.5745,2.5865,2.6172,2.6386,2.6386,2.6386,2.6807,2.7437,2.7633,2.7923,2.826,2.8247,2.8087,2.8022,2.8087,2.8247,2.8403,2.8417,2.8356,2.8182,2.8021,2.7955,2.7768,2.819,2.7916,2.7786,2.8112,2.8231,2.8315,2.8434,2.8794,2.8974,2.919,2.9298,2.9298,2.9334,2.9425,2.9855,2.9855,3.0176,3.0674,3.117,3.1613,3.2333,3.2771,3.3365,3.3557,3.3712,3.3782,3.3886,3.4336,3.4681,3.4994,3.5647,3.6189,3.6684,3.6695,3.6519,3.6269,3.6133,3.6055,3.5942,3.5853,3.5952,3.606,3.6355,3.6579,3.6832,3.7422,3.7793,3.8027,3.8301,3.8611,3.8611,3.8647,3.8683,3.8938,3.9389,3.977,4.0058,4.031,4.0632,4.074,4.0918,4.0918,4.0918,4.0918,4.0918,4.0918,4.0918,4.0918,2.4881,2.5699,2.6373,2.6534,2.6374,2.6654,2.6667,2.6426,2.64,2.64,2.64,2.64,2.64,2.64,2.64,2.64,2.64,2.64,2.64,2.6333,2.6118,2.5984,2.5998,2.6051,2.6011,2.585,2.6252,2.6386,2.6332,2.636,2.678,2.7211,2.746,2.7862,2.8231,2.8433,2.8457,2.8496,2.8496,2.8627,2.8827,2.8871,2.8783,2.8505,2.8379,2.7949,2.7666,2.8022,2.8087,2.7957,2.8252,2.867,2.8389,2.8282,2.8381,2.8692,2.9006,2.919,2.9334,2.9441,2.9712,3.0195,3.0444,3.0941,3.1542,3.2017,3.2614,3.3225,3.34,3.3504,3.3712,3.3817,3.3817,3.3886,3.4163,3.4543,3.4887,3.5356,3.5752,3.6117,3.6372,3.6367,3.6152,3.6094,3.6035,3.6152,3.6064,3.6254,3.6426,3.7051,3.728,3.7277,3.7578,3.8008,3.8262,3.8359,3.8591,3.8611,3.8647,3.872,3.9047,3.9445,3.9806,4.0166,4.0561,4.0811,4.0882,4.0918,4.0918,4.0918,4.0918,4.0918,4.0918,4.0918,4.0918,2.4445,2.5235,2.5985,2.6134,2.6003,2.652,2.6653,2.6413,2.64,2.64,2.64,2.64,2.64,2.64,2.64,2.64,2.64,2.64,2.64,2.6346,2.6172,2.6038,2.6051,2.6239,2.6092,2.5919,2.6213,2.6199,2.6172,2.6292,2.6448,2.6795,2.7334,2.7866,2.8162,2.8468,2.8842,2.8812,2.8812,2.8842,2.8886,2.8886,2.8856,2.8695,2.835,2.8057,2.8045,2.8252,2.8245,2.8387,2.882,2.9098,2.9006,2.8777,2.867,2.8694,2.878,2.8923,2.9262,2.9513,2.9997,3.048,3.0764,3.1312,3.2052,3.2719,3.326,3.3678,3.3712,3.3712,3.3782,3.3817,3.3817,3.3921,3.4094,3.4508,3.4853,3.5093,3.547,3.5865,3.623,3.6191,3.6055,3.6035,3.6035,3.6191,3.6328,3.6484,3.6812,3.7324,3.7832,3.7812,3.7832,3.8242,3.8359,3.8496,3.8571,3.8611,3.8647,3.8756,3.9192,3.959,3.9878,4.0254,4.0668,4.0918,4.0918,4.0918,4.0918,4.0918,4.0918,4.0918,4.0918,4.0918,4.0918,2.3894,2.4824,2.5604,2.591,2.5898,2.6374,2.6507,2.6413,2.64,2.64,2.64,2.64,2.64,2.64,2.64,2.64,2.64,2.64,2.64,2.64,2.6253,2.6238,2.6319,2.648,2.6426,2.6319,2.6293,2.6252,2.6105,2.5917,2.6005,2.6389,2.6867,2.7332,2.7778,2.8143,2.8437,2.8608,2.8769,2.8886,2.8886,2.8886,2.8886,2.8886,2.8593,2.8364,2.8289,2.8741,2.8582,2.8649,2.8987,2.9395,2.9242,2.9059,2.8936,2.8744,2.9148,2.9323,2.9329,2.9513,3.0104,3.0922,3.1453,3.2035,3.2859,3.333,3.3608,3.3782,3.3817,3.3817,3.3817,3.3817,3.3817,3.3886,3.4024,3.4439,3.4784,3.499,3.5264,3.5675,3.6035,3.6035,3.6035,3.6035,3.6001,3.6113,3.6348,3.6621,3.6934,3.7402,3.7891,3.8281,3.834,3.8513,3.8496,3.8535,3.8591,3.8611,3.8611,3.8829,3.9317,3.9714,4.0002,4.0325,4.0775,4.0918,4.0918,4.0918,4.0918,4.0918,4.0918,4.0918,4.0918,4.0918,4.0918,2.3577,2.4572,2.5316,2.5673,2.5832,2.6228,2.64,2.64,2.64,2.64,2.64,2.64,2.64,2.64,2.64,2.64,2.64,2.64,2.64,2.64,2.64,2.6426,2.656,2.6774,2.6881,2.6787,2.672,2.6386,2.5917,2.5703,2.5698,2.5919,2.6499,2.688,2.7245,2.7734,2.8131,2.8437,2.8754,2.8871,2.8886,2.8886,2.8886,2.8886,2.8842,2.8666,2.8397,2.8949,2.9015,2.8882,2.9481,2.9938,2.9753,2.9614,2.9573,2.9446,2.9729,2.987,2.9921,3.0121,3.0475,3.1277,3.2193,3.2754,3.3504,3.3817,3.3817,3.3817,3.3817,3.3817,3.3817,3.3817,3.3817,3.3817,3.3851,3.4301,3.4696,3.4921,3.5264,3.5743,3.6035,3.6035,3.6035,3.6035,3.6021,3.604,3.6328,3.668,3.7109,3.7519,3.793,3.8379,3.8532,3.8591,3.8591,3.8555,3.8611,3.8611,3.8611,3.8902,3.9425,3.975,4.0002,4.0397,4.0847,4.0918,4.0918,4.0918,4.0918,4.0918,4.0918,4.0918,4.0918,4.0954,4.1025,2.3704,2.4532,2.497,2.5448,2.5832,2.6228,2.64,2.64,2.64,2.64,2.64,2.64,2.64,2.64,2.64,2.64,2.6413,2.64,2.6453,2.6453,2.6413,2.66,2.6814,2.7028,2.7121,2.6974,2.6961,2.6493,2.5812,2.5611,2.5409,2.5321,2.6133,2.655,2.697,2.7418,2.7961,2.8321,2.8666,2.8856,2.8886,2.8886,2.8886,2.8886,2.8886,2.8856,2.8851,2.9221,2.944,2.9224,2.9923,3.0423,3.023,3.0251,3.0284,3.0225,3.0314,3.0547,3.0832,3.0805,3.1096,3.1753,3.2456,3.3191,3.3747,3.3817,3.3817,3.3817,3.3817,3.3817,3.3817,3.3817,3.3817,3.3817,3.3886,3.4267,3.4593,3.4853,3.523,3.5777,3.6035,3.6035,3.6035,3.6035,3.6035,3.6021,3.6387,3.6738,3.7226,3.7656,3.8008,3.8359,3.8532,3.8611,3.8611,3.8611,3.8611,3.8647,3.8683,3.9083,3.9534,3.9822,4.011,4.0504,4.0918,4.0918,4.0918,4.0918,4.0918,4.0918,4.0918,4.0918,4.0989,4.1096,4.1259,2.352,2.4148,2.5117,2.5634,2.5832,2.6228,2.64,2.64,2.64,2.64,2.64,2.64,2.64,2.64,2.6413,2.6493,2.6627,2.6653,2.6747,2.6881,2.7001,2.7041,2.7229,2.7335,2.7468,2.7348,2.7308,2.6907,2.6159,2.5812,2.5224,2.5235,2.5837,2.601,2.6438,2.715,2.7748,2.8116,2.8423,2.8681,2.8886,2.8886,2.8886,2.8886,2.8886,2.8886,2.891,2.9042,2.9251,2.9523,2.9873,3.0105,3.0492,3.0684,3.081,3.088,3.1028,3.1535,3.1494,3.1359,3.137,3.2158,3.2701,3.3191,3.3712,3.3817,3.3817,3.3817,3.3817,3.3817,3.3817,3.3817,3.3817,3.3817,3.399,3.4267,3.4612,3.4853,3.5264,3.5845,3.6001,3.6035,3.6035,3.6035,3.6035,3.6055,3.6426,3.6797,3.7207,3.7598,3.7891,3.8203,3.8359,3.8571,3.8591,3.8611,3.8611,3.8683,3.8793,3.9228,3.9698,3.9986,4.031,4.0668,4.0918,4.0918,4.0918,4.0918,4.0918,4.0918,4.0918,4.0918,4.1061,4.1274,4.1424,2.3399,2.4096,2.5144,2.574,2.599,2.6268,2.64,2.64,2.64,2.64,2.64,2.64,2.64,2.6413,2.6507,2.6613,2.676,2.6907,2.7068,2.7202,2.7255,2.7349,2.7483,2.7575,2.7696,2.7736,2.7657,2.7269,2.6653,2.6226,2.5838,2.5601,2.5605,2.5871,2.6096,2.6862,2.7627,2.7911,2.8233,2.8578,2.8842,2.8886,2.8886,2.8886,2.8886,2.8886,2.8886,2.8964,2.9042,2.9251,2.9484,2.964,3.0144,3.0655,3.1045,3.1397,3.1836,3.2526,3.2258,3.1742,3.1841,3.2685,3.272,3.3157,3.3573,3.3817,3.3817,3.3817,3.3817,3.3817,3.3817,3.3817,3.3817,3.3817,3.4024,3.4336,3.4715,3.5059,3.547,3.5913,3.5967,3.6035,3.6035,3.6035,3.6035,3.6035,3.6172,3.6504,3.6871,3.7226,3.7559,3.7871,3.8164,3.8359,3.8591,3.8591,3.8647,3.8921,3.9067,3.9373,3.977,4.009,4.0377,4.074,4.0918,4.0918,4.0897,4.0877,4.0897,4.0918,4.0954,4.1061,4.1226,4.1453,4.1587,2.3371,2.4507,2.4945,2.5621,2.6307,2.6386,2.64,2.64,2.64,2.64,2.64,2.64,2.6413,2.648,2.6667,2.6787,2.6987,2.7161,2.7362,2.7416,2.7483,2.7536,2.7657,2.7762,2.7924,2.8125,2.8018,2.771,2.7202,2.7015,2.6693,2.6343,2.6189,2.6194,2.5985,2.6922,2.7627,2.7926,2.8262,2.8534,2.8769,2.8856,2.8886,2.8886,2.8886,2.8886,2.8886,2.8886,2.8964,2.9056,2.929,2.9407,2.9601,3.0608,3.127,3.1775,3.256,3.3222,3.3511,3.2631,3.2675,3.3109,3.3038,3.3176,3.3645,3.3835,3.3817,3.3817,3.3817,3.3817,3.3817,3.3817,3.3817,3.3955,3.4198,3.4474,3.4887,3.5196,3.5572,3.5879,3.5967,3.6035,3.6035,3.6035,3.6035,3.6035,3.6035,3.623,3.6558,3.689,3.7207,3.75,3.7832,3.8144,3.834,3.8552,3.8683,3.8994,3.9261,3.9486,3.9748,3.9988,4.0335,4.0743,4.0655,4.0448,4.0613,4.0835,4.0634,4.0504,4.1105,4.1289,4.1488,4.1531,4.1571,2.3376,2.4364,2.4861,2.5621,2.6347,2.64,2.64,2.64,2.64,2.64,2.64,2.64,2.652,2.6667,2.6814,2.7,2.7375,2.7455,2.7602,2.7857,2.7844,2.7938,2.8018,2.8018,2.8072,2.8152,2.8138,2.7898,2.7282,2.7362,2.6988,2.6585,2.684,2.7018,2.6922,2.7287,2.7466,2.8057,2.8204,2.8233,2.8525,2.8769,2.8886,2.8886,2.8886,2.8886,2.8886,2.8886,2.8886,2.8886,2.9134,2.9134,2.929,3.0183,3.0879,3.1571,3.2375,3.3099,3.3566,3.3389,3.3414,3.3533,3.3411,3.3445,3.4061,3.3927,3.3853,3.3817,3.3817,3.3817,3.3817,3.3817,3.3886,3.4163,3.4439,3.4749,3.5093,3.5333,3.5606,3.5865,3.6035,3.6035,3.6035,3.6035,3.6035,3.605,3.605,3.605,3.6318,3.6577,3.691,3.7129,3.7461,3.7832,3.8125,3.8393,3.877,3.9156,3.9262,3.9323,3.9602,3.9921,3.9912,4.0137,4.0054,3.9992,4.0137,4.022,4.0019,4.0069,4.0597,4.101,4.1109,4.1206,4.1321,2.31,2.3938,2.4624,2.5437,2.6174,2.6361,2.64,2.64,2.64,2.64,2.6413,2.648,2.6627,2.6787,2.7068,2.7241,2.7709,2.7829,2.7924,2.8179,2.8179,2.8152,2.8165,2.8192,2.8165,2.8192,2.8152,2.7951,2.7684,2.763,2.7309,2.7082,2.7504,2.7591,2.7535,2.7485,2.7517,2.7911,2.7891,2.8022,2.8321,2.8622,2.8783,2.8856,2.8886,2.8886,2.8886,2.8886,2.8886,2.8886,2.8886,2.8886,2.9119,2.9664,3.0492,3.1341,3.2452,3.3175,3.3658,3.4004,3.4049,3.4278,3.3803,3.3856,3.4189,3.3983,3.3872,3.3817,3.3817,3.3817,3.3817,3.3817,3.4059,3.437,3.4715,3.5059,3.5299,3.5504,3.5728,3.5967,3.6035,3.6035,3.6035,3.6035,3.6035,3.605,3.6118,3.6152,3.6219,3.6475,3.6769,3.699,3.7195,3.7512,3.792,3.8305,3.8774,3.9261,3.9421,3.9475,3.9672,4.003,3.9764,3.9523,3.9606,3.9647,3.9585,3.9544,3.9564,3.9668,4.0006,4.0348,4.0598,4.0817,4.0976,2.2518,2.3393,2.4252,2.5096,2.5896,2.632,2.6466,2.644,2.644,2.6453,2.6453,2.676,2.6894,2.7001,2.7428,2.7682,2.7776,2.8045,2.8125,2.8179,2.8179,2.8192,2.8192,2.8192,2.8192,2.8234,2.8263,2.832,2.8223,2.8283,2.7986,2.7702,2.8315,2.8328,2.8108,2.8067,2.7961,2.7876,2.7671,2.7876,2.8242,2.8408,2.8651,2.8798,2.8886,2.8886,2.8886,2.8886,2.8886,2.8886,2.8886,2.8886,2.9119,2.9625,3.0454,3.1533,3.2871,3.3534,3.3912,3.4221,3.4616,3.4781,3.4342,3.4268,3.4207,3.4128,3.3872,3.3817,3.3817,3.3817,3.3817,3.4024,3.4267,3.4612,3.5024,3.5299,3.5504,3.5709,3.5879,3.6035,3.6035,3.6035,3.6035,3.6035,3.605,3.6234,3.6369,3.6606,3.664,3.6573,3.6816,3.702,3.7159,3.7245,3.7689,3.8296,3.8843,3.9401,3.9712,3.981,4.0041,4.0005,3.9688,3.944,3.9399,3.9337,3.9109,3.9151,3.9296,3.942,3.9413,3.986,4.0188,4.0359,4.0525,2.273,2.3561,2.4294,2.5091,2.5931,2.6729,2.7055,2.7055,2.7055,2.7055,2.7028,2.7135,2.7228,2.7468,2.7629,2.7857,2.8018,2.8125,2.8165,2.8192,2.8192,2.8192,2.8192,2.8192,2.8192,2.8318,2.8445,2.8613,2.8726,2.8866,2.8838,2.8577,2.9131,2.9108,2.9008,2.9105,2.8535,2.8037,2.7715,2.7817,2.811,2.8306,2.8578,2.8783,2.8871,2.8886,2.8886,2.8886,2.8886,2.8886,2.8886,2.8886,2.8964,2.9197,2.9741,3.1379,3.2773,3.3912,3.4215,3.4612,3.4969,3.52,3.4903,3.4775,3.4643,3.424,3.3872,3.3817,3.3817,3.3817,3.3851,3.4024,3.4336,3.4749,3.5093,3.5367,3.5606,3.5845,3.6035,3.6035,3.6035,3.6035,3.6035,3.6035,3.6084,3.6369,3.662,3.691,3.7045,3.6944,3.705,3.7277,3.736,3.749,3.7888,3.8477,3.9005,3.9496,3.9851,4.0105,4.0071,3.9922,3.9544,3.9275,3.9109,3.882,3.8523,3.8647,3.8874,3.8647,3.8639,3.921,3.974,3.9936,4.0262,2.277,2.3387,2.4465,2.5649,2.6815,2.7408,2.7657,2.7617,2.7416,2.7309,2.7322,2.7429,2.7535,2.7682,2.7816,2.8018,2.8165,2.8165,2.8192,2.8192,2.8192,2.8192,2.8192,2.8234,2.8318,2.8487,2.8655,2.8852,2.9118,2.9272,2.9258,2.916,2.9886,2.971,2.9471,2.9435,2.9212,2.8622,2.8169,2.7964,2.8037,2.83,2.8622,2.871,2.8783,2.8871,2.8886,2.8886,2.8886,2.8886,2.8886,2.8886,2.9119,2.9484,3.009,3.1648,3.2871,3.3837,3.4328,3.4744,3.5157,3.5424,3.5358,3.5193,3.4734,3.4312,3.4,3.3817,3.3817,3.3817,3.3886,3.399,3.4405,3.4818,3.5127,3.5401,3.5675,3.5967,3.6035,3.6035,3.6035,3.6035,3.6035,3.6035,3.6084,3.6287,3.6606,3.6978,3.718,3.7247,3.7449,3.7746,3.7791,3.782,3.8295,3.8763,3.9323,3.9825,4.0223,4.0359,4.0212,3.9978,3.9688,3.9192,3.873,3.8543,3.846,3.8295,3.8336,3.8266,3.8395,3.8896,3.9344,3.9517,3.9906,2.2719,2.2891,2.464,2.6381,2.8052,2.8152,2.8181,2.8125,2.763,2.7389,2.7469,2.7629,2.7749,2.7884,2.8031,2.8125,2.8192,2.8192,2.8192,2.8192,2.8192,2.8192,2.8192,2.8234,2.8403,2.8655,2.895,2.9188,2.9481,2.9691,2.9774,2.9607,3.0039,3.0031,2.9739,2.9938,2.972,2.9149,2.8944,2.8812,2.8139,2.8315,2.8739,2.8549,2.8666,2.8842,2.8871,2.8886,2.8886,2.8886,2.8886,2.8886,2.9368,3.0207,3.0993,3.1868,3.2956,3.3881,3.4519,3.4932,3.5306,3.5534,3.5613,3.5413,3.4973,3.4422,3.4092,3.3853,3.3817,3.3817,3.3851,3.4094,3.4474,3.4853,3.5196,3.5504,3.5811,3.5982,3.6035,3.6035,3.6035,3.6035,3.6021,3.6074,3.6235,3.6312,3.661,3.705,3.7422,3.7557,3.7841,3.8174,3.8221,3.8363,3.883,3.9301,3.9753,4.0197,4.0518,4.061,4.0454,4.0185,3.9875,3.944,3.9006,3.8716,3.8551,3.8481,3.8481,3.8585,3.8699,3.8766,3.9024,3.9462,4.0123,2.3031,2.2902,2.464,2.6473,2.8094,2.8192,2.8192,2.8179,2.8058,2.7951,2.7991,2.8031,2.8045,2.8031,2.8112,2.8179,2.8152,2.8179,2.8179,2.8192,2.8192,2.8192,2.8192,2.8234,2.8445,2.8782,2.916,2.9579,2.9956,3.0206,3.0332,3.0081,3.0415,3.0408,3.0277,3.0495,3.0203,2.969,2.9866,2.9427,2.8511,2.8291,2.8452,2.8423,2.8593,2.8739,2.8798,2.8886,2.8886,2.8886,2.8886,2.8886,2.8964,3.0245,3.1004,3.1628,3.2898,3.3966,3.4729,3.5157,3.5568,3.5775,3.5815,3.5632,3.5229,3.4623,3.4202,3.3982,3.3817,3.3817,3.3921,3.4198,3.4508,3.4887,3.523,3.5606,3.5947,3.5982,3.6035,3.6035,3.6035,3.6021,3.604,3.6186,3.6382,3.6636,3.6912,3.7314,3.7792,3.8065,3.8282,3.8569,3.8657,3.887,3.937,3.9745,4.0124,4.0303,4.0584,4.064,4.0675,4.0448,4.0179,3.9813,3.944,3.9151,3.8923,3.882,3.8841,3.8957,3.9067,3.92,3.9749,4.0259,4.094,2.3365,2.3636,2.5288,2.6868,2.8052,2.8192,2.8192,2.8192,2.8192,2.8192,2.8192,2.8179,2.8125,2.8058,2.8112,2.8098,2.8072,2.8138,2.8165,2.8192,2.8192,2.8192,2.8192,2.8234,2.8697,2.9076,2.9774,3.0234,3.0457,3.0582,3.0624,3.0499,3.0707,3.0776,3.0776,3.0746,3.0656,3.0334,3.0685,3.0074,2.9066,2.9047,2.8842,2.8798,2.8666,2.8769,2.8798,2.8886,2.8886,2.8886,2.8886,2.8886,2.9105,2.9915,3.0761,3.159,3.27,3.401,3.4769,3.5345,3.5718,3.5924,3.6072,3.5889,3.5559,3.4973,3.466,3.4403,3.3908,3.3817,3.3921,3.4163,3.4508,3.4887,3.523,3.5606,3.5879,3.6001,3.6035,3.6035,3.6035,3.6035,3.6133,3.6367,3.6548,3.6715,3.7045,3.7436,3.7921,3.843,3.8697,3.9041,3.9144,3.9385,3.977,4.01,4.0383,4.0557,4.0634,4.0717,4.0758,4.0634,4.0427,4.0081,3.9833,3.9606,3.942,3.9275,3.9213,3.9275,3.9461,3.9626,4.0306,4.1104,4.2034,2.3781,2.4609,2.5977,2.7146,2.803,2.8112,2.8112,2.8125,2.8165,2.8192,2.8192,2.8192,2.8018,2.7978,2.8031,2.7938,2.7951,2.8112,2.8179,2.8192,2.8192,2.8192,2.8192,2.8234,2.8726,2.9398,3.0109,3.0484,3.0734,3.0776,3.0776,3.0776,3.0776,3.0776,3.0776,3.0776,3.0729,3.07,3.0703,3.0525,3.0159,2.9906,2.9437,2.9076,2.8886,2.8886,2.8886,2.8886,2.8886,2.8886,2.8886,2.8886,2.9114,2.9659,3.0246,3.1112,3.2312,3.346,3.4386,3.5166,3.5628,3.5979,3.6127,3.6054,3.5724,3.5431,3.5119,3.4752,3.4257,3.3925,3.4029,3.4181,3.4527,3.494,3.5318,3.5737,3.5942,3.6133,3.6133,3.6133,3.6133,3.6133,3.6191,3.6445,3.6675,3.6862,3.7162,3.7573,3.7997,3.8497,3.8873,3.9356,3.9745,3.9974,4.0253,4.0427,4.0634,4.0655,4.0717,4.08,4.0877,4.0758,4.0613,4.0427,4.0143,3.9957,3.9854,3.9751,3.9688,3.9688,3.9944,4.0264,4.098,4.1873,4.3211,2.433,2.5124,2.5475,2.6328,2.7441,2.7724,2.7776,2.7829,2.8085,2.8192,2.8192,2.8192,2.8138,2.8098,2.8138,2.8085,2.8005,2.8138,2.8179,2.8192,2.8192,2.8192,2.8234,2.8318,2.8768,2.9439,3.0081,3.0457,3.0734,3.0776,3.0776,3.0776,3.0776,3.0776,3.0776,3.0776,3.0776,3.0776,3.0776,3.0671,3.0539,3.0129,2.954,2.9164,2.8886,2.8886,2.8886,2.8886,2.8886,2.8886,2.8886,2.8886,2.9075,2.9383,2.9846,3.0588,3.1808,3.2781,3.3722,3.4915,3.5558,3.5779,3.5962,3.6182,3.5944,3.576,3.5485,3.5284,3.4788,3.4238,3.4215,3.4327,3.4618,3.5081,3.5474,3.6034,3.6411,3.6484,3.6484,3.6504,3.6504,3.6348,3.6152,3.6406,3.6714,3.6925,3.7164,3.7594,3.822,3.864,3.904,3.9541,4.0085,4.0473,4.0687,4.0675,4.0779,4.0779,4.0779,4.0877,4.0918,4.0918,4.0737,4.0613,4.0489,4.0323,4.0241,4.0199,4.0303,4.0344,4.0551,4.0944,4.1608,4.253,4.378]},{"header":{"parameterUnit":"m.s-1","parameterCategory":1,"la1":31.0,"la2":29.5877,"lo1":-88.7671,"lo2":-86.6584,"dy":0.0162,"dx":0.0185,"nx":115,"ny":88,"refTime":"2024-04-06T06:00:00:Z","depth":0,"parameterNumber":3,"parameterNumberName":"V-component_of_WINDS"},"data":[0.0,0.0,0.0,0.0,0.0,0.0,0.0,0.0,0.0,0.0,0.0,0.0,0.0,0.0,0.0,0.0,0.0,0.0,0.0,0.0,0.0,0.0,0.0,0.0,0.0,0.0,0.0,0.0,0.0,0.0,0.0,0.0,0.0,0.0,0.0,0.0,0.0,0.0,0.0,0.0,0.0,0.0,0.0,0.0,0.0,0.0,0.0,0.0,0.0,0.0,0.0,0.0,0.0,0.0,0.0,0.0,0.0,0.0,0.0,0.0,0.0,0.0,0.0,0.0,0.0,0.0,0.0,0.0,0.0,0.0,0.0,0.0,0.0,0.0,0.0,0.0,0.0,0.0,0.0,0.0,0.0,0.0,0.0,0.0,0.0,0.0,0.0,0.0,0.0,0.0,0.0,0.0,0.0,0.0,0.0,0.0,0.0,0.0,0.0,0.0,0.0,0.0,0.0,0.0,0.0,0.0,0.0,0.0,0.0,0.0,0.0,0.0,0.0,0.0,0.0,0.0,0.0,0.0,0.0,0.0,0.0,0.0,0.0,0.0,0.0,0.0,0.0,0.0,0.0,0.0,0.0,0.0,0.0,0.0,0.0,0.0,0.0,0.0,0.0,0.0,0.0,0.0,0.0,0.0,0.0,0.0,0.0,0.0,0.0,0.0,0.0,0.0,0.0,0.0,0.0,0.0,0.0,0.0,0.0,0.0,0.0,0.0,0.0,0.0,0.0,0.0,0.0,0.0,0.0,0.0,0.0,0.0,0.0,0.0,0.0,0.0,0.0,0.0,0.0,0.0,0.0,0.0,0.0,0.0,0.0,0.0,0.0,0.0,0.0,0.0,0.0,0.0,0.0,0.0,0.0,0.0,0.0,0.0,0.0,0.0,0.0,0.0,0.0,0.0,0.0,0.0,0.0,0.0,0.0,0.0,0.0,0.0,0.0,0.0,0.0,0.0,0.0,0.0,0.0,0.0,0.0,0.0,0.0,0.0,0.0,0.0,0.0,0.0,0.0,0.0,0.0,0.0,0.0,0.0,0.0,0.0,0.0,0.0,0.0,0.0,0.0,0.0,0.0,0.0,0.0,0.0,0.0,0.0,0.0,0.0,0.0,0.0,0.0,0.0,0.0,0.0,0.0,0.0,0.0,0.0,0.0,0.0,0.0,0.0,0.0,0.0,0.0,0.0,0.0,0.0,0.0,0.0,0.0,0.0,0.0,0.0,0.0,0.0,0.0,0.0,0.0,0.0,0.0,0.0,0.0,0.0,0.0,0.0,0.0,0.0,0.0,0.0,0.0,0.0,0.0,0.0,0.0,0.0,0.0,0.0,0.0,0.0,0.0,0.0,0.0,0.0,0.0,0.0,0.0,0.0,0.0,0.0,0.0,0.0,0.0,0.0,0.0,0.0,0.0,0.0,0.0,0.0,0.0,0.0,0.0,0.0,0.0,0.0,0.0,0.0,0.0,0.0,0.0,0.0,0.0,0.0,0.0,0.0,0.0,0.0,0.0,0.0,0.0,0.0,0.0,0.0,0.0,0.0,0.0,0.0,0.0,0.0,0.0,0.0,0.0,0.0,0.0,0.0,0.0,0.0,0.0,0.0,0.0,0.0,0.0,0.0,0.0,0.0,0.0,0.0,0.0,0.0,0.0,0.0,0.0,0.0,0.0,0.0,0.0,0.0,0.0,0.0,0.0,0.0,0.0,0.0,0.0,0.0,0.0,0.0,0.0,0.0,0.0,0.0,0.0,0.0,0.0,0.0,0.0,0.0,0.0,0.0,0.0,0.0,0.0,0.0,0.0,0.0,0.0,0.0,0.0,0.0,0.0,0.0,0.0,0.0,0.0,0.0,0.0,0.0,0.0,0.0,0.0,0.0,0.0,0.0,0.0,0.0,0.0,0.0,0.0,0.0,0.0,0.0,0.0,0.0,0.0,0.0,0.0,0.0,0.0,0.0,0.0,0.0,0.0,0.0,0.0,0.0,0.0,0.0,0.0,0.0,0.0,0.0,0.0,0.0,0.0,0.0,0.0,0.0,0.0,0.0,0.0,0.0,0.0,0.0,0.0,0.0,0.0,0.0,0.0,0.0,0.0,0.0,0.0,0.0,0.0,0.0,0.0,0.0,0.0,0.0,0.0,0.0,0.0,0.0,0.0,0.0,0.0,0.0,0.0,0.0,0.0,0.0,0.0,0.0,0.0,0.0,0.0,0.0,0.0,0.0,0.0,0.0,0.0,0.0,0.0,0.0,0.0,0.0,0.0,0.0,0.0,0.0,0.0,0.0,0.0,0.0,0.0,0.0,0.0,0.0,0.0,0.0,0.0,0.0,0.0,0.0,0.0,0.0,0.0,0.0,0.0,0.0,0.0,0.0,0.0,0.0,0.0,0.0,0.0,0.0,0.0,0.0,0.0,0.0,0.0,0.0,0.0,0.0,0.0,0.0,0.0,0.0,0.0,0.0,0.0,0.0,0.0,0.0,0.0,0.0,0.0,0.0,0.0,0.0,0.0,0.0,0.0,0.0,0.0,0.0,0.0,0.0,0.0,0.0,0.0,0.0,0.0,0.0,0.0,0.0,0.0,0.0,0.0,0.0,0.0,0.0,0.0,0.0,0.0,0.0,0.0,0.0,0.0,0.0,0.0,0.0,0.0,0.0,0.0,0.0,0.0,0.0,0.0,0.0,0.0,0.0,0.0,0.0,0.0,0.0,0.0,0.0,0.0,0.0,0.0,0.0,0.0,0.0,0.0,0.0,0.0,0.0,0.0,0.0,0.0,0.0,0.0,0.0,0.0,0.0,0.0,0.0,0.0,0.0,0.0,0.0,0.0,0.0,0.0,0.0,0.0,0.0,0.0,0.0,0.0,0.0,0.0,0.0,0.0,0.0,0.0,0.0,0.0,0.0,0.0,0.0,0.0,0.0,0.0,0.0,0.0,0.0,0.0,0.0,0.0,0.0,0.0,0.0,0.0,0.0,0.0,0.0,0.0,0.0,0.0,0.0,0.0,0.0,0.0,0.0,0.0,0.0,0.0,0.0,0.0,0.0,0.0,0.0,0.0,0.0,0.0,0.0,0.0,0.0,0.0,0.0,0.0,0.0,0.0,0.0,0.0,0.0,0.0,0.0,0.0,0.0,0.0,0.0,0.0,0.0,0.0,0.0,0.0,0.0,0.0,0.0,0.0,0.0,0.0,0.0,0.0,0.0,0.0,0.0,0.0,0.0,0.0,0.0,0.0,0.0,0.0,0.0,0.0,0.0,0.0,0.0,0.0,0.0,0.0,0.0,0.0,0.0,0.0,0.0,0.0,0.0,0.0,0.0,0.0,0.0,0.0,0.0,0.0,0.0,0.0,0.0,0.0,0.0,0.0,0.0,0.0,0.0,0.0,0.0,0.0,0.0,0.0,0.0,0.0,0.0,0.0,0.0,0.0,0.0,0.0,0.0,0.0,0.0,0.0,0.0,0.0,0.0,0.0,0.0,0.0,0.0,0.0,0.0,0.0,0.0,0.0,0.0,0.0,0.0,0.0,0.0,0.0,0.0,0.0,0.0,0.0,0.0,0.0,0.0,0.0,0.0,0.0,0.0,0.0,0.0,0.0,0.0,0.0,0.0,0.0,0.0,0.0,0.0,0.0,0.0,0.0,0.0,0.0,0.0,0.0,0.0,0.0,0.0,0.0,0.0,0.0,0.0,0.0,0.0,0.0,0.0,0.0,0.0,0.0,0.0,0.0,0.0,0.0,0.0,0.0,0.0,0.0,0.0,0.0,0.0,0.0,0.0,0.0,0.0,0.0,0.0,0.0,0.0,0.0,0.0,0.0,0.0,0.0,0.0,0.0,0.0,0.0,0.0,0.0,0.0,0.0,0.0,0.0,0.0,0.0,0.0,0.0,0.0,0.0,0.0,0.0,0.0,0.0,0.0,0.0,0.0,0.0,0.0,0.0,0.0,0.0,0.0,0.0,0.0,0.0,0.0,0.0,0.0,0.0,0.0,0.0,0.0,0.0,0.0,0.0,0.0,0.0,0.0,0.0,0.0,0.0,0.0,0.0,0.0,0.0,0.0,0.0,0.0,0.0,0.0,0.0,0.0,0.0,0.0,0.0,0.0,0.0,0.0,0.0,0.0,0.0,0.0,0.0,0.0,0.0,0.0,0.0,0.0,0.0,0.0,0.0,0.0,0.0,0.0,0.0,0.0,0.0,0.0,0.0,0.0,0.0,0.0,0.0,0.0,0.0,0.0,0.0,0.0,0.0,0.0,0.0,0.0,0.0,0.0,1.935,0.0,0.0,0.0,0.0,0.0,0.0,0.0,0.0,0.0,0.0,0.0,0.0,0.0,0.0,0.0,0.0,0.0,0.0,0.0,0.0,0.0,0.0,0.0,0.0,0.0,0.0,0.0,0.0,0.0,0.0,0.0,0.0,0.0,0.0,0.0,0.0,0.0,0.0,0.0,0.0,0.0,0.0,0.0,0.0,0.0,0.0,0.0,0.0,0.0,0.0,0.0,0.0,0.0,0.0,0.0,0.0,0.0,0.0,0.0,0.0,0.0,0.0,0.0,0.0,0.0,0.0,0.0,0.0,0.0,0.0,0.0,0.0,0.0,0.0,0.0,0.0,0.0,0.0,0.0,0.0,0.0,0.0,0.0,0.0,0.0,0.0,0.0,0.0,0.0,0.0,0.0,0.0,0.0,0.0,0.0,0.0,0.0,0.0,0.0,0.0,0.0,0.0,0.0,0.0,0.0,0.0,0.0,0.0,0.0,0.0,1.9483,1.949,1.9252,1.9392,2.0061,0.0,0.0,0.0,0.0,0.0,0.0,0.0,0.0,0.0,0.0,0.0,0.0,0.0,0.0,0.0,0.0,0.0,0.0,0.0,0.0,0.0,0.0,0.0,0.0,0.0,0.0,0.0,0.0,0.0,0.0,0.0,0.0,0.0,0.0,0.0,0.0,0.0,0.0,0.0,0.0,0.0,0.0,0.0,0.0,0.0,0.0,0.0,0.0,0.0,0.0,0.0,0.0,0.0,0.0,0.0,0.0,0.0,0.0,0.0,0.0,0.0,0.0,0.0,0.0,0.0,0.0,0.0,0.0,0.0,0.0,0.0,0.0,0.0,0.0,0.0,0.0,0.0,0.0,0.0,0.0,0.0,0.0,0.0,0.0,0.0,0.0,0.0,0.0,0.0,0.0,0.0,0.0,0.0,0.0,0.0,0.0,0.0,0.0,0.0,0.0,0.0,0.0,0.0,0.0,0.0,0.0,0.0,0.0,0.0,0.0,0.0,0.0,1.9515,1.9983,2.1348,0.0,0.0,0.0,0.0,0.0,0.0,0.0,0.0,0.0,0.0,0.0,0.0,0.0,0.0,0.0,0.0,0.0,0.0,0.0,0.0,0.0,0.0,0.0,0.0,0.0,0.0,0.0,0.0,0.0,0.0,0.0,0.0,0.0,0.0,0.0,0.0,0.0,0.0,0.0,0.0,0.0,0.0,0.0,0.0,0.0,0.0,0.0,0.0,0.0,0.0,0.0,0.0,0.0,0.0,0.0,0.0,0.0,0.0,0.0,0.0,0.0,0.0,0.0,0.0,0.0,0.0,0.0,0.0,0.0,0.0,0.0,0.0,0.0,0.0,0.0,0.0,0.0,0.0,0.0,0.0,0.0,0.0,0.0,0.0,0.0,0.0,0.0,0.0,0.0,0.0,0.0,0.0,0.0,0.0,0.0,0.0,0.0,0.0,0.0,0.0,0.0,0.0,0.0,0.0,0.0,0.0,0.0,0.0,0.0,0.0,1.9998,2.0586,2.0293,0.0,2.3747,0.0,0.0,0.0,0.0,0.0,0.0,0.0,0.0,0.0,0.0,0.0,0.0,0.0,0.0,0.0,0.0,0.0,0.0,0.0,0.0,0.0,0.0,0.0,0.0,0.0,0.0,0.0,0.0,0.0,0.0,0.0,0.0,0.0,0.0,0.0,0.0,0.0,0.0,0.0,0.0,0.0,0.0,0.0,0.0,0.0,0.0,0.0,0.0,0.0,0.0,0.0,0.0,0.0,0.0,0.0,0.0,0.0,0.0,0.0,0.0,0.0,0.0,0.0,0.0,0.0,0.0,0.0,0.0,0.0,0.0,0.0,0.0,0.0,0.0,0.0,0.0,0.0,0.0,0.0,0.0,0.0,0.0,0.0,0.0,0.0,0.0,0.0,0.0,0.0,0.0,0.0,0.0,0.0,0.0,0.0,0.0,0.0,0.0,0.0,0.0,0.0,0.0,0.0,0.0,0.0,0.0,0.0,0.0,0.0,0.0,2.0949,2.105,2.1827,2.3067,0.0,0.0,0.0,0.0,0.0,0.0,0.0,0.0,0.0,0.0,0.0,0.0,0.0,0.0,0.0,0.0,0.0,0.0,0.0,0.0,0.0,0.0,0.0,0.0,0.0,0.0,0.0,0.0,0.0,0.0,0.0,0.0,0.0,0.0,0.0,0.0,0.0,0.0,0.0,0.0,0.0,0.0,0.0,0.0,0.0,0.0,0.0,0.0,0.0,0.0,0.0,0.0,0.0,0.0,0.0,0.0,0.0,0.0,0.0,0.0,0.0,0.0,0.0,0.0,0.0,0.0,0.0,0.0,0.0,0.0,0.0,0.0,0.0,0.0,0.0,0.0,0.0,0.0,0.0,0.0,0.0,0.0,0.0,0.0,0.0,0.0,0.0,0.0,0.0,0.0,0.0,0.0,0.0,0.0,0.0,0.0,0.0,0.0,0.0,0.0,0.0,0.0,0.0,0.0,0.0,0.0,0.0,0.0,0.0,0.0,2.1675,2.1814,2.1984,2.3326,2.459,2.5622,0.0,0.0,0.0,0.0,0.0,0.0,0.0,0.0,0.0,0.0,0.0,0.0,0.0,0.0,0.0,0.0,0.0,0.0,0.0,0.0,0.0,0.0,0.0,0.0,0.0,0.0,0.0,0.0,0.0,0.0,0.0,0.0,0.0,0.0,0.0,0.0,0.0,0.0,0.0,0.0,0.0,0.0,0.0,0.0,0.0,0.0,0.0,0.0,0.0,0.0,0.0,0.0,0.0,0.0,0.0,0.0,0.0,0.0,0.0,0.0,0.0,0.0,0.0,0.0,0.0,0.0,0.0,0.0,0.0,0.0,0.0,0.0,0.0,0.0,0.0,0.0,0.0,0.0,0.0,0.0,0.0,0.0,0.0,0.0,0.0,0.0,0.0,0.0,0.0,0.0,0.0,0.0,0.0,0.0,0.0,0.0,0.0,0.0,0.0,0.0,0.0,0.0,0.0,0.0,0.0,0.0,0.0,0.0,2.1734,2.1922,2.245,2.3339,2.4652,2.5695,0.0,0.0,0.0,0.0,0.0,0.0,0.0,0.0,0.0,0.0,0.0,0.0,0.0,0.0,0.0,0.0,0.0,0.0,0.0,0.0,0.0,0.0,0.0,0.0,0.0,0.0,0.0,0.0,0.0,0.0,0.0,0.0,0.0,0.0,0.0,0.0,0.0,0.0,0.0,0.0,0.0,0.0,0.0,0.0,0.0,0.0,0.0,0.0,0.0,0.0,0.0,0.0,0.0,0.0,0.0,0.0,0.0,0.0,0.0,0.0,0.0,0.0,0.0,0.0,0.0,0.0,0.0,0.0,0.0,0.0,0.0,0.0,0.0,0.0,0.0,0.0,0.0,0.0,0.0,0.0,0.0,0.0,0.0,0.0,0.0,0.0,0.0,0.0,0.0,0.0,0.0,0.0,0.0,0.0,0.0,0.0,0.0,0.0,0.0,0.0,0.0,0.0,0.0,0.0,0.0,0.0,0.0,0.0,0.0,2.3254,2.3315,2.3529,2.3887,2.4913,2.5819,0.0,0.0,0.0,0.0,0.0,0.0,0.0,0.0,0.0,0.0,0.0,0.0,0.0,0.0,0.0,0.0,0.0,0.0,0.0,0.0,0.0,0.0,0.0,0.0,0.0,0.0,0.0,0.0,0.0,0.0,0.0,0.0,0.0,0.0,0.0,0.0,0.0,0.0,0.0,0.0,0.0,0.0,0.0,0.0,0.0,0.0,0.0,0.0,0.0,0.0,0.0,0.0,0.0,0.0,0.0,0.0,0.0,0.0,0.0,0.0,0.0,0.0,0.0,0.0,0.0,0.0,0.0,0.0,0.0,0.0,0.0,0.0,0.0,0.0,0.0,0.0,0.0,0.0,0.0,0.0,0.0,0.0,0.0,0.0,0.0,0.0,0.0,0.0,0.0,0.0,0.0,0.0,0.0,0.0,0.0,0.0,0.0,0.0,0.0,0.0,0.0,0.0,0.0,0.0,0.0,0.0,0.0,0.0,0.0,2.4625,0.0,2.4297,2.4461,2.5173,2.5982,0.0,0.0,0.0,0.0,0.0,0.0,0.0,0.0,0.0,0.0,0.0,0.0,0.0,0.0,0.0,0.0,0.0,0.0,0.0,0.0,0.0,0.0,0.0,0.0,0.0,0.0,0.0,0.0,0.0,0.0,0.0,0.0,0.0,0.0,0.0,0.0,0.0,0.0,0.0,0.0,0.0,0.0,0.0,0.0,0.0,0.0,0.0,0.0,0.0,0.0,0.0,0.0,0.0,0.0,0.0,0.0,0.0,0.0,0.0,0.0,0.0,0.0,0.0,0.0,0.0,0.0,0.0,0.0,0.0,0.0,0.0,0.0,0.0,0.0,0.0,0.0,0.0,0.0,0.0,0.0,0.0,0.0,0.0,0.0,0.0,0.0,0.0,0.0,0.0,0.0,0.0,0.0,0.0,0.0,0.0,0.0,0.0,0.0,0.0,0.0,0.0,0.0,0.0,0.0,0.0,0.0,0.0,0.0,2.5895,2.5686,2.4989,2.4892,2.524,2.5668,2.6296,0.0,0.0,0.0,0.0,0.0,0.0,0.0,0.0,0.0,0.0,0.0,0.0,0.0,0.0,0.0,0.0,0.0,0.0,0.0,0.0,0.0,0.0,0.0,0.0,0.0,0.0,0.0,0.0,0.0,0.0,0.0,0.0,0.0,0.0,0.0,0.0,0.0,0.0,0.0,0.0,0.0,0.0,0.0,0.0,0.0,0.0,0.0,0.0,0.0,0.0,0.0,0.0,0.0,0.0,0.0,0.0,0.0,0.0,0.0,0.0,0.0,0.0,0.0,0.0,0.0,0.0,0.0,0.0,0.0,0.0,0.0,0.0,0.0,0.0,0.0,0.0,0.0,0.0,0.0,0.0,0.0,0.0,0.0,0.0,0.0,0.0,0.0,0.0,0.0,0.0,0.0,0.0,0.0,0.0,0.0,0.0,0.0,0.0,0.0,0.0,0.0,0.0,0.0,0.0,0.0,0.0,0.0,0.0,0.0,2.6203,2.709,2.764,2.7762,2.7526,2.7793,0.0,0.0,0.0,0.0,0.0,0.0,0.0,0.0,0.0,0.0,0.0,0.0,0.0,0.0,0.0,0.0,0.0,0.0,0.0,0.0,0.0,0.0,0.0,0.0,0.0,0.0,0.0,0.0,0.0,0.0,0.0,0.0,0.0,0.0,0.0,0.0,0.0,0.0,0.0,0.0,0.0,0.0,0.0,0.0,0.0,0.0,0.0,0.0,0.0,0.0,0.0,0.0,0.0,0.0,0.0,0.0,0.0,0.0,0.0,0.0,0.0,0.0,0.0,0.0,0.0,0.0,0.0,0.0,0.0,0.0,0.0,0.0,0.0,0.0,0.0,0.0,0.0,0.0,0.0,0.0,0.0,0.0,0.0,0.0,0.0,0.0,0.0,0.0,0.0,0.0,0.0,0.0,0.0,0.0,0.0,0.0,0.0,0.0,0.0,0.0,0.0,0.0,0.0,0.0,0.0,0.0,0.0,0.0,0.0,2.9144,2.9389,2.963,2.9648,2.917,2.9376,3.0309,0.0,0.0,0.0,0.0,0.0,0.0,0.0,0.0,0.0,0.0,0.0,0.0,0.0,0.0,0.0,0.0,0.0,0.0,0.0,0.0,0.0,0.0,0.0,0.0,0.0,0.0,0.0,0.0,0.0,0.0,0.0,0.0,0.0,0.0,0.0,0.0,0.0,0.0,0.0,0.0,0.0,0.0,0.0,0.0,0.0,0.0,0.0,0.0,0.0,0.0,0.0,0.0,0.0,0.0,0.0,0.0,0.0,0.0,0.0,0.0,0.0,0.0,0.0,0.0,0.0,0.0,0.0,0.0,0.0,0.0,0.0,0.0,0.0,0.0,0.0,0.0,0.0,0.0,0.0,0.0,0.0,0.0,0.0,0.0,0.0,0.0,0.0,0.0,0.0,0.0,0.0,0.0,0.0,0.0,0.0,0.0,0.0,0.0,0.0,0.0,0.0,0.0,0.0,0.0,0.0,0.0,0.0,0.0,3.3953,3.2117,3.1203,3.1237,3.0861,3.1134,0.0,0.0,0.0,0.0,0.0,0.0,0.0,0.0,0.0,0.0,0.0,0.0,0.0,0.0,0.0,0.0,0.0,0.0,0.0,0.0,0.0,0.0,0.0,0.0,0.0,0.0,0.0,0.0,0.0,0.0,0.0,0.0,0.0,0.0,0.0,0.0,0.0,0.0,0.0,0.0,0.0,0.0,0.0,0.0,0.0,0.0,0.0,0.0,0.0,0.0,0.0,0.0,0.0,0.0,0.0,0.0,0.0,0.0,0.0,0.0,0.0,0.0,0.0,0.0,0.0,0.0,0.0,0.0,0.0,0.0,0.0,0.0,0.0,0.0,0.0,0.0,0.0,0.0,0.0,0.0,0.0,0.0,0.0,0.0,0.0,0.0,0.0,0.0,0.0,0.0,0.0,0.0,0.0,0.0,0.0,0.0,0.0,0.0,0.0,0.0,0.0,0.0,0.0,0.0,0.0,0.0,0.0,0.0,0.0,3.7259,3.7603,3.6865,3.5026,3.454,3.4191,0.0,0.0,0.0,0.0,0.0,0.0,0.0,0.0,0.0,0.0,0.0,0.0,0.0,0.0,0.0,0.0,0.0,0.0,0.0,0.0,0.0,0.0,0.0,0.0,0.0,0.0,0.0,0.0,0.0,0.0,0.0,0.0,0.0,0.0,0.0,0.0,0.0,0.0,0.0,0.0,0.0,0.0,0.0,0.0,0.0,0.0,0.0,0.0,0.0,0.0,0.0,0.0,0.0,0.0,0.0,0.0,0.0,0.0,0.0,0.0,0.0,0.0,0.0,0.0,0.0,0.0,0.0,0.0,0.0,0.0,0.0,0.0,0.0,0.0,0.0,0.0,0.0,0.0,0.0,0.0,0.0,0.0,0.0,0.0,0.0,0.0,0.0,0.0,0.0,0.0,0.0,0.0,0.0,0.0,0.0,0.0,0.0,0.0,0.0,0.0,0.0,0.0,0.0,0.0,0.0,0.0,0.0,0.0,3.9028,3.9753,4.1146,4.1069,3.9258,3.7647,3.6753,0.0,0.0,0.0,0.0,0.0,0.0,0.0,0.0,0.0,0.0,0.0,0.0,0.0,0.0,0.0,0.0,0.0,0.0,0.0,0.0,0.0,0.0,0.0,0.0,0.0,0.0,0.0,0.0,0.0,0.0,0.0,0.0,0.0,0.0,0.0,0.0,0.0,0.0,0.0,0.0,0.0,0.0,0.0,0.0,0.0,0.0,0.0,0.0,0.0,0.0,0.0,0.0,0.0,0.0,0.0,0.0,0.0,0.0,0.0,0.0,0.0,0.0,0.0,0.0,0.0,0.0,0.0,0.0,0.0,0.0,0.0,0.0,0.0,0.0,0.0,0.0,0.0,0.0,0.0,0.0,0.0,0.0,0.0,0.0,0.0,0.0,0.0,0.0,0.0,0.0,0.0,0.0,0.0,0.0,0.0,0.0,0.0,0.0,0.0,0.0,0.0,0.0,0.0,0.0,0.0,0.0,0.0,0.0,4.0307,4.1888,4.3532,4.4115,4.3448,4.0439,3.9095,0.0,0.0,0.0,0.0,0.0,0.0,0.0,0.0,0.0,0.0,0.0,0.0,0.0,0.0,0.0,0.0,0.0,0.0,0.0,0.0,0.0,0.0,0.0,0.0,0.0,0.0,0.0,0.0,0.0,0.0,0.0,0.0,0.0,0.0,0.0,0.0,0.0,0.0,0.0,0.0,0.0,0.0,0.0,0.0,0.0,0.0,0.0,0.0,0.0,0.0,0.0,0.0,0.0,0.0,0.0,0.0,0.0,0.0,0.0,0.0,0.0,0.0,0.0,0.0,0.0,0.0,0.0,0.0,0.0,0.0,0.0,0.0,0.0,0.0,0.0,0.0,0.0,0.0,0.0,0.0,0.0,0.0,0.0,0.0,0.0,0.0,0.0,0.0,0.0,0.0,0.0,0.0,0.0,0.0,0.0,0.0,0.0,0.0,0.0,0.0,0.0,0.0,0.0,0.0,0.0,0.0,0.0,0.0,4.3474,4.4471,4.561,4.6151,4.6008,4.3483,4.1665,0.0,0.0,0.0,0.0,0.0,0.0,0.0,0.0,0.0,0.0,0.0,0.0,0.0,0.0,0.0,0.0,0.0,0.0,0.0,0.0,0.0,0.0,0.0,0.0,0.0,0.0,0.0,0.0,0.0,0.0,0.0,0.0,0.0,0.0,0.0,0.0,0.0,0.0,0.0,0.0,0.0,0.0,0.0,0.0,0.0,0.0,0.0,0.0,2.2529,0.0,0.0,0.0,0.0,0.0,0.0,0.0,0.0,0.0,0.0,0.0,0.0,0.0,0.0,0.0,0.0,0.0,0.0,0.0,0.0,0.0,0.0,0.0,0.0,0.0,0.0,0.0,0.0,0.0,0.0,0.0,0.0,0.0,0.0,0.0,0.0,0.0,0.0,0.0,0.0,0.0,0.0,0.0,0.0,0.0,0.0,0.0,0.0,0.0,0.0,0.0,0.0,0.0,0.0,0.0,0.0,0.0,0.0,0.0,4.5198,4.608,4.7358,4.8235,4.859,4.6032,4.3633,0.0,0.0,0.0,0.0,0.0,0.0,0.0,0.0,0.0,0.0,0.0,0.0,0.0,0.0,0.0,0.0,0.0,0.0,0.0,0.0,0.0,0.0,0.0,0.0,0.0,0.0,0.0,0.0,0.0,0.0,0.0,0.0,0.0,0.0,0.0,0.0,0.0,0.0,0.0,0.0,0.0,0.0,0.0,0.0,0.0,0.0,0.0,0.0,0.0,0.0,0.0,0.0,0.0,0.0,0.0,0.0,0.0,0.0,0.0,0.0,0.0,0.0,0.0,0.0,0.0,0.0,0.0,0.0,0.0,0.0,0.0,0.0,0.0,0.0,0.0,0.0,0.0,0.0,0.0,0.0,0.0,0.0,0.0,0.0,0.0,0.0,0.0,0.0,0.0,0.0,0.0,0.0,0.0,0.0,0.0,0.0,0.0,0.0,0.0,0.0,0.0,0.0,0.0,0.0,0.0,0.0,0.0,4.4417,4.6422,4.7555,4.8888,5.0068,5.1011,4.8266,4.5623,4.3243,0.0,0.0,0.0,0.0,0.0,0.0,0.0,0.0,0.0,0.0,0.0,0.0,0.0,0.0,0.0,0.0,0.0,0.0,0.0,0.0,0.0,0.0,0.0,0.0,0.0,0.0,0.0,0.0,0.0,0.0,0.0,0.0,0.0,0.0,0.0,0.0,0.0,0.0,2.2052,2.3885,0.0,0.0,0.0,0.0,0.0,0.0,0.0,0.0,2.2808,0.0,0.0,0.0,0.0,0.0,0.0,0.0,0.0,0.0,0.0,0.0,0.0,0.0,0.0,0.0,0.0,0.0,0.0,0.0,0.0,0.0,0.0,0.0,0.0,0.0,0.0,0.0,0.0,0.0,0.0,0.0,0.0,0.0,0.0,0.0,0.0,0.0,0.0,0.0,0.0,0.0,0.0,0.0,0.0,0.0,0.0,0.0,0.0,0.0,0.0,0.0,0.0,0.0,0.0,0.0,0.0,4.5772,4.7003,4.8414,5.0032,5.0355,5.0928,5.1814,5.0088,4.836,4.6636,0.0,0.0,0.0,0.0,0.0,0.0,0.0,0.0,0.0,0.0,0.0,0.0,0.0,0.0,0.0,0.0,0.0,0.0,0.0,0.0,0.0,0.0,0.0,0.0,0.0,0.0,0.0,0.0,0.0,0.0,0.0,0.0,0.0,0.0,0.0,0.0,0.0,0.0,0.0,2.5476,2.6405,0.0,0.0,0.0,0.0,0.0,0.0,0.0,0.0,2.6848,0.0,0.0,0.0,0.0,0.0,0.0,0.0,0.0,0.0,0.0,0.0,0.0,0.0,0.0,0.0,0.0,0.0,0.0,0.0,0.0,0.0,0.0,0.0,0.0,0.0,0.0,0.0,0.0,0.0,0.0,0.0,0.0,0.0,0.0,0.0,0.0,0.0,0.0,0.0,0.0,0.0,0.0,0.0,0.0,0.0,0.0,0.0,0.0,0.0,0.0,0.0,0.0,0.0,0.0,0.0,4.687,4.8473,4.9745,5.0665,5.1167,5.209,5.3327,5.1151,4.9775,0.0,0.0,0.0,0.0,0.0,0.0,0.0,0.0,0.0,0.0,0.0,0.0,0.0,0.0,0.0,0.0,0.0,0.0,0.0,0.0,0.0,0.0,0.0,0.0,0.0,0.0,0.0,0.0,0.0,0.0,0.0,0.0,0.0,0.0,0.0,0.0,0.0,0.0,0.0,0.0,2.6971,2.7623,2.7657,0.0,0.0,0.0,0.0,0.0,0.0,2.8463,2.8611,0.0,0.0,0.0,0.0,0.0,0.0,0.0,0.0,0.0,0.0,0.0,0.0,0.0,0.0,0.0,0.0,0.0,0.0,0.0,0.0,0.0,0.0,0.0,0.0,0.0,0.0,0.0,0.0,0.0,0.0,0.0,0.0,0.0,0.0,0.0,0.0,0.0,0.0,0.0,0.0,0.0,0.0,0.0,0.0,0.0,0.0,0.0,0.0,0.0,0.0,0.0,0.0,0.0,0.0,0.0,4.7486,4.9436,5.0746,5.1382,5.1862,5.3074,5.5012,5.2205,5.0898,0.0,0.0,0.0,0.0,0.0,0.0,0.0,0.0,0.0,0.0,0.0,0.0,0.0,0.0,0.0,0.0,0.0,0.0,0.0,0.0,0.0,0.0,0.0,0.0,0.0,0.0,0.0,0.0,0.0,0.0,0.0,0.0,0.0,0.0,0.0,0.0,0.0,0.0,0.0,0.0,0.0,2.9135,2.8823,2.9722,0.0,0.0,0.0,0.0,3.0045,3.0588,0.0,0.0,0.0,0.0,0.0,0.0,0.0,0.0,0.0,0.0,0.0,0.0,0.0,0.0,0.0,0.0,0.0,0.0,0.0,0.0,0.0,0.0,0.0,0.0,0.0,0.0,0.0,0.0,0.0,0.0,0.0,0.0,0.0,0.0,0.0,0.0,0.0,0.0,0.0,0.0,0.0,0.0,0.0,0.0,0.0,0.0,0.0,0.0,0.0,0.0,0.0,0.0,0.0,0.0,0.0,0.0,4.896,4.9885,5.1444,5.3614,5.2676,5.3566,5.6562,5.3821,5.2263,0.0,0.0,0.0,0.0,0.0,0.0,0.0,0.0,0.0,0.0,0.0,0.0,0.0,0.0,0.0,0.0,0.0,0.0,0.0,0.0,0.0,0.0,0.0,0.0,0.0,0.0,0.0,0.0,0.0,0.0,0.0,0.0,0.0,0.0,0.0,0.0,0.0,0.0,0.0,0.0,0.0,3.1336,3.3166,3.3555,3.3558,0.0,0.0,3.4291,3.4272,3.5791,0.0,0.0,0.0,0.0,0.0,0.0,0.0,0.0,0.0,0.0,0.0,0.0,0.0,0.0,0.0,0.0,0.0,0.0,0.0,0.0,0.0,0.0,0.0,0.0,0.0,0.0,0.0,0.0,0.0,0.0,0.0,0.0,0.0,0.0,0.0,0.0,0.0,0.0,0.0,0.0,0.0,0.0,0.0,0.0,0.0,0.0,0.0,0.0,0.0,0.0,0.0,0.0,0.0,0.0,0.0,4.8734,5.0019,5.2037,5.3431,5.4021,5.3567,5.446,5.6819,5.3965,5.2446,0.0,0.0,0.0,0.0,0.0,0.0,0.0,0.0,0.0,0.0,0.0,0.0,0.0,0.0,0.0,0.0,0.0,0.0,0.0,0.0,0.0,0.0,0.0,0.0,0.0,0.0,0.0,0.0,0.0,0.0,0.0,0.0,0.0,0.0,0.0,0.0,0.0,0.0,0.0,0.0,0.0,0.0,3.4301,3.5464,0.0,0.0,0.0,3.691,3.6928,0.0,0.0,0.0,0.0,0.0,0.0,0.0,0.0,0.0,0.0,0.0,0.0,0.0,0.0,0.0,0.0,0.0,0.0,0.0,0.0,0.0,0.0,0.0,0.0,0.0,0.0,0.0,0.0,0.0,0.0,0.0,0.0,0.0,0.0,0.0,0.0,0.0,0.0,0.0,0.0,0.0,0.0,0.0,0.0,0.0,0.0,0.0,0.0,0.0,0.0,0.0,0.0,0.0,0.0,0.0,0.0,0.0,5.1137,5.3586,5.4978,5.5156,5.4503,5.5232,5.7231,5.4083,0.0,0.0,0.0,0.0,0.0,0.0,0.0,0.0,0.0,0.0,0.0,0.0,0.0,0.0,0.0,0.0,0.0,0.0,0.0,0.0,0.0,0.0,0.0,0.0,0.0,0.0,0.0,2.3004,0.0,0.0,0.0,0.0,0.0,0.0,0.0,0.0,0.0,0.0,0.0,0.0,0.0,0.0,3.5929,3.5999,3.7682,3.8679,0.0,0.0,3.9544,3.9139,3.8739,3.8553,0.0,0.0,0.0,0.0,0.0,0.0,0.0,0.0,0.0,0.0,0.0,0.0,0.0,0.0,0.0,0.0,0.0,0.0,0.0,0.0,0.0,0.0,0.0,0.0,0.0,0.0,0.0,0.0,0.0,0.0,0.0,0.0,0.0,0.0,0.0,0.0,0.0,0.0,0.0,0.0,0.0,0.0,0.0,0.0,0.0,0.0,0.0,0.0,0.0,0.0,0.0,0.0,0.0,0.0,0.0,5.2684,5.3622,5.5499,5.8153,5.5647,5.5757,5.8835,5.466,5.2654,0.0,0.0,0.0,0.0,0.0,0.0,0.0,0.0,0.0,0.0,0.0,0.0,0.0,0.0,0.0,0.0,0.0,0.0,0.0,0.0,0.0,0.0,0.0,0.0,0.0,0.0,0.0,0.0,0.0,0.0,0.0,0.0,0.0,0.0,0.0,0.0,0.0,0.0,0.0,0.0,0.0,3.9833,3.9839,4.1064,4.1972,0.0,0.0,4.2616,4.1218,4.3073,4.3497,3.9999,0.0,0.0,0.0,0.0,0.0,0.0,0.0,0.0,0.0,0.0,0.0,0.0,0.0,0.0,0.0,0.0,0.0,0.0,0.0,0.0,0.0,0.0,0.0,0.0,0.0,0.0,0.0,0.0,0.0,0.0,0.0,0.0,0.0,0.0,0.0,0.0,0.0,0.0,0.0,0.0,0.0,0.0,0.0,0.0,0.0,0.0,0.0,0.0,0.0,0.0,0.0,0.0,0.0,5.2169,5.3551,5.5763,5.7497,5.8567,5.7553,5.7655,5.9158,5.5543,5.3567,0.0,0.0,0.0,0.0,0.0,0.0,0.0,0.0,0.0,0.0,0.0,0.0,0.0,0.0,0.0,0.0,0.0,0.0,0.0,0.0,0.0,0.0,0.0,0.0,0.0,0.0,0.0,0.0,2.7128,2.7755,2.847,0.0,0.0,0.0,0.0,0.0,0.0,0.0,0.0,0.0,0.0,4.1247,4.1584,4.2859,0.0,0.0,4.4337,4.4438,4.3505,4.3446,4.3127,4.1757,4.1905,0.0,0.0,0.0,0.0,0.0,0.0,0.0,0.0,0.0,0.0,0.0,0.0,0.0,0.0,0.0,0.0,0.0,0.0,0.0,0.0,0.0,0.0,0.0,0.0,0.0,0.0,0.0,0.0,0.0,0.0,0.0,0.0,0.0,0.0,0.0,0.0,0.0,0.0,0.0,0.0,0.0,0.0,0.0,0.0,0.0,0.0,0.0,0.0,0.0,0.0,0.0,0.0,5.3307,5.5049,5.7261,5.8724,5.9402,5.8973,5.8945,5.9376,5.64,5.4524,0.0,0.0,0.0,0.0,0.0,0.0,0.0,0.0,0.0,0.0,0.0,0.0,0.0,0.0,0.0,0.0,0.0,0.0,0.0,0.0,0.0,0.0,0.0,0.0,0.0,0.0,0.0,0.0,2.89,2.9993,3.0962,0.0,0.0,0.0,0.0,0.0,0.0,0.0,0.0,0.0,0.0,4.3499,4.3625,4.4707,4.5504,4.5504,4.5877,4.5978,4.5556,4.4806,4.412,4.3647,0.0,0.0,0.0,0.0,0.0,0.0,0.0,0.0,0.0,0.0,0.0,0.0,0.0,0.0,0.0,0.0,0.0,0.0,0.0,0.0,0.0,0.0,0.0,0.0,0.0,0.0,0.0,0.0,0.0,0.0,2.9049,0.0,0.0,0.0,0.0,0.0,0.0,0.0,0.0,0.0,0.0,0.0,0.0,0.0,0.0,0.0,0.0,0.0,0.0,0.0,0.0,0.0,0.0,0.0,5.7432,5.761,5.8752,6.0915,5.9544,5.9188,5.9939,5.7151,5.5489,5.5252,0.0,0.0,0.0,0.0,0.0,0.0,0.0,0.0,0.0,0.0,0.0,0.0,0.0,0.0,0.0,0.0,0.0,0.0,0.0,0.0,0.0,0.0,0.0,0.0,0.0,0.0,2.9486,3.11,3.2485,0.0,0.0,0.0,0.0,0.0,0.0,0.0,0.0,0.0,0.0,4.6537,4.713,4.6322,4.6861,4.7347,4.7329,4.7381,4.7381,4.7363,4.7881,4.7693,0.0,0.0,0.0,0.0,0.0,0.0,0.0,0.0,0.0,0.0,0.0,0.0,0.0,0.0,0.0,0.0,0.0,0.0,0.0,0.0,0.0,0.0,0.0,0.0,0.0,0.0,0.0,2.9908,3.0795,0.0,0.0,0.0,0.0,0.0,0.0,0.0,0.0,0.0,0.0,0.0,4.1057,4.1395,0.0,0.0,0.0,0.0,0.0,0.0,0.0,0.0,0.0,0.0,0.0,0.0,5.4577,5.7453,5.8096,5.9223,6.1022,6.0579,6.0224,6.0082,5.8132,5.5763,5.2998,0.0,0.0,0.0,0.0,0.0,0.0,0.0,0.0,0.0,0.0,0.0,0.0,0.0,0.0,0.0,0.0,0.0,0.0,0.0,0.0,0.0,0.0,0.0,0.0,0.0,3.0586,0.0,0.0,0.0,0.0,0.0,0.0,0.0,0.0,0.0,0.0,0.0,4.6143,4.6125,4.7457,4.8068,4.7175,4.8483,4.9236,0.0,0.0,0.0,0.0,0.0,0.0,0.0,0.0,0.0,0.0,0.0,0.0,0.0,0.0,4.5156,4.2125,4.1547,4.1418,4.0921,0.0,0.0,0.0,0.0,0.0,0.0,0.0,0.0,0.0,0.0,0.0,0.0,0.0,0.0,0.0,0.0,3.4777,0.0,0.0,0.0,0.0,0.0,0.0,0.0,0.0,4.3107,4.3989,4.4155,4.4508,4.5079,0.0,4.5505,4.5324,0.0,0.0,0.0,0.0,0.0,0.0,0.0,0.0,5.5829,5.7917,5.8724,5.9758,6.1022,6.1093,6.0888,6.0439,5.8687,5.6112,5.2712,5.1332,4.971,0.0,0.0,0.0,0.0,0.0,0.0,0.0,0.0,0.0,0.0,0.0,0.0,0.0,0.0,0.0,0.0,0.0,0.0,0.0,0.0,0.0,0.0,0.0,3.3163,0.0,0.0,0.0,0.0,0.0,0.0,0.0,0.0,0.0,4.6062,4.7136,4.815,4.8566,4.9214,4.9655,4.9686,0.0,0.0,0.0,0.0,0.0,0.0,0.0,5.1543,5.0586,5.0231,5.019,5.0649,5.1849,5.2391,5.1364,0.0,0.0,4.5766,4.5049,4.487,4.4415,4.4838,4.5163,4.4854,4.5114,4.6166,0.0,0.0,0.0,0.0,0.0,0.0,0.0,0.0,3.5565,3.6141,0.0,3.6683,0.0,0.0,0.0,0.0,0.0,0.0,0.0,0.0,4.5258,4.5775,4.6428,4.7154,4.7828,4.836,4.7649,4.8046,4.9471,4.8011,0.0,0.0,0.0,0.0,0.0,0.0,5.7028,5.8638,5.9473,6.0272,6.1058,6.1093,6.1058,6.0915,5.8824,5.6594,5.4389,5.2459,5.0996,5.0156,4.7643,0.0,0.0,0.0,0.0,0.0,0.0,0.0,0.0,0.0,0.0,0.0,0.0,0.0,0.0,0.0,0.0,0.0,0.0,0.0,0.0,3.5531,0.0,0.0,0.0,0.0,0.0,0.0,0.0,0.0,0.0,0.0,4.8541,4.9569,5.0963,5.2389,0.0,0.0,0.0,0.0,5.3067,5.386,5.4132,5.4234,5.4182,5.4731,5.4647,5.3085,0.0,0.0,5.2655,5.4175,5.4895,5.2775,5.3319,5.306,5.027,4.9491,4.9262,4.9212,4.8894,4.8667,4.8398,4.7923,4.8232,4.3488,0.0,0.0,0.0,0.0,3.8818,3.9672,4.1232,3.9893,3.9592,3.9973,3.9234,0.0,0.0,0.0,0.0,0.0,0.0,4.6571,4.6866,4.759,4.8028,4.8273,4.9466,5.0475,5.1282,5.1465,5.1901,5.2438,5.1961,5.1039,4.9757,0.0,0.0,0.0,0.0,5.7126,5.8638,5.9473,6.0272,6.1093,6.1093,6.0558,5.9437,5.8759,5.7275,5.5044,5.3819,5.2536,5.0993,4.8554,0.0,0.0,0.0,0.0,0.0,0.0,0.0,0.0,0.0,0.0,0.0,0.0,0.0,0.0,0.0,0.0,0.0,0.0,0.0,3.7191,3.8289,3.9149,0.0,0.0,0.0,0.0,0.0,0.0,0.0,0.0,0.0,5.317,5.3074,5.3096,0.0,0.0,5.3984,5.3979,5.5142,5.5757,5.497,0.0,0.0,0.0,5.7587,5.7569,5.709,5.6986,5.6739,5.6183,5.7441,5.8234,5.7248,5.743,5.7304,5.6266,5.3166,5.0773,5.0161,5.1039,5.1602,5.0742,5.1003,5.2092,4.9614,4.6526,4.3793,4.3057,4.3628,4.3279,4.3886,4.5054,4.3781,4.3442,4.3699,4.2917,4.2718,4.2985,4.3477,0.0,0.0,0.0,4.9316,4.9682,5.0896,5.1812,5.2403,5.2896,5.3578,5.4368,5.4089,5.4209,5.4715,5.4963,5.4794,5.4128,0.0,0.0,5.5596,5.7055,5.8274,5.9188,5.9972,6.0594,6.1093,6.1093,6.0344,5.8745,5.8688,5.776,5.5727,5.4853,5.3722,5.2267,5.0104,4.8428,0.0,0.0,0.0,0.0,0.0,0.0,0.0,0.0,0.0,0.0,0.0,3.6107,0.0,0.0,0.0,0.0,3.7807,3.9081,3.9876,4.1013,0.0,0.0,0.0,0.0,0.0,0.0,0.0,5.1397,5.3322,5.5094,5.6605,5.6625,5.642,5.6353,5.6388,5.6559,5.6849,0.0,5.8186,5.7672,5.9525,6.0693,5.9924,5.9804,5.9648,5.9199,5.8809,5.8348,5.7839,5.8931,5.9578,5.8979,5.9131,5.9234,5.8497,5.5684,5.3543,5.3286,5.3997,5.4262,5.322,5.3467,5.4276,5.5409,5.4838,4.9609,4.767,4.802,4.8084,4.8086,4.8051,4.7452,4.7488,4.7948,4.7096,4.7459,4.8743,4.8932,0.0,4.9134,5.0934,5.2151,5.2983,5.4514,5.6067,5.7459,5.6722,5.6758,5.7413,5.5943,5.5766,5.6709,5.7391,5.8139,5.8923,5.7455,5.6686,5.6811,5.8795,5.9901,5.9901,6.0701,6.1093,6.1093,6.1093,6.0344,5.8759,5.8688,5.7975,5.6454,5.5582,5.4685,5.3706,5.192,5.0476,4.9408,0.0,0.0,0.0,0.0,0.0,0.0,0.0,0.0,0.0,0.0,0.0,0.0,0.0,0.0,0.0,4.2879,0.0,4.3292,4.392,0.0,0.0,0.0,4.7458,4.9599,5.1363,5.3027,5.441,0.0,0.0,5.8926,0.0,6.0339,6.0197,5.9317,5.9352,6.1081,6.0561,6.0439,6.1081,6.1427,6.1496,6.1478,6.1478,6.1146,6.0186,5.9546,5.9241,5.8746,5.9438,5.9674,5.8822,5.9302,5.9674,5.8141,5.7653,5.7567,5.7825,5.7249,5.6534,5.57,5.5369,5.562,5.7839,5.7718,5.6504,5.459,5.2364,5.1876,5.195,5.24,5.1739,5.0825,4.9803,4.9006,4.8592,4.8567,4.9853,5.0737,5.1382,5.3044,5.4217,5.5007,5.5427,5.6123,5.707,5.7765,5.8302,5.8601,5.9128,5.9903,6.0799,6.0407,6.065,6.1379,6.1028,6.0243,5.9116,5.9616,5.9901,5.9901,6.0701,6.1093,6.1093,6.1093,6.0329,5.8759,5.8688,5.7975,5.6454,5.6177,5.5577,5.4526,5.2382,5.0933,5.0375,4.7875,0.0,0.0,0.0,0.0,0.0,0.0,0.0,0.0,0.0,3.9567,4.0166,0.0,4.0824,0.0,4.4353,4.602,4.6971,4.7809,0.0,0.0,5.0439,5.1381,5.2364,5.3823,5.4924,5.5272,5.7136,5.8772,5.9788,6.1116,6.2151,6.2614,6.151,6.0821,6.1237,6.1667,6.1943,6.2186,6.2668,6.3048,6.2979,6.3048,6.2816,6.2289,6.2105,6.207,6.2135,6.1975,6.1868,6.188,6.1632,6.1116,6.0086,6.0671,6.0913,6.0097,5.864,5.7329,5.6614,5.7574,5.8767,6.112,6.0476,6.0662,5.9185,5.6742,5.6394,5.5883,5.5248,5.5189,5.4092,5.2253,5.1823,5.143,5.1191,5.2102,5.2917,5.3757,5.4955,5.6129,5.7257,5.7617,5.8448,5.9596,5.9794,6.016,6.0804,6.1312,6.1882,6.2496,6.2707,6.3035,6.3428,6.3352,6.2877,6.2006,6.1649,6.145,6.145,6.1557,6.145,6.1093,6.1093,6.0522,5.9295,5.8888,5.8153,5.6954,5.6542,5.5861,5.4906,5.3242,5.1851,5.0805,4.8452,4.7352,0.0,0.0,0.0,0.0,0.0,0.0,0.0,0.0,0.0,0.0,0.0,4.4239,0.0,4.7358,0.0,4.9507,5.0686,5.1662,5.2146,5.337,5.4233,5.4494,5.6267,5.7409,5.7282,5.927,6.0825,6.1203,6.2255,6.3117,6.3531,6.2875,6.2324,6.2358,6.2721,6.2979,6.3032,6.3324,6.36,6.36,6.3526,6.3358,6.3076,6.2923,6.2921,6.3015,6.2956,6.3018,6.3235,6.3215,6.2892,6.2131,6.2414,6.2575,6.1495,6.0391,5.9465,5.8913,5.9491,6.0135,6.4306,6.3047,6.322,6.2357,6.0882,6.1018,5.9622,5.7329,5.8012,5.7149,5.5256,5.5148,5.516,5.5281,5.5294,5.569,5.6387,5.7022,5.8066,5.9434,6.0118,6.1376,6.2953,6.2012,6.2084,6.3134,6.2932,6.2916,6.3155,6.4444,6.5049,6.51,6.491,6.4832,6.4796,6.4133,6.3637,6.3392,6.2679,6.1965,6.1272,6.1165,6.0736,5.9901,5.9116,5.8367,5.761,5.6708,5.5877,5.5117,5.4221,5.2976,5.1351,4.9126,4.8024,0.0,4.6855,0.0,0.0,0.0,0.0,0.0,0.0,0.0,0.0,4.7484,4.8604,4.988,5.0837,5.1427,5.1543,5.3106,5.4124,5.422,5.5595,5.6516,5.658,5.8548,5.9907,5.9714,6.1623,6.2856,6.2535,6.3172,6.3637,6.3618,6.3531,6.3462,6.3565,6.3531,6.3531,6.36,6.36,6.36,6.36,6.347,6.3283,6.3057,6.2885,6.2688,6.2623,6.3091,6.3511,6.368,6.412,6.4255,6.3612,6.3472,6.3303,6.2629,6.2475,6.2185,6.1399,6.105,6.0656,6.4918,6.4717,6.5499,6.4895,6.356,6.4303,6.2737,5.9739,5.9882,5.9716,5.924,5.87,5.8848,5.9439,5.9568,5.968,5.9861,5.9956,6.021,6.0499,6.0644,6.1575,6.3086,6.2831,6.3135,6.3971,6.4372,6.4636,6.4702,6.5607,6.6023,6.6023,6.5992,6.5977,6.5977,0.0,0.0,0.0,6.2679,6.225,6.2072,6.1414,6.0736,5.9937,5.9102,0.0,5.761,5.6708,5.6035,5.5731,5.4847,0.0,0.0,0.0,0.0,0.0,0.0,0.0,0.0,0.0,0.0,0.0,5.0774,4.9746,4.7713,4.9713,5.1268,5.1577,5.2953,5.3886,5.4106,5.5754,5.6939,5.7183,5.793,5.8722,5.9464,6.0291,6.0986,6.1616,6.2457,6.2927,6.2784,6.3353,6.3765,6.3637,6.36,6.36,6.36,6.36,6.36,6.36,6.36,6.36,6.36,6.3581,6.3414,6.3114,6.2981,6.3028,6.317,6.3342,6.3714,6.4208,6.4512,6.4356,6.3714,6.4404,6.4958,6.4248,6.4984,6.4933,6.2094,6.2249,6.2752,6.7935,0.0,6.7882,6.7282,0.0,6.5982,6.4961,6.2881,6.1712,6.099,6.0585,6.0255,6.0535,6.1294,6.1349,6.1593,6.1969,6.1969,6.2186,6.2585,6.2983,6.3382,6.378,6.4022,6.421,6.4303,6.4916,6.5232,6.5393,6.6025,6.6391,6.6427,6.6315,6.6284,6.6284,6.5909,6.5177,6.4159,6.3673,6.3056,6.2322,6.1536,6.0736,5.9901,0.0,0.0,0.0,0.0,0.0,0.0,0.0,0.0,0.0,0.0,0.0,5.1038,5.0775,5.0818,5.1163,5.0813,5.0858,5.1582,5.2086,5.1859,5.0597,5.2287,5.3513,5.3779,5.5164,5.6059,5.6187,5.7495,5.8616,5.9233,5.9929,6.0709,6.1418,6.2047,6.2463,6.2714,6.331,6.3624,6.3482,6.3669,6.3856,6.3747,6.3655,6.36,6.36,6.36,6.36,6.36,6.36,6.36,6.36,6.36,6.347,6.3114,6.3,6.2964,6.2948,6.324,6.3646,6.4038,6.4613,6.4986,6.4783,6.5493,6.6136,6.5865,6.6284,6.6217,6.4132,6.4051,6.4079,7.0987,6.8778,7.0191,6.9445,6.7221,6.7366,6.6837,6.5707,0.0,0.0,0.0,6.1412,6.1955,6.2824,6.2861,6.3309,6.4048,6.4048,6.4337,6.483,6.5337,6.5301,6.4867,6.5192,6.5171,6.4867,6.5315,6.5677,6.583,6.6313,6.6542,6.6527,6.6421,6.6376,6.6325,6.5703,6.5232,6.4967,6.4511,6.3668,6.2397,6.1575,6.0774,5.9959,5.8566,5.7689,5.7356,5.67,5.6245,5.6134,5.5432,5.4697,5.39,5.3029,5.2376,5.199,5.1955,5.2121,5.2518,5.2072,5.1859,5.1983,5.2705,5.3359,5.3863,5.456,5.5233,5.5865,5.7077,5.7779,5.7826,5.8963,6.0037,6.0843,6.1572,6.2309,6.2955,6.3493,6.3732,6.376,6.4147,6.4446,6.4234,6.4074,6.3947,6.3874,6.3747,6.3637,6.3618,6.36,6.36,6.36,6.36,6.36,6.36,6.36,6.3452,6.3152,6.3038,6.2866,6.2659,6.3043,6.3443,6.3545,6.4647,6.5256,6.5493,6.5967,6.6576,6.6588,6.6682,6.6622,6.617,6.5584,6.4943,7.1422,7.1096,7.1986,7.1024,6.8902,6.959,6.8709,6.6671,6.4851,6.3997,6.3889,6.3889,6.4722,6.6134,6.612,6.6569,6.7278,6.7314,6.7003,0.0,6.5881,6.5917,6.6424,6.5852,6.5888,6.6424,6.6539,6.6612,6.6626,6.672,6.6742,6.6742,6.6727,6.6712,6.6712,6.647,6.5947,6.5247,6.3731,6.2852,6.2658,6.1933,6.1085,6.0096,5.9236,5.8415,5.7582,5.6546,5.5979,5.5915,5.5449,5.5108,5.4989,5.47,5.3987,5.2773,5.3774,5.3967,5.2819,5.3763,5.4757,5.5398,5.5622,5.5726,5.58,5.5759,5.6125,5.6998,5.7987,5.8663,5.9014,6.0523,6.1656,6.2022,6.2642,6.3342,6.4168,6.4157,6.4315,6.4814,6.4925,6.4758,6.4411,6.434,6.4181,6.3965,6.3854,6.3765,6.3637,6.36,6.36,6.36,6.36,6.36,6.36,6.36,6.3489,6.3302,6.3114,6.2923,6.2635,6.3055,6.3376,6.3477,6.4174,6.4681,6.4816,6.5358,6.5865,6.6,6.6348,6.6452,6.6139,6.581,6.5391,7.2375,7.1801,7.2527,7.2299,7.1338,7.0881,6.9819,6.8313,6.6691,6.5935,6.5884,6.5448,6.6139,6.7593,6.7666,6.8058,6.8768,6.9204,6.8941,6.8105,6.7743,6.7293,6.675,6.5953,6.5555,6.5555,6.5953,6.6134,6.617,6.6605,6.6822,6.6822,6.6822,6.6569,6.6156,6.6061,6.5619,6.4824,6.4266,6.3593,6.2716,6.199,6.1185,6.0274,5.9464,5.8508,5.7498,5.6951,5.6404,5.5807,5.5604,5.5487,5.5487,5.5339,5.4934,5.4285,5.4755,5.483,5.4132,5.5053,5.5839,5.628,5.6714,5.7199,5.7662,5.752,5.7577,5.8056,5.9057,5.9976,6.0536,6.1539,6.2551,6.3469,6.3772,6.4191,6.4899,6.4915,6.4827,6.4961,6.5014,6.4843,6.4446,6.434,6.4234,6.409,6.3892,6.371,6.3618,6.36,6.36,6.36,6.36,6.36,6.36,6.36,6.3489,6.3189,6.3057,6.2885,6.2615,6.2792,6.2922,6.2956,6.3531,6.4106,6.4512,6.5189,6.573,6.625,6.6352,6.6388,6.6139,6.5812,6.5426,7.3119,7.219,7.2772,7.3104,7.3045,7.1762,7.0792,7.0077,6.8741,6.8134,6.7966,6.6669,6.6896,6.8319,6.8209,6.8684,6.971,7.035,7.0363,6.9857,6.9594,6.8657,6.7193,6.6439,6.5627,6.4867,6.5482,6.5881,6.5953,6.6496,6.6822,6.6822,6.6822,6.6496,6.5881,6.5881,6.5482,6.4744,6.5018,6.4416,6.2868,6.2234,6.1478,6.0464,5.9755,5.8843,5.7783,5.7626,5.717,5.6343,5.603,5.593,5.5915,5.5812,5.5753,5.5738,5.5774,5.5784,5.5819,5.6272,5.666,5.6958,5.7534,5.8351,5.9338,5.9364,5.93,5.9418,6.0258,6.116,6.1915,6.2551,6.3306,6.4468,6.4694,6.4918,6.5387,6.5415,6.518,6.486,6.4912,6.4843,6.4568,6.4375,6.4305,6.4234,6.3912,6.3747,6.3673,6.3673,6.3655,6.3618,6.36,6.3563,6.3597,6.3905,6.3893,6.357,6.3849,6.4015,6.3812,6.3557,6.3328,6.3517,6.37,6.4208,6.4613,6.5189,6.5831,6.6284,6.6377,6.628,6.5943,6.5658,6.5392,7.3181,7.3087,7.3124,7.3176,7.3133,7.2295,7.1983,7.1904,7.1114,7.082,7.0525,6.7533,6.7056,6.8173,6.7699,6.8596,7.0536,7.0755,7.1083,7.149,7.0859,6.9621,6.8204,6.7875,6.6967,6.5772,6.6279,6.6605,6.6641,6.675,6.6822,6.6822,6.6822,6.675,6.6677,6.6677,6.6279,6.5518,6.5526,6.4787,6.3267,6.31,6.2271,6.0616,6.0516,5.996,5.8886,5.8574,5.8293,5.7995,5.7057,5.6521,5.6505,5.649,5.649,5.6526,5.7142,5.7548,5.7548,5.7603,5.7938,5.8671,5.8811,5.9478,6.0844,6.1038,6.1038,6.1122,6.1431,6.199,6.2749,6.3673,6.4325,6.4646,6.5237,6.5652,6.5526,6.5477,6.533,6.4996,6.498,6.4929,6.4672,6.4585,6.4533,6.4358,6.4163,6.4019,6.3892,6.3838,6.3783,6.3655,6.36,6.3526,6.3552,6.4488,6.4789,6.4898,6.586,6.6092,6.599,6.605,6.6149,6.5053,6.5209,6.5121,6.5019,6.5175,6.5717,6.606,6.6103,6.6009,6.5625,6.5448,6.5403,7.2559,7.2685,7.2685,7.2986,7.3442,7.3625,7.3486,7.3106,7.2776,7.2401,7.1821,6.9984,6.9282,6.9378,6.9048,6.9445,7.0237,7.0274,7.0617,7.1185,7.0433,6.9894,6.9733,6.9076,6.8203,6.7135,6.6939,6.6822,6.6822,6.6822,6.6822,6.6822,6.6822,6.6822,6.6822,6.6822,6.6641,6.6315,6.6315,6.5772,6.4649,6.3685,6.2861,6.2176,6.154,6.0653,5.9652,5.9315,5.8822,5.8104,5.7731,5.751,5.7313,5.7389,5.7389,5.7348,5.7614,5.779,5.779,5.823,5.8652,5.8968,5.9861,6.0668,6.123,6.1687,6.2124,6.2579,6.2541,6.2769,6.3544,6.4207,6.4789,6.5233,6.5625,6.5724,6.551,6.5477,6.533,6.4911,6.4946,6.486,6.462,6.4498,6.4463,6.4305,6.4234,6.4162,6.4108,6.3999,6.3856,6.3783,6.3692,6.3581,6.3539,6.3771,6.4442,6.5069,6.5519,6.5902,6.6857,6.6896,6.6622,6.6406,6.617,6.6034,6.6,6.5662,6.5764,6.6031,6.6082,6.5965,6.5481,6.5403,6.5403,7.2233,7.2358,7.2336,7.2871,7.3758,7.4331,7.4368,7.4074,7.4037,7.356,7.2826,7.2202,7.138,7.0477,7.022,7.0054,6.9969,6.9955,7.0177,7.0551,7.0179,7.0113,7.0172,6.9966,6.9223,6.8269,6.7752,6.7301,6.6931,6.7329,6.704,6.6388,6.6786,6.688,6.6533,6.6641,6.6822,6.6822,6.6822,6.6503,6.575,6.4483,6.3673,6.342,6.2694,6.1774,6.0696,6.044,5.98,5.8662,5.8537,5.8366,5.8172,5.8248,5.8334,5.8402,5.8421,5.8421,5.8457,5.9194,5.965,5.9756,6.0879,6.1687,6.1967,6.2424,6.3089,6.3824,6.3738,6.3882,6.4324,6.4705,6.5181,6.5732,6.5772,6.5659,6.5445,6.5395,6.518,6.4792,6.4809,6.4809,6.4568,6.448,6.4481,6.4393,6.4358,6.4305,6.4251,6.4091,6.3947,6.3909,6.3728,6.3581,6.356,6.4014,6.432,6.4976,6.5575,6.6826,6.7396,6.7624,6.7861,6.8267,6.7354,6.6779,6.688,6.6609,6.612,6.6377,6.6311,6.5922,6.5514,6.5425,6.5403,7.2481,7.2481,7.2481,7.2958,7.3722,7.378,7.4221,7.4757,7.483,7.4404,7.3707,7.356,7.2716,7.1344,7.066,7.0146,7.0059,7.0022,7.0082,7.0201,7.0659,7.0214,6.8933,7.0091,6.9872,6.8582,6.8851,6.8363,6.7018,6.8286,6.7525,6.4903,6.6858,6.7184,6.6134,6.6533,6.6822,6.6822,6.6822,6.6676,6.6398,6.5625,6.4816,6.4202,6.3957,6.3364,6.246,6.2068,6.1452,6.0472,5.9589,5.903,5.8948,5.8948,5.9245,5.9826,5.9982,5.9966,6.0036,6.0668,6.1125,6.1265,6.1862,6.2686,6.3302,6.3547,6.4054,6.4875,6.5076,6.5157,6.5349,6.5504,6.5697,6.5823,6.5659,6.5497,6.5349,6.5147,6.4963,6.474,6.4723,6.4706,6.4672,6.4672,6.4654,6.4637,6.4654,6.4655,6.4603,6.4374,6.416,6.417,6.3936,6.3579,6.3564,6.392,6.4708,6.5395,6.663,6.8727,6.9425,6.9891,7.006,7.0094,6.9519,6.8876,6.8166,6.7539,6.6984,6.6712,6.6271,6.5856,6.5492,6.5425,6.5403,7.2532,7.2532,7.2532,7.2973,7.3722,7.4221,7.4661,7.494,7.5432,7.5212,7.4551,7.4478,7.4133,7.3582,7.2753,7.1541,7.0146,6.9559,6.9596,7.0,6.9834,6.9916,7.0452,7.0821,7.0734,7.0106,6.9676,6.891,6.7927,6.8745,6.8648,6.7706,6.7764,6.764,6.7206,6.6895,6.6822,6.6822,6.6822,6.6757,6.6683,6.6304,6.5875,6.5461,6.442,6.3609,6.3076,6.2969,6.2428,6.1388,6.1182,6.0751,5.9996,5.9878,5.9937,6.0139,6.0659,6.0957,6.0966,6.1546,6.2019,6.2054,6.2705,6.3529,6.4214,6.4793,6.546,6.616,6.6137,6.6236,6.6652,6.6316,6.6018,6.6359,6.5928,6.5464,6.5316,6.5132,6.4946,6.474,6.4689,6.4689,6.4672,6.4689,6.4689,6.4689,6.4689,6.5058,6.5495,6.5002,6.4804,6.5902,6.5076,6.4271,6.6385,6.4717,6.4286,6.5318,6.6582,6.7993,6.8941,7.0297,7.0703,7.0669,7.0601,7.0106,6.9023,6.7981,6.7471,6.6572,6.6131,6.5812,6.547,6.5425,6.5403,7.2532,7.2532,7.2532,7.2973,7.378,7.4573,7.505,7.5359,7.613,7.6041,7.538,7.527,7.516,7.4867,7.4331,7.3083,7.1248,7.0183,6.9853,7.0036,6.9559,6.9889,7.0742,7.0804,7.0732,7.0653,7.0252,6.9508,6.8829,6.9582,6.947,6.8395,6.809,6.7713,6.7257,6.6677,6.6424,6.6424,6.6677,6.6793,6.6697,6.6548,6.6345,6.6064,6.4998,6.4164,6.3805,6.3723,6.3278,6.2431,6.2433,6.2122,6.1349,6.1231,6.1184,6.1123,6.1626,6.1944,6.1953,6.2535,6.3063,6.3345,6.4084,6.4824,6.5581,6.6162,6.6777,6.7215,6.7159,6.7293,6.7819,6.7207,6.6615,6.6812,6.6237,6.563,6.5251,6.5013,6.4775,6.4568,6.462,6.4637,6.455,6.462,6.4672,6.4689,6.5075,6.5882,6.6371,6.6345,6.5884,6.7279,6.5805,6.5431,6.6232,6.534,6.525,6.6211,6.7148,6.8197,6.8963,7.0353,7.1176,7.1176,7.0951,7.0489,6.9691,6.8569,6.7542,6.6554,6.6033,6.5758,6.5559,6.5425,6.5403,7.2532,7.2532,7.2532,7.2899,7.367,7.4441,7.5307,7.5983,7.6775,7.6665,7.6114,7.613,7.5747,7.5124,7.4977,7.4404,7.323,7.1835,7.083,7.0257,7.0073,7.0073,7.033,7.0243,7.0136,7.0059,7.0508,7.0288,6.9586,7.0653,7.0054,6.7721,6.8017,6.7728,6.5881,6.6062,6.5772,6.5989,6.6496,6.664,6.6497,6.6376,6.6223,6.6052,6.5756,6.532,6.461,6.4484,6.4065,6.3306,6.3125,6.3029,6.2836,6.2801,6.2891,6.2875,6.2997,6.3049,6.3194,6.3834,6.4631,6.5162,6.5921,6.656,6.7232,6.7496,6.7689,6.802,6.8,6.8279,6.8898,6.8313,6.7482,6.688,6.6498,6.5942,6.5224,6.4792,6.455,6.4287,6.4393,6.4481,6.4323,6.4411,6.4655,6.5111,6.5935,6.6987,6.7424,6.7657,6.7663,6.7307,6.6384,6.6121,6.5972,6.5875,6.6622,6.7393,6.8326,6.9203,6.9335,7.0297,7.1086,7.1222,7.1132,7.0681,6.9738,6.8629,6.7736,6.6823,6.6324,6.5725,6.5537,6.5403,6.5403,7.2532,7.2532,7.2532,7.2642,7.2973,7.3744,7.4515,7.5307,7.6114,7.6644,7.6885,7.6922,7.6775,7.6445,7.6004,7.4992,7.3685,7.2569,7.1674,7.094,7.0367,7.0403,7.072,7.0367,7.0082,7.0062,7.0104,7.0347,7.0588,7.0868,7.055,7.0287,6.9781,6.9445,6.8685,6.7366,6.6641,6.7112,6.6388,6.6119,6.6461,6.6361,6.6192,6.5985,6.5863,6.5661,6.5431,6.5399,6.4975,6.4211,6.4108,6.3816,6.3294,6.3137,6.3337,6.3754,6.4386,6.4953,6.5438,6.6043,6.6538,6.6857,6.7105,6.7583,6.8273,6.8433,6.8767,6.9261,6.9029,6.9011,6.9472,6.8672,6.7856,6.7536,6.6769,6.5929,6.5104,6.4585,6.427,6.4111,6.402,6.3876,6.3858,6.4074,6.4689,6.5651,6.6547,6.7549,6.9153,6.8441,6.8752,7.0109,6.8468,6.7148,6.7959,6.8191,6.8323,6.8827,6.9488,6.9826,6.9923,7.0229,7.0951,7.1244,7.1154,7.0625,6.9681,6.8741,6.7781,6.689,6.6168,6.5758,6.5481,6.5403,6.5403,7.3046,7.2569,7.2826,7.2753,7.2606,7.334,7.3964,7.4588,7.5652,7.6387,7.6848,7.7179,7.7326,7.7142,7.646,7.5395,7.4111,7.3046,7.2239,7.1615,7.055,7.044,7.0756,7.0367,7.0293,7.0426,7.0172,7.0381,7.1077,7.0902,7.0986,7.1202,7.0484,6.9972,6.9775,6.7649,6.6641,6.688,6.6061,6.5698,6.5998,6.614,6.613,6.6021,6.5883,6.5804,6.5804,6.5804,6.559,6.5161,6.5038,6.4848,6.4626,6.4682,6.4899,6.5545,6.6111,6.6661,6.7112,6.7431,6.793,6.8143,6.825,6.8587,6.9226,6.9439,6.9775,7.0094,6.9879,6.9613,6.9648,6.9243,6.8339,6.7364,6.6649,6.5843,6.5054,6.4446,6.4039,6.393,6.373,6.3563,6.3473,6.3874,6.4423,6.5522,6.6965,6.8164,6.9957,6.9725,7.0883,7.1261,6.9471,6.9309,7.069,7.0686,7.0239,7.0382,7.066,7.0575,7.0454,7.0737,7.1289,7.1222,7.112,7.0557,6.9658,6.8695,6.7723,6.69,6.6068,6.5669,6.5403,6.5403,6.5403,7.3927,7.2753,7.3303,7.3193,7.2716,7.3303,7.3648,7.3964,7.5175,7.5946,7.6276,7.6848,7.7179,7.7032,7.6387,7.5506,7.4573,7.3179,7.2275,7.1762,7.077,7.0183,7.0183,7.0146,7.0403,7.083,7.0389,7.0429,7.0916,7.088,7.0982,7.0821,7.0111,6.9469,6.9082,6.6947,6.5844,6.5794,6.5424,6.5264,6.5385,6.5812,6.6021,6.599,6.5848,6.5804,6.5804,6.5804,6.5804,6.5768,6.5697,6.593,6.6624,6.6874,6.6894,6.7519,6.7945,6.7964,6.8071,6.8216,6.8537,6.9233,6.934,6.9676,7.0213,7.0267,7.0303,7.0427,7.0356,7.0089,6.9647,6.9387,6.861,6.6878,6.6194,6.5581,6.4865,6.434,6.393,6.362,6.3544,6.3414,6.3038,6.3531,6.4033,6.4908,6.6994,6.8562,6.9836,7.0453,7.1492,7.1104,7.0072,7.0187,7.1118,7.0789,7.0382,7.0488,7.0731,7.0577,7.0703,7.1075,7.1143,7.1075,7.076,7.0231,6.9488,6.8413,6.7542,6.6764,6.6077,6.5624,6.5403,6.5403,6.5403,7.378,7.3391,7.2973,7.301,7.3266,7.301,7.3193,7.3685,7.4111,7.5028,7.5909,7.6313,7.6423,7.6387,7.6166,7.5065,7.3487,7.2716,7.1762,7.0807,7.0367,7.011,7.011,7.011,7.0257,7.044,7.0367,7.0206,7.0333,7.0358,7.0529,7.1019,7.0476,6.9942,6.9185,6.7454,6.6207,6.5555,6.4946,6.4845,6.5215,6.5822,6.6083,6.5883,6.582,6.5804,6.5804,6.5804,6.5804,6.5804,6.5804,6.5875,6.6161,6.6232,6.6624,6.7283,6.7426,6.7838,6.8694,6.8892,6.932,7.0069,6.9998,7.03,7.0443,7.0514,7.0514,7.048,7.0358,7.0077,6.9689,6.9194,6.8188,6.7007,6.597,6.5268,6.5039,6.4313,6.3618,6.3193,6.2977,6.2731,6.2819,6.3053,6.3739,6.4819,6.6305,6.8059,6.9329,6.9875,7.0364,7.1512,7.1215,7.0981,7.0883,7.0574,7.0376,7.0355,7.0347,7.007,7.0466,7.1041,7.0962,7.0768,7.0096,6.9535,6.8736,6.7793,6.7115,6.643,6.5966,6.5436,6.5403,6.5403,6.5403,7.4111,7.323,7.3413,7.3377,7.323,7.3046,7.3083,7.323,7.356,7.4147,7.5028,7.5469,7.5579,7.5579,7.5212,7.4368,7.3046,7.2312,7.1674,7.1211,7.044,7.033,7.0513,7.0587,7.077,7.1027,7.077,7.0624,7.0536,7.0209,7.0248,7.0514,7.066,7.0089,6.8873,6.8303,6.7184,6.6192,6.528,6.4924,6.5133,6.5438,6.5499,6.5423,6.559,6.5804,6.5804,6.5804,6.5804,6.5804,6.5804,6.5946,6.6268,6.6303,6.666,6.739,6.7462,6.7909,6.8551,6.8801,6.9015,6.9444,6.9765,6.9765,6.9622,6.9765,6.9943,6.9462,6.9345,6.9208,6.8981,6.8417,6.7992,6.7614,6.6334,6.5545,6.573,6.4756,6.414,6.3741,6.3081,6.257,6.2773,6.2955,6.3501,6.4439,6.5507,6.7074,6.8388,6.8645,6.9176,7.0402,7.11,7.0695,7.0318,7.0018,6.9635,6.9681,6.9591,6.9417,6.9767,7.041,7.0243,6.9827,6.9323,6.8728,6.7943,6.7227,6.6628,6.6032,6.5635,6.5436,6.5403,6.5403,6.5403,7.4698,7.2753,7.4169,7.3964,7.2899,7.3377,7.3244,7.2753,7.323,7.3597,7.3964,7.4478,7.4771,7.472,7.4272,7.367,7.3413,7.2202,7.1931,7.1541,7.0881,7.0367,7.083,7.0866,7.1417,7.2004,7.1711,7.138,7.1087,7.0536,7.0209,7.036,7.0661,6.9784,6.8669,6.8521,6.7924,6.6264,6.5562,6.5213,6.5194,6.5273,6.5423,6.5533,6.5617,6.5836,6.582,6.5804,6.5804,6.5804,6.5804,6.6125,6.6712,6.6819,6.7053,6.7445,6.7517,6.7659,6.7945,6.798,6.8088,6.8337,6.8908,6.8908,6.8551,6.8837,6.8927,6.8394,6.7976,6.802,6.7814,6.7446,6.7532,6.7689,6.6914,6.6457,6.6118,6.5371,6.4855,6.4996,6.3512,6.3063,6.3156,6.3203,6.3072,6.3497,6.4584,6.5733,6.6934,6.7532,6.832,6.9487,6.9889,6.9967,6.9664,6.9405,6.9021,6.875,6.8636,6.8516,6.8673,6.9035,6.9005,6.8796,6.8518,6.7981,6.7222,6.6599,6.6055,6.5801,6.5469,6.5403,6.5403,6.5403,6.5403,7.4478,7.3487,7.3817,7.378,7.3487,7.3611,7.3266,7.2532,7.2679,7.312,7.3597,7.3891,7.3964,7.3964,7.3722,7.3377,7.2863,7.2312,7.2078,7.138,7.0587,7.0183,7.0403,7.044,7.1174,7.2055,7.2312,7.1894,7.138,7.1146,7.0979,7.0858,7.0639,6.9908,6.84,6.7817,6.6207,6.4613,6.5005,6.559,6.5637,6.5923,6.63,6.6628,6.6287,6.5895,6.5836,6.5804,6.5804,6.5804,6.5804,6.5927,6.6089,6.6125,6.6268,6.6375,6.641,6.6624,6.7105,6.7247,6.7497,6.7909,6.8159,6.8302,6.8159,6.8195,6.8235,6.794,6.7754,6.7339,6.7024,6.6808,6.687,6.6895,6.6588,6.6069,6.5731,6.5323,6.503,6.4605,6.3916,6.3308,6.3443,6.2914,6.279,6.2872,6.3501,6.4446,6.5359,6.6259,6.7173,6.8137,6.8642,6.8741,6.8808,6.8571,6.8233,6.7963,6.7827,6.7738,6.7895,6.8058,6.8198,6.809,6.7814,6.7213,6.6522,6.6078,6.5602,6.5469,6.5403,6.5403,6.5403,6.5403,6.5403,7.4367,7.3266,7.3927,7.3817,7.334,7.3891,7.3597,7.2679,7.2532,7.2753,7.3046,7.312,7.312,7.3156,7.312,7.2863,7.2606,7.2496,7.2275,7.1688,7.077,7.033,7.0513,7.0367,7.077,7.1857,7.2334,7.2188,7.1894,7.1476,7.1156,7.099,7.0887,6.9558,6.8181,6.8062,6.7547,6.617,6.6243,6.6785,6.7047,6.6981,6.7121,6.7394,6.6946,6.6529,6.6093,6.6021,6.5974,6.5911,6.5879,6.5848,6.5804,6.5804,6.5804,6.5804,6.5804,6.5946,6.6339,6.6446,6.6589,6.7017,6.7338,6.7267,6.7234,6.7237,6.7174,6.6811,6.6435,6.6128,6.6139,6.6448,6.6389,6.6163,6.5994,6.5688,6.5304,6.5201,6.5042,6.4586,6.3937,6.3579,6.3274,6.2821,6.2692,6.2842,6.2669,6.3527,6.4004,6.4864,6.5519,6.6337,6.7074,6.7523,6.776,6.7658,6.7387,6.7252,6.7163,6.7129,6.7197,6.7407,6.7594,6.7309,6.7022,6.6535,6.5924,6.5536,6.5403,6.5403,6.5403,6.5403,6.5403,6.5403,6.5403,7.4253,7.2642,7.4243,7.3949,7.2899,7.4169,7.3949,7.2642,7.2532,7.2532,7.2532,7.2532,7.2606,7.2532,7.2569,7.2532,7.2532,7.2532,7.2422,7.2202,7.077,7.0477,7.066,7.044,7.0403,7.1211,7.2092,7.2386,7.2275,7.1843,7.1494,7.1099,7.0988,7.0001,6.8491,6.8938,6.9083,6.7728,6.7836,6.8226,6.8553,6.8161,6.7904,6.7528,6.723,6.6968,6.649,6.6223,6.6012,6.6032,6.6052,6.5974,6.5879,6.5804,6.5804,6.5804,6.5804,6.5839,6.5911,6.5875,6.5911,6.5839,6.6375,6.6466,6.6132,6.6163,6.6086,6.5569,6.5159,6.4883,6.5102,6.5428,6.5627,6.5469,6.5237,6.4977,6.4741,6.4809,6.4679,6.4613,6.3984,6.3579,6.3274,6.2888,6.2853,6.2789,6.263,6.26,6.3096,6.3757,6.4611,6.5061,6.5839,6.6474,6.6745,6.7299,6.696,6.6893,6.6791,6.6791,6.6749,6.6773,6.6849,6.6496,6.611,6.5813,6.5669,6.5481,6.5403,6.5403,6.5403,6.5403,6.5403,6.5403,6.5403,7.4253,7.2642,7.4243,7.3949,7.2863,7.4206,7.3964,7.2679,7.2532,7.2532,7.2532,7.2532,7.2532,7.2532,7.2532,7.2532,7.2532,7.2532,7.2532,7.2239,7.0954,7.0403,7.044,7.0403,7.033,7.066,7.1725,7.2496,7.2496,7.232,7.1955,7.1844,7.1717,7.0838,6.9812,6.9626,6.9228,6.8561,6.8742,6.9125,6.9239,6.9151,6.8635,6.7976,6.7528,6.7142,6.6927,6.6053,6.5555,6.6166,6.6238,6.6259,6.613,6.5962,6.5852,6.582,6.5804,6.5804,6.5804,6.5804,6.5804,6.5839,6.595,6.5941,6.5597,6.5469,6.529,6.4915,6.4428,6.4123,6.4102,6.4375,6.4143,6.3939,6.3836,6.357,6.3538,6.3684,6.4049,6.416,6.3802,6.3409,6.3071,6.2821,6.2702,6.2756,6.2838,6.258,6.2668,6.3435,6.4296,6.4592,6.4803,6.5324,6.5784,6.6542,6.6825,6.6859,6.6791,6.677,6.6665,6.6354,6.6139,6.6009,6.5856,6.5703,6.557,6.5425,6.5403,6.5403,6.5403,6.5403,6.5403,6.5403,6.5403,7.4413,7.2743,7.381,7.3597,7.2826,7.3744,7.3634,7.2606,7.2532,7.2532,7.2532,7.2532,7.2532,7.2532,7.2532,7.2532,7.2532,7.2532,7.2532,7.2202,7.1321,7.0734,7.0734,7.0697,7.0734,7.1064,7.1908,7.2496,7.2496,7.2496,7.2299,7.2063,7.1988,7.1457,7.0609,7.0025,6.9626,6.9358,6.9626,7.0025,7.0299,7.0335,6.9854,6.9209,6.8599,6.812,6.7141,6.7431,6.6571,6.616,6.6531,6.6608,6.6403,6.6182,6.6025,6.5947,6.5852,6.5804,6.5804,6.5788,6.5704,6.551,6.551,6.5363,6.513,6.4894,6.4636,6.4323,6.4144,6.3838,6.3781,6.3655,6.3618,6.3563,6.3321,6.3133,6.3049,6.3086,6.3317,6.3619,6.3477,6.3173,6.2821,6.2584,6.2448,6.2648,6.2969,6.2823,6.2536,6.3447,6.4489,6.4524,6.4816,6.5459,6.5865,6.6339,6.6791,6.6791,6.677,6.6749,6.6601,6.629,6.6107,6.5933,6.578,6.5581,6.5514,6.5403,6.5403,6.5403,6.5403,6.5403,6.5403,6.5403,6.5403,7.4633,7.2825,7.3456,7.3273,7.2708,7.3354,7.3266,7.2606,7.2532,7.2532,7.2532,7.2532,7.2532,7.2532,7.2532,7.2532,7.2532,7.2532,7.2532,7.2349,7.1637,7.127,7.1307,7.1454,7.1344,7.0903,7.2004,7.2371,7.2224,7.2422,7.2226,7.194,7.1887,7.1648,7.0873,7.0708,7.0656,7.0641,7.0641,7.0967,7.135,7.1458,7.1241,7.0553,7.0351,6.9176,6.8153,6.7965,6.76,6.6977,6.7065,6.744,6.688,6.6629,6.6459,6.6283,6.6018,6.5852,6.5788,6.574,6.5575,6.5311,6.5195,6.4961,6.4671,6.4481,6.4181,6.391,6.382,6.3765,6.3655,6.36,6.36,6.3563,6.3414,6.3208,6.3019,6.2891,6.2712,6.2953,6.3077,6.299,6.2618,6.2516,6.2415,6.2618,6.2939,6.319,6.3091,6.4174,6.4898,6.481,6.5087,6.5831,6.6271,6.644,6.6757,6.6791,6.677,6.6728,6.6537,6.6302,6.6086,6.5867,6.5625,6.547,6.5425,6.5403,6.5403,6.5403,6.5403,6.5403,6.5403,6.5403,6.5403,7.4818,7.3028,7.3635,7.3417,7.28,7.3361,7.323,7.2569,7.2532,7.2532,7.2532,7.2532,7.2532,7.2532,7.2532,7.2532,7.2532,7.2532,7.2532,7.2386,7.1784,7.1417,7.1454,7.2092,7.1688,7.1211,7.2018,7.1982,7.1784,7.2114,7.1932,7.1428,7.1558,7.1772,7.1153,7.0905,7.1386,7.1313,7.1313,7.1386,7.1494,7.1494,7.1422,7.1024,7.0278,6.9554,6.9306,6.8842,6.8084,6.8322,6.831,6.8447,6.8231,6.7692,6.744,6.709,6.6585,6.5927,6.582,6.5707,6.5445,6.5178,6.5045,6.4826,6.4463,6.4128,6.3892,6.3673,6.3655,6.3655,6.3618,6.36,6.36,6.3544,6.3452,6.3227,6.3038,6.2904,6.2693,6.2513,6.2753,6.2685,6.2448,6.2415,6.2415,6.2685,6.2922,6.3193,6.368,6.4647,6.5527,6.5493,6.5527,6.6237,6.644,6.6677,6.6724,6.6791,6.677,6.6707,6.6452,6.6215,6.6042,6.5768,6.5559,6.5403,6.5403,6.5403,6.5403,6.5403,6.5403,6.5403,6.5403,6.5403,6.5403,7.4504,7.3128,7.319,7.304,7.2755,7.2957,7.2826,7.2569,7.2532,7.2532,7.2532,7.2532,7.2532,7.2532,7.2532,7.2532,7.2532,7.2532,7.2532,7.2532,7.2129,7.1967,7.2188,7.2753,7.2606,7.2312,7.2239,7.2004,7.16,7.1087,7.0847,7.058,7.0566,7.0513,7.0632,7.0319,7.0496,7.0806,7.1205,7.1494,7.1494,7.1494,7.1494,7.1494,7.077,7.0315,6.9798,7.0035,6.9002,6.8847,6.8706,6.9042,6.8682,6.8251,6.7963,6.7409,6.6937,6.6348,6.5875,6.5707,6.5395,6.5013,6.4758,6.4428,6.4056,6.3856,6.371,6.3618,6.36,6.36,6.36,6.36,6.36,6.3563,6.3489,6.3265,6.3076,6.2962,6.2808,6.2576,6.2415,6.2415,6.2415,6.2415,6.2434,6.255,6.2956,6.3429,6.3971,6.4783,6.5628,6.6305,6.6406,6.6622,6.6677,6.6745,6.6757,6.6791,6.6791,6.6665,6.6333,6.6095,6.5922,6.5724,6.5492,6.5403,6.5403,6.5403,6.5403,6.5403,6.5403,6.5403,6.5403,6.5403,6.5403,7.4072,7.3172,7.2876,7.2751,7.2695,7.2553,7.2532,7.2532,7.2532,7.2532,7.2532,7.2532,7.2532,7.2532,7.2532,7.2532,7.2532,7.2532,7.2532,7.2532,7.2532,7.2606,7.2973,7.356,7.3854,7.3722,7.3413,7.2371,7.1087,7.0499,7.0127,6.9671,6.9828,6.9683,6.9499,6.9515,6.9735,7.0496,7.1168,7.1458,7.1494,7.1494,7.1494,7.1494,7.1386,7.0951,7.0175,7.0541,7.0049,6.9512,6.9557,6.9787,6.9356,6.9033,6.8626,6.8127,6.7663,6.7088,6.6423,6.5904,6.5353,6.4843,6.4393,6.411,6.3765,6.36,6.36,6.36,6.36,6.36,6.36,6.36,6.36,6.36,6.3581,6.334,6.308,6.3,6.2808,6.2537,6.2415,6.2415,6.2415,6.2415,6.2468,6.2502,6.2922,6.3531,6.4275,6.4986,6.5696,6.6474,6.6656,6.6757,6.6757,6.6779,6.6791,6.6791,6.6791,6.6622,6.6268,6.6074,6.5922,6.568,6.5448,6.5403,6.5403,6.5403,6.5403,6.5403,6.5403,6.5403,6.5403,6.5381,6.5336,7.3499,7.3185,7.3037,7.2872,7.2695,7.2553,7.2532,7.2532,7.2532,7.2532,7.2532,7.2532,7.2532,7.2532,7.2532,7.2532,7.2569,7.2532,7.2679,7.2679,7.2569,7.3083,7.367,7.4258,7.4515,7.4111,7.4074,7.2789,7.0917,7.0367,6.9692,6.91,6.909,6.9391,6.9354,6.9052,6.9424,7.0206,7.0951,7.1422,7.1494,7.1494,7.1494,7.1494,7.1494,7.1422,7.1298,7.1316,7.1183,7.0554,7.06,7.0599,7.0257,6.978,6.9339,6.8896,6.8387,6.7812,6.7168,6.6061,6.5103,6.4655,6.4305,6.3929,6.3637,6.36,6.36,6.36,6.36,6.36,6.36,6.36,6.36,6.36,6.3563,6.3358,6.3136,6.3038,6.2828,6.2518,6.2415,6.2415,6.2415,6.2415,6.2415,6.2468,6.3024,6.3632,6.4478,6.5222,6.5831,6.644,6.6656,6.6791,6.6791,6.6791,6.6791,6.677,6.6749,6.6516,6.6204,6.603,6.5856,6.5614,6.5403,6.5403,6.5403,6.5403,6.5403,6.5403,6.5403,6.5403,6.5358,6.5291,6.5234,7.3476,7.3231,7.2945,7.2765,7.2695,7.2553,7.2532,7.2532,7.2532,7.2532,7.2532,7.2532,7.2532,7.2532,7.2569,7.2789,7.3156,7.323,7.3487,7.3854,7.4059,7.4169,7.4683,7.5102,7.5469,7.5139,7.5028,7.3927,7.1872,7.0917,6.9302,6.8633,6.8534,6.8092,6.8095,6.8486,6.9005,6.9699,7.046,7.0987,7.1494,7.1494,7.1494,7.1494,7.1494,7.1494,7.1442,7.1431,7.1388,7.1276,7.113,7.1032,7.0867,7.0358,6.9919,6.946,6.8881,6.8306,6.7636,6.6491,6.5492,6.4498,6.418,6.3929,6.3655,6.36,6.36,6.36,6.36,6.36,6.36,6.36,6.36,6.36,6.3507,6.3358,6.317,6.3038,6.2808,6.2479,6.2434,6.2415,6.2415,6.2415,6.2415,6.2448,6.3091,6.3734,6.4444,6.5121,6.5628,6.617,6.644,6.6724,6.6757,6.6791,6.6791,6.6749,6.6686,6.643,6.6151,6.5977,6.578,6.5559,6.5403,6.5403,6.5403,6.5403,6.5403,6.5403,6.5403,6.5403,6.5314,6.5179,6.4945,7.3514,7.3207,7.2894,7.2686,7.2638,7.2539,7.2532,7.2532,7.2532,7.2532,7.2532,7.2532,7.2532,7.2569,7.2826,7.312,7.3648,7.3927,7.4368,7.461,7.4757,7.5014,7.538,7.5763,7.6093,7.6203,7.5858,7.4793,7.323,7.2055,7.0991,6.9747,6.837,6.8061,6.7431,6.776,6.838,6.9192,6.9989,7.0734,7.1386,7.1494,7.1494,7.1494,7.1494,7.1494,7.1494,7.1463,7.1431,7.1388,7.1292,7.1227,7.1015,7.0711,7.0242,6.97,6.9157,6.8576,6.8011,6.6829,6.5829,6.4845,6.4302,6.4034,6.3728,6.36,6.36,6.36,6.36,6.36,6.36,6.36,6.36,6.36,6.3489,6.3321,6.3114,6.2923,6.2693,6.244,6.2454,6.2415,6.2415,6.2415,6.2415,6.2415,6.2651,6.3226,6.3781,6.4478,6.5053,6.5595,6.6102,6.644,6.6757,6.6757,6.677,6.6656,6.6571,6.6345,6.6107,6.5823,6.5647,6.5514,6.5403,6.5403,6.537,6.5337,6.537,6.5403,6.5381,6.5314,6.5024,6.4834,6.4422,7.3564,7.3111,7.2963,7.2728,7.2524,7.2496,7.2532,7.2532,7.2532,7.2532,7.2532,7.2532,7.2569,7.2753,7.3266,7.3722,7.4147,7.4625,7.505,7.5197,7.538,7.5527,7.5858,7.6276,7.6592,7.7142,7.6848,7.6004,7.461,7.4096,7.3215,7.1888,7.0279,6.9025,6.7474,6.7694,6.838,6.9228,7.0061,7.0625,7.1205,7.1422,7.1494,7.1494,7.1494,7.1494,7.1494,7.1494,7.1463,7.1467,7.1372,7.1324,7.1243,7.0817,7.0441,7.0129,6.9725,6.9456,6.9186,6.7182,6.5986,6.5331,6.4841,6.4244,6.3779,6.3634,6.36,6.36,6.36,6.36,6.36,6.36,6.36,6.3526,6.3396,6.3246,6.3019,6.2847,6.2635,6.2459,6.2454,6.2415,6.2415,6.2415,6.2415,6.2415,6.2415,6.2753,6.324,6.3815,6.4444,6.4952,6.5527,6.6068,6.6406,6.669,6.6749,6.6613,6.632,6.5959,6.5664,6.5335,6.526,6.5282,6.5061,6.473,6.4995,6.5271,6.5028,6.4741,6.5147,6.5123,6.4811,6.4412,6.4014,7.4423,7.4023,7.3239,7.2728,7.251,7.2532,7.2532,7.2532,7.2532,7.2532,7.2532,7.2532,7.2863,7.3266,7.367,7.4309,7.5212,7.5432,7.5836,7.6408,7.6371,7.6628,7.6848,7.6848,7.6995,7.7215,7.7179,7.6518,7.483,7.505,7.4023,7.2548,7.1787,7.0383,6.8786,6.818,6.7981,6.9554,6.9916,6.9989,7.0713,7.1205,7.1494,7.1494,7.1494,7.1494,7.1494,7.1494,7.1494,7.1494,7.1436,7.1436,7.1372,7.0999,7.0699,7.0393,7.0026,6.9687,6.9203,6.7986,6.6927,6.6168,6.5309,6.4677,6.4398,6.3807,6.3669,6.36,6.36,6.36,6.36,6.36,6.3563,6.3414,6.3265,6.3095,6.2904,6.277,6.2615,6.2513,6.2415,6.2415,6.2415,6.2415,6.2415,6.2361,6.2361,6.2361,6.2747,6.3274,6.3849,6.4309,6.4884,6.5527,6.6034,6.6331,6.6563,6.6473,6.5911,6.5283,6.5022,6.4827,6.4419,6.4233,6.41,6.4001,6.4233,6.4365,6.4122,6.4045,6.4498,6.4606,6.4219,6.3832,6.3478,7.5408,7.5064,7.4266,7.3744,7.3403,7.2796,7.2532,7.2532,7.2532,7.2532,7.2569,7.2753,7.3156,7.3722,7.4368,7.4845,7.613,7.646,7.6592,7.7289,7.7289,7.7215,7.7252,7.7326,7.7252,7.7326,7.7215,7.6665,7.5931,7.5784,7.4903,7.378,7.2956,7.1878,7.035,6.911,6.8214,6.9192,6.9032,6.9358,7.0206,7.0842,7.1241,7.1422,7.1494,7.1494,7.1494,7.1494,7.1494,7.1494,7.1494,7.1494,7.1399,7.1175,7.0867,7.0496,6.9991,6.9651,6.9202,6.8858,6.792,6.7366,6.6074,6.5124,6.464,6.3998,6.3703,6.36,6.36,6.36,6.36,6.36,6.347,6.3302,6.3114,6.2923,6.2789,6.2673,6.2591,6.2454,6.2415,6.2415,6.2415,6.2415,6.2415,6.2361,6.2322,6.2302,6.2263,6.2701,6.3208,6.3667,6.4181,6.4809,6.5431,6.593,6.6154,6.632,6.577,6.5053,6.4659,6.453,6.3867,6.3327,6.3459,6.3526,6.3426,6.336,6.3393,6.3559,6.3946,6.387,6.3572,6.3153,6.2723,7.648,7.6217,7.5907,7.555,7.5073,7.3433,7.2716,7.2642,7.2642,7.2679,7.2679,7.3523,7.3891,7.4184,7.5359,7.6056,7.6313,7.6922,7.7142,7.7289,7.7289,7.7326,7.7326,7.7326,7.7326,7.731,7.7258,7.7154,7.7148,7.6793,7.5987,7.5217,7.4613,7.3437,7.193,7.0686,6.9424,6.8995,6.8488,6.8995,6.9901,7.0423,7.0915,7.1277,7.1494,7.1494,7.1494,7.1494,7.1494,7.1494,7.1494,7.1494,7.1399,7.1191,7.0883,7.041,6.9795,6.9522,6.9339,6.9013,6.8771,6.7987,6.6324,6.5305,6.4675,6.4186,6.3703,6.36,6.36,6.36,6.36,6.3489,6.3358,6.317,6.2943,6.2789,6.2673,6.2557,6.2459,6.2415,6.2415,6.2415,6.2415,6.2415,6.2361,6.2209,6.213,6.1991,6.1971,6.201,6.2502,6.2926,6.3478,6.4106,6.4707,6.5257,6.5614,6.5737,6.5686,6.5124,6.4706,6.4177,6.3592,6.3194,6.3128,6.3029,6.2664,6.273,6.2962,6.3161,6.3073,6.3023,6.2629,6.2147,6.1664,7.7354,7.7065,7.6181,7.5675,7.5309,7.4573,7.4206,7.4206,7.4206,7.4206,7.4258,7.4426,7.4808,7.5469,7.5909,7.6408,7.6848,7.7142,7.7252,7.7326,7.7326,7.7326,7.7326,7.7326,7.7326,7.7279,7.7233,7.7171,7.7087,7.7077,7.7003,7.6434,7.589,7.4852,7.3759,7.2837,7.0962,6.9394,6.8597,6.885,6.9575,7.017,7.0734,7.1241,7.1458,7.1494,7.1494,7.1494,7.1494,7.1494,7.1494,7.1494,7.1463,7.1368,7.1143,7.0478,6.9884,6.9339,6.919,6.8948,6.8724,6.8254,6.6692,6.5921,6.524,6.4481,6.3703,6.36,6.36,6.36,6.3581,6.3489,6.3321,6.3095,6.2904,6.2751,6.2615,6.2479,6.2415,6.2415,6.2415,6.2415,6.2415,6.2415,6.2341,6.213,6.1937,6.181,6.1729,6.179,6.2045,6.2501,6.2952,6.3646,6.4001,6.4514,6.4835,6.5087,6.519,6.5126,6.4596,6.4045,6.336,6.2929,6.2664,6.22,6.1649,6.1848,6.2212,6.1848,6.176,6.177,6.1709,6.135,6.0902,7.8279,7.8015,7.7151,7.6519,7.6118,7.5948,7.5858,7.5747,7.5197,7.4903,7.494,7.5234,7.5652,7.6056,7.6423,7.6848,7.7252,7.7252,7.7326,7.7326,7.7326,7.7326,7.7326,7.731,7.7279,7.7217,7.7155,7.704,7.6982,7.6882,7.6845,7.684,7.6729,7.5665,7.4458,7.3547,7.2416,7.0842,6.972,6.9213,6.9394,7.0046,7.0842,7.106,7.1241,7.1458,7.1494,7.1494,7.1494,7.1494,7.1494,7.1494,7.1399,7.1292,7.0996,7.0358,6.9795,6.9376,6.9134,6.8838,6.8628,6.8139,6.7115,6.6363,6.5412,6.4531,6.3945,6.36,6.36,6.36,6.3563,6.3507,6.3283,6.3057,6.2885,6.2731,6.2576,6.2454,6.2415,6.2415,6.2415,6.2415,6.2415,6.2415,6.2341,6.2223,6.1991,6.177,6.1648,6.1608,6.1942,6.2356,6.2739,6.3177,6.3576,6.4115,6.4643,6.5069,6.5237,6.5061,6.4509,6.4056,6.3592,6.2797,6.198,6.1682,6.155,6.1285,6.1351,6.1164,6.1222,6.1275,6.1314,6.0923,6.0435,7.9066,7.9016,7.8448,7.7715,7.7335,7.7215,7.7163,7.7142,7.5784,7.5124,7.5344,7.5909,7.624,7.6481,7.6885,7.7142,7.7326,7.7326,7.7326,7.7326,7.7326,7.7326,7.7326,7.731,7.7248,7.7155,7.7045,7.6913,7.6801,7.6721,7.6688,7.6753,7.6627,7.5874,7.4898,7.4566,7.3559,7.2146,7.1639,7.1313,6.9647,7.0082,7.1132,7.0661,7.0951,7.1386,7.1458,7.1494,7.1494,7.1494,7.1494,7.1494,7.134,7.0734,7.0436,7.013,6.9582,6.918,6.8951,6.8743,6.8551,6.8169,6.751,6.6777,6.5861,6.4738,6.4117,6.3669,6.36,6.36,6.3581,6.3452,6.3246,6.3038,6.2847,6.2673,6.2498,6.24,6.2415,6.2415,6.2415,6.2415,6.2468,6.2482,6.2525,6.2344,6.2306,6.2045,6.1821,6.174,6.1978,6.237,6.2524,6.2987,6.3754,6.4291,6.4792,6.5116,6.5238,6.5227,6.4818,6.4387,6.389,6.3194,6.2498,6.2034,6.1769,6.1583,6.1583,6.1748,6.1631,6.1219,6.0962,6.0912,6.0619,7.9016,7.9054,7.8448,7.7848,7.732,7.7326,7.7326,7.7289,7.6959,7.6665,7.6775,7.6885,7.6922,7.6885,7.7105,7.7289,7.7215,7.7289,7.7289,7.7326,7.7326,7.7326,7.7326,7.731,7.7233,7.7108,7.6966,7.6806,7.666,7.6561,7.6512,7.661,7.6478,7.5977,7.565,7.5478,7.4754,7.3486,7.3921,7.2834,7.0677,7.0134,7.0532,7.046,7.077,7.1132,7.1277,7.1494,7.1494,7.1494,7.1494,7.1494,7.1463,7.0292,7.0047,7.011,6.9264,6.8877,6.8714,6.8628,6.8416,6.8087,6.7536,6.7103,6.6344,6.5117,6.4324,6.391,6.36,6.36,6.3544,6.3396,6.3227,6.3019,6.2828,6.2615,6.242,6.24,6.2415,6.2415,6.2415,6.2468,6.2502,6.2598,6.262,6.2743,6.2899,6.2797,6.251,6.2345,6.2395,6.2632,6.2393,6.2813,6.3698,6.4384,6.4839,6.505,6.5105,6.5116,6.5094,6.473,6.4299,6.3791,6.3194,6.273,6.2366,6.22,6.2233,6.2345,6.2368,6.2054,6.1797,6.1699,6.1343,7.794,7.8226,7.8118,7.7754,7.7335,7.7326,7.7326,7.7326,7.7326,7.7326,7.7326,7.7289,7.7142,7.6959,7.7105,7.7069,7.6995,7.7179,7.7252,7.7326,7.7326,7.7326,7.7326,7.731,7.7139,7.6998,7.6688,7.6508,7.6462,7.6412,7.6395,7.6445,7.6362,7.6292,7.6292,7.622,7.5877,7.508,7.5949,7.4553,7.2054,7.1893,7.1386,7.1277,7.0951,7.1205,7.1277,7.1494,7.1494,7.1494,7.1494,7.1494,7.1363,7.0688,7.0324,7.0127,6.953,6.8681,6.8607,6.8443,6.825,6.792,6.7842,6.7497,6.6965,6.5861,6.5186,6.4703,6.3772,6.36,6.3544,6.3414,6.3227,6.3019,6.2828,6.2615,6.2459,6.2434,6.2415,6.2415,6.2415,6.2415,6.2584,6.299,6.3065,6.3194,6.3364,6.3633,6.3345,6.3175,6.3149,6.3166,6.3102,6.3183,6.3955,6.4486,6.4862,6.4984,6.5028,6.516,6.5227,6.5028,6.4697,6.4222,6.3824,6.3459,6.3161,6.2929,6.283,6.2929,6.2997,6.3032,6.2738,6.2546,6.2538,7.6588,7.7023,7.7356,7.7327,7.7011,7.7105,7.7105,7.7142,7.7252,7.7326,7.7326,7.7326,7.6848,7.6738,7.6885,7.6628,7.6665,7.7105,7.7289,7.7326,7.7326,7.7326,7.7326,7.731,7.7087,7.6834,7.6558,7.6409,7.6309,7.6292,7.6292,7.6292,7.6292,7.6292,7.6292,7.6292,7.6058,7.5985,7.6111,7.5551,7.4645,7.3905,7.2746,7.1965,7.1494,7.1494,7.1494,7.1494,7.1494,7.1494,7.1494,7.1494,7.1275,7.0838,7.0505,7.0084,6.9194,6.8603,6.8406,6.8096,6.7988,6.7935,6.8034,6.7807,6.7275,6.6723,6.6048,6.5359,6.4427,6.3719,6.3664,6.3449,6.3261,6.3034,6.2823,6.2765,6.2648,6.2584,6.2584,6.2584,6.2584,6.2584,6.2685,6.3125,6.3443,6.3606,6.3883,6.4186,6.4345,6.4229,6.4139,6.4302,6.4384,6.4518,6.4575,6.4697,6.5028,6.5061,6.516,6.5293,6.5337,6.5227,6.4995,6.4697,6.4321,6.4023,6.3857,6.3691,6.3592,6.3592,6.3847,6.3969,6.3559,6.3489,6.3912,7.6005,7.5911,7.6,7.5791,7.5521,7.6041,7.6313,7.646,7.7032,7.7326,7.7326,7.7326,7.7179,7.7069,7.7179,7.7032,7.6812,7.7179,7.7289,7.7326,7.7326,7.7326,7.731,7.7279,7.7071,7.6817,7.661,7.6462,7.6309,7.6292,7.6292,7.6292,7.6292,7.6292,7.6292,7.6292,7.6292,7.6292,7.6292,7.5913,7.5587,7.4573,7.2999,7.2183,7.1494,7.1494,7.1494,7.1494,7.1494,7.1494,7.1494,7.1494,7.1291,7.0827,7.042,6.9931,6.8997,6.8151,6.7821,6.761,6.7495,6.7467,6.7635,6.8049,6.7601,6.7256,6.6738,6.6359,6.5428,6.4393,6.4096,6.3636,6.3345,6.3045,6.278,6.3046,6.3145,6.3193,6.3193,6.3226,6.3226,6.2956,6.2618,6.3057,6.3511,6.3795,6.4289,6.4626,6.521,6.519,6.5134,6.5242,6.5413,6.5404,6.5271,6.5094,6.526,6.526,6.526,6.5337,6.5403,6.5403,6.5194,6.4995,6.4796,6.4531,6.4399,6.4332,6.4498,6.4564,6.4895,6.4971,6.4455,6.4179,6.4375]}]]